     2              OBSERVATION DATA    G                   RINEX VERSION / TYPE
Leica SKI-Pro 3.0 V3 11-9-5 16:26                           PGM / RUN BY / DATE
                                                            OBSERVER / AGENCY
slauref                                                     MARKER NAME
slauref                                                     MARKER NUMBER
REF1 LEICA SR530 4.20                                       REC # / TYPE / VERS
LEIAT502                                                    ANT # / TYPE
 -1360478.3663 -5233440.7395  3373608.3943                  APPROX POSITION XYZ
        0.3600        0.0000        0.0000                  ANTENNA: DELTA H/E/N
L1PhaOff: 0.0683 L2PhaOff: 0.0712                           COMMENT
     1     1                                                WAVELENGTH FACT L1/2
     4    C1    L1    P2    L2                              # / TYPES OF OBSERV
  2005     2    16    18    23   55.000000                  TIME OF FIRST OBS
  2005     2    16    21    46   15.000000                  TIME OF LAST OBS
    13                                                      LEAP SECONDS
    14                                                      # OF SATELLITES
C1 P1 L1 D1 P2 L2 D2                                        COMMENT
   G 1     0     0     0     0     0     0     0            PRN / # OF OBS
   G 2  2207     0  2207     0  2198  2198     0            PRN / # OF OBS
   G 3     0     0     0     0     0     0     0            PRN / # OF OBS
   G 4   974     0   974     0   957   957     0            PRN / # OF OBS
   G 5  2429     0  2429     0  2429  2429     0            PRN / # OF OBS
   G 6  1763     0  1763     0  1757  1757     0            PRN / # OF OBS
   G 7    58     0    58     0    48    48     0            PRN / # OF OBS
   G 8     0     0     0     0     0     0     0            PRN / # OF OBS
   G 9   426     0   426     0   412   412     0            PRN / # OF OBS
   G10  2429     0  2429     0  2429  2429     0            PRN / # OF OBS
   G11     0     0     0     0     0     0     0            PRN / # OF OBS
   G12     0     0     0     0     0     0     0            PRN / # OF OBS
   G13     0     0     0     0     0     0     0            PRN / # OF OBS
   G14     0     0     0     0     0     0     0            PRN / # OF OBS
   G15     0     0     0     0     0     0     0            PRN / # OF OBS
   G16     0     0     0     0     0     0     0            PRN / # OF OBS
   G17  2429     0  2429     0  2429  2429     0            PRN / # OF OBS
   G18    27     0    27     0    25    25     0            PRN / # OF OBS
   G19     0     0     0     0     0     0     0            PRN / # OF OBS
   G20     0     0     0     0     0     0     0            PRN / # OF OBS
   G21   581     0   581     0   571   571     0            PRN / # OF OBS
   G22     0     0     0     0     0     0     0            PRN / # OF OBS
   G23     0     0     0     0     0     0     0            PRN / # OF OBS
   G24   205     0   205     0   195   195     0            PRN / # OF OBS
   G25     0     0     0     0     0     0     0            PRN / # OF OBS
   G26   655     0   655     0   653   653     0            PRN / # OF OBS
   G27     0     0     0     0     0     0     0            PRN / # OF OBS
   G28     0     0     0     0     0     0     0            PRN / # OF OBS
   G29   955     0   955     0   953   953     0            PRN / # OF OBS
   G30  2429     0  2429     0  2425  2425     0            PRN / # OF OBS
   G31     0     0     0     0     0     0     0            PRN / # OF OBS
   G32     0     0     0     0     0     0     0            PRN / # OF OBS
                                                            END OF HEADER
  5  2 16 18 23 55.0000000  0  9G 2G 4G 5G 7G 9G10G17G24G30
  20206620.032   106186500.84159  20206620.899    82742735.69359
  21082421.889   110788873.75759  21082425.702    86329010.30258
  21301631.548   111940825.10659  21301635.758    87226637.89959
  23468937.850   123330105.65557  23468944.283    96101401.66057
  22967334.452   120694152.54158  22967339.924    94047415.25458
  23184140.661   121833475.23256  23184148.633    94935214.14458
  21723871.131   114159705.55658  21723875.319    88955637.90758
  23345013.417   122678867.86357  23345020.430    95593958.22857
  23757972.373   124848991.23156         0.000           0.00040
  5  2 16 18 24  0.0000000  0  9G 2G 4G 5G 7G 9G10G17G24G30
  20191029.377   106104571.95949  20191030.334    82678895.02949
  21069542.399   110721191.64348  21069546.244    86276270.97848
  21284621.535   111851436.76048  21284625.602    87156984.65348
  23455624.722   123260145.79048  23455631.330    96046887.43747
  22954497.306   120626692.32147  22954502.799    93994848.81248
  23165702.931   121736584.96447  23165711.003    94859715.22547
  21707045.945   114071288.45348  21707050.085    88886741.48248
  23332858.284   122614992.18047  23332865.100    95544184.90447
  23739685.659   124752894.24646         0.000           0.00040
  5  2 16 18 24  5.0000000  0  9G 2G 4G 5G 7G 9G10G17G24G30
  20190554.389   106102075.66449  20190555.315    82676949.84449
  21071777.490   110732936.90848  21071781.270    86285423.13248
  21282726.709   111841479.16148  21282730.631    87149225.50048
  23457425.209   123269608.13147  23457431.809    96054260.69147
  22956774.653   120638659.73547  22956780.270    94004174.04948
  23162378.944   121719117.38547  23162386.996    94846104.16047
  21705335.557   114062300.42848  21705339.713    88879737.82648
  23335816.431   122630537.90947  23335823.169    95556298.48447
  23736512.657   124736220.69246         0.000           0.00040
  5  2 16 18 24 10.0000000  0  9G 2G 4G 5G 7G 9G10G17G24G30
  20190044.955   106099398.63149  20190045.878    82674863.84949
  21073977.208   110744496.28849  21073980.940    86294430.44348
  21280797.068   111831338.92549  21280801.007    87141324.01249
  23459189.464   123278879.47847  23459196.006    96061485.12747
  22959016.616   120650441.51348  22959022.328    94013354.65148
  23159018.609   121701458.98846  23159026.619    94832344.41547
  21703590.127   114053128.03948  21703594.259    88872590.51748
  23338738.213   122645891.88447  23338744.817    95568262.61147
  23733303.628   124719357.07246         0.000           0.00040
  5  2 16 18 24 15.0000000  0  9G 2G 4G 5G 7G 9G10G17G24G30
  20189501.841   106096544.70349  20189502.779    82672640.01049
  21076142.284   110755873.71049  21076145.983    86303295.96449
  21278833.405   111821019.89849  21278837.422    87133283.20849
  23460918.170   123287963.67347  23460924.601    96068563.71747
  22961224.004   120662041.57248  22961229.772    94022393.64348
  23155622.685   121683613.79046  23155630.721    94818439.09247
  21701810.292   114043775.19448  21701814.489    88865302.59048
  23341624.207   122661057.97546  23341630.756    95580080.33147
  23730059.194   124702307.23846  23730065.534    97170650.97156
  5  2 16 18 24 20.0000000  0  9G 2G 4G 5G 7G 9G10G17G24G30
  20188984.362   106093825.39849  20188985.312    82670521.06849
  21078332.015   110767380.70349  21078335.688    86312262.43948
  21276895.013   111810833.58148  21276899.078    87125345.82849
  23462670.562   123297172.24347  23462676.884    96075739.21047
  22963456.082   120673771.37848  22963461.938    94031533.73948
  23152250.527   121665893.19647  23152258.500    94804630.84847
  21700055.402   114034553.40448  21700059.658    88858116.78948
  23344533.763   122676347.70246  23344540.211    95591994.40847
  23726838.621   124685382.75946  23726844.814    97157463.09646
  5  2 16 18 24 25.0000000  0  9G 2G 4G 5G 7G 9G10G17G24G30
  20188493.075   106091243.69549  20188494.023    82668509.35349
  21080546.960   110779020.19249  21080550.614    86321332.15848
  21274982.472   111800782.98348  21274986.561    87117514.20349
  23464447.181   123306508.18547  23464453.443    96083013.92247
  22965713.429   120685633.91448  22965719.375    94040777.25148
  23148902.640   121648300.27347  23148910.562    94790922.10247
  21698326.039   114025465.66248  21698330.336    88851035.44248
  23347467.439   122691763.99446  23347473.750    95604007.07047
  23723642.382   124668586.59846  23723648.700    97144375.16846
  5  2 16 18 24 30.0000000  0  9G 2G 4G 5G 7G 9G10G17G24G30
  20187969.876   106088494.27049  20187970.818    82666366.94949
  21082729.011   110790486.85249  21082732.644    86330267.20949
  21273037.642   111790562.83248  21273041.756    87109550.45649
  23466189.931   123315666.24247  23466196.145    96090150.05747
  22967937.947   120697323.86548  22967943.943    94049886.30048
  23145520.994   121630529.72946  23145528.860    94777074.94247
  21696564.096   114016206.68548  21696568.434    88843820.65648
  23350367.049   122707001.61046  23350373.247    95615880.52647
  23720412.446   124651613.45046  23720418.943    97131149.32346
  5  2 16 18 24 35.0000000  0  9G 2G 4G 5G 7G 9G10G17G24G30
  20187473.792   106085887.33049  20187474.733    82664335.56349
  21084937.234   110802090.98549  21084940.849    86339309.37448
  21271119.571   111780483.36549  21271123.712    87101696.32649
  23467957.853   123324956.54847  23467964.031    96097389.22447
  22970188.647   120709151.43548  22970194.711    94059102.57148
  23142164.606   121612891.76446  23142172.419    94763331.09447
  21694828.609   114007086.69748  21694832.969    88836714.18448
  23353291.680   122722370.71447  23353297.786    95627856.46247
  23717207.826   124634773.59346  23717214.409    97118027.45046
  5  2 16 18 24 40.0000000  0  9G 2G 4G 5G 7G 9G10G17G24G30
  20187005.186   106083424.85349  20187006.126    82662416.75949
  21087171.948   110813834.42349  21087175.535    86348460.10548
  21269228.635   111770546.52249  21269232.795    87093953.33549
  23469751.300   123334381.11348  23469757.465    96104733.03747
  22972465.899   120721118.53748  22972472.019    94068427.57648
  23138833.788   121595388.34946  23138841.611    94749692.08747
  21693119.937   113998107.60148  21693124.312    88829717.48748
  23356241.737   122737873.24047  23356247.812    95639936.32647
  23714029.145   124618068.94546  23714035.635    97105010.77446
  5  2 16 18 24 45.0000000  0  9G 2G 4G 5G 7G 9G10G17G24G30
  20186476.483   106080646.46549  20186477.423    82660251.77749
  21089345.587   110825256.88049  21089349.162    86357360.71048
  21267277.256   111760291.95548  21267281.423    87085962.76249
  23471482.734   123343479.58248  23471488.880    96111822.70447
  22974682.131   120732764.85347  22974688.320    94077502.58548
  23135440.969   121577559.12546  23135448.794    94735799.22448
  21691350.466   113988809.09348  21691354.861    88822471.91548
  23359129.562   122753048.83147  23359135.637    95651761.45747
  23710788.469   124601039.23547  23710794.918    97091740.89447
  5  2 16 18 24 50.0000000  0  9G 2G 4G 5G 7G 9G10G17G24G30
  20186005.144   106078169.62649  20186006.084    82658321.78449
  21091575.621   110836975.72548  21091579.195    86366492.26048
  21265382.928   111750337.16548  21265387.103    87078205.77649
  23473269.547   123352869.37747  23473275.687    96119139.44248
  22976954.790   120744707.81948  22976961.020    94086808.78548
  23132103.696   121560021.70046  23132111.532    94722133.72948
  21689637.737   113979808.60948  21689642.122    88815458.56348
  23362072.698   122768514.99047  23362078.814    95663812.99347
  23707603.454   124584301.86847  23707609.923    97078698.74647
  5  2 16 18 24 55.0000000  0  9G 2G 4G 5G 7G 9G10G17G24G30
  20185503.561   106075533.75749  20185504.501    82656267.85749
  21093774.375   110848530.28749  21093777.966    86375495.80048
  21263457.983   111740221.53948  21263462.163    87070323.47149
  23475024.202   123362089.96247  23475030.349    96126324.27047
  22979196.282   120756486.78548  22979202.570    94095987.15248
  23128734.327   121542315.29447  23128742.154    94708336.53048
  21687894.073   113970645.52848  21687898.462    88808318.50648
  23364983.485   122783811.03147  23364989.632    95675731.95947
  23704386.393   124567396.25647  23704392.821    97065525.56547
  5  2 16 18 25  0.0000000  0  9G 2G 4G 5G 7G 9G10G17G24G30
  20185030.508   106073047.78449  20185031.444    82654330.73449
  21096000.675   110860229.63649  21096004.265    86384612.18348
  21261561.227   111730254.02248  21261565.394    87062556.58249
  23476805.439   123371450.24247  23476811.596    96133617.95947
  22981465.349   120768410.68748  22981471.649    94105278.49348
  23125391.599   121524748.95346  23125399.393    94694648.48447
  21686178.246   113961628.79948  21686182.640    88801292.50048
  23367920.681   122799245.88047  23367926.871    95687759.09147
  23701196.093   124550631.33647  23701202.550    97052462.03047
  5  2 16 18 25  5.0000000  0  9G 2G 4G 5G 7G 9G10G17G24G30
  20184556.839   106070558.57449  20184557.770    82652391.08749
  21098225.404   110871920.63349  21098228.992    86393722.03849
  21259663.534   111720281.51448  21259667.702    87054785.78449
  23478584.069   123380797.09748  23478590.245    96140901.23147
  22983732.862   120780326.42048  22983739.171    94114563.46448
  23122046.367   121507169.57546  23122054.119    94680950.30248
  21684461.146   113952605.28548  21684465.536    88794261.18748
  23370855.125   122814666.45647  23370861.358    95699775.13647
  23698003.479   124533854.03447  23698009.918    97039388.80247
  5  2 16 18 25 10.0000000  0  9G 2G 4G 5G 7G 9G10G17G24G30
  20184053.427   106067913.09549  20184054.367    82650329.67449
  21100419.380   110883450.11948  21100422.980    86402706.05148
  21257735.741   111710150.98749  21257739.915    87046891.88249
  23480331.036   123389977.47147  23480337.222    96148054.74947
  22985969.705   120792080.89448  22985975.999    94123722.77448
  23118669.541   121489424.14446  23118677.286    94667122.70548
  21682713.632   113943422.00648  21682718.019    88787105.39448
  23373757.724   122829919.68747  23373764.030    95711660.74947
  23694779.365   124516911.32547  23694785.791    97026186.69647
  5  2 16 18 25 15.0000000  0  9G 2G 4G 5G 7G 9G10G17G24G30
  20183549.638   106065265.66949  20183550.580    82648266.75149
  21102612.026   110894972.48949  21102615.647    86411684.49948
  21255807.249   111700016.78749  21255811.437    87038995.11949
  23482075.698   123399145.76447  23482081.908    96155198.85047
  22988205.199   120803828.42748  22988211.488    94132876.69748
  23115290.452   121471666.97546  23115298.215    94653285.97447
  21680965.071   113934233.25348  21680969.452    88779945.33648
  23376657.841   122845159.90547  23376664.198    95723536.23347
  23691553.157   124499957.55047  23691559.546    97012975.97947
  5  2 16 18 25 20.0000000  0  9G 2G 4G 5G 7G 9G10G17G24G30
  20183104.225   106062924.94349  20183105.169    82646442.80349
  21104862.032   110906796.34948  21104865.665    86420897.88648
  21253936.806   111690187.54348  21253940.982    87031335.97949
  23483876.800   123408610.55747  23483883.028    96162573.98147
  22990498.103   120815877.69348  22990504.406    94142265.71848
  23111967.842   121454206.75746  23111975.619    94639680.65447
  21679274.204   113925347.72148  21679278.579    88773021.55648
  23379614.229   122860695.70247  23379620.618    95735642.02647
  23688383.593   124483301.31747  23688389.934    96999997.10347
  5  2 16 18 25 25.0000000  0  9G 2G 4G 5G 7G 9G10G17G24G30
  20182600.022   106060275.27849  20182600.962    82644378.12949
  21107052.249   110918306.11048  21107055.887    86429866.54148
  21252007.257   111680047.69849  21252011.418    87023434.80049
  23485617.146   123417756.25747  23485623.384    96169700.50847
  22992731.275   120827613.02648  22992737.577    94151410.12048
  23108584.607   121436427.92347  23108592.410    94625827.04347
  21677523.904   113916149.79648  21677528.279    88765854.33848
  23382509.727   122875911.52247  23382516.140    95747498.48947
  23685153.492   124466327.05447  23685159.770    96986770.43647
  5  2 16 18 25 30.0000000  0  9G 2G 4G 5G 7G 9G10G17G24G30
  20182154.320   106057933.12749  20182155.267    82642553.08549
  21109300.024   110930118.18848  21109303.682    86439070.72748
  21250135.908   111670213.68849  21250140.038    87015771.94049
  23487414.101   123427199.29147  23487420.364    96177058.68547
  22995022.029   120839650.86148  22995028.338    94160790.21348
  23105258.032   121418946.87346  23105265.863    94612205.48047
  21675831.446   113907255.86948  21675835.808    88758924.01748
  23385461.632   122891423.70247  23385468.063    95759585.86947
  23681980.198   124449651.25347  23681986.433    96973776.30747
  5  2 16 18 25 35.0000000  0  9G 2G 4G 5G 7G 9G10G17G24G30
  20181679.258   106055436.63049  20181680.199    82640607.75849
  21111517.409   110941770.71548  21111521.058    86448150.63648
  21248234.865   111660223.67348  21248238.981    87007987.52249
  23489179.757   123436477.87647  23489186.038    96184288.73047
  22997282.445   120851529.33747  22997288.749    94170046.15848
  23101900.288   121401301.84447  23101908.133    94598456.10747
  21674108.947   113898204.07848  21674113.304    88751870.68448
  23388382.049   122906770.50147  23388388.504    95771544.39847
  23678775.816   124432812.04447  23678782.009    96960654.85247
  5  2 16 18 25 40.0000000  0  9G 2G 4G 5G 7G 9G10G17G24G30
  20181233.500   106053094.15649  20181234.435    82638782.46249
  21113763.132   110953572.03848  21113766.786    86457346.45448
  21246362.827   111650386.01348  21246366.951    87000321.80949
  23490972.786   123445900.33947  23490979.070    96191630.89947
  22999571.227   120863556.84047  22999577.519    94179418.22348
  23098569.980   121383801.17647  23098577.828    94584819.25347
  21672415.105   113889302.87948  21672419.457    88744934.69348
  23391329.642   122922260.20947  23391336.109    95783614.28747
  23675598.974   124416117.78347  23675605.151    96947646.36747
  5  2 16 18 25 45.0000000  0  9G 2G 4G 5G 7G 9G10G17G24G30
  20180758.445   106050597.75649  20180759.378    82636837.21649
  21115978.573   110965214.26148  21115982.239    86466418.30248
  21244461.166   111640392.77948  21244465.313    86992534.88849
  23492734.604   123455158.69047  23492740.882    96198845.16247
  23001829.741   120875425.28647  23001836.015    94188666.35548
  23095208.571   121366136.94747  23095216.412    94571054.94247
  21670691.305   113880244.25148  21670695.651    88737876.02748
  23394245.839   122937584.86547  23394252.320    95795555.55647
  23672391.133   124399260.56147  23672397.306    96934510.87447
  5  2 16 18 25 50.0000000  0  9G 2G 4G 5G 7G 9G10G17G24G30
  20180283.446   106048101.58549  20180284.372    82634892.14549
  21118193.046   110976851.42648  21118196.722    86475486.21048
  21242559.247   111630398.16048  21242563.415    86984746.87049
  23494494.515   123464407.11847  23494500.789    96206051.71747
  23004087.342   120887288.93547  23004093.615    94197910.72648
  23091845.377   121348463.23947  23091853.204    94557283.23048
  21668966.885   113871182.39048  21668971.225    88730814.85448
  23397159.953   122952898.60747  23397166.447    95807488.32847
  23669181.608   124382394.52047  23669187.778    96921368.51947
  5  2 16 18 25 55.0000000  0  9G 2G 4G 5G 7G 9G10G17G24G30
  20179837.802   106045759.71149  20179838.729    82633067.31049
  21120435.887   110988637.60249  21120439.576    86484670.22848
  21240686.374   111620556.17648  21240690.541    86977077.79949
  23496281.857   123473799.69747  23496288.126    96213370.59747
  23006373.351   120899301.80747  23006379.619    94207271.37448
  23088509.709   121330934.19047  23088517.525    94543624.24548
  21667271.176   113862271.34748  21667275.518    88723871.18648
  23400101.297   122968355.50247  23400107.832    95819532.65347
  23665999.747   124365673.78747  23666005.920    96908339.37347
  5  2 16 18 26  0.0000000  0  9G 2G 4G 5G 7G 9G10G17G24G30
  20179392.201   106043418.09649  20179393.127    82631242.67749
  21122677.767   111000418.82849  21122681.469    86493850.40448
  21238813.246   111610712.82448  21238817.399    86969407.65548
  23498067.330   123483182.41647  23498073.595    96220681.79447
  23008658.407   120911309.82747  23008664.662    94216628.27448
  23085172.243   121313395.78046  23085180.069    94529957.98147
  21665574.842   113853357.11548  21665579.192    88716925.04448
  23403040.592   122983801.60347  23403047.162    95831568.56147
  23662816.210   124348944.28147  23662822.366    96895303.40647
  5  2 16 18 26  5.0000000  0  9G 2G 4G 5G 7G 9G10G17G24G30
  20178917.362   106040922.79749  20178918.287    82629298.28449
  21124889.426   111012041.10948  21124893.133    86502906.70848
  21236910.567   111600714.23949  21236914.710    86961616.55748
  23499821.647   123492401.35147  23499827.936    96227865.33846
  23010913.272   120923159.09947  23010919.534    94225861.44248
  23081803.716   121295694.11047  23081811.542    94516164.49148
  21663848.614   113844285.72949  21663852.965    88709856.43648
  23405948.539   122999082.83947  23405955.136    95843475.97747
  23659601.724   124332052.13747  23659607.883    96882140.69747
  5  2 16 18 26 10.0000000  0  9G 2G 4G 5G 7G 9G10G17G24G30
  20178442.574   106038427.76849  20178443.499    82627354.10749
  21127100.108   111023658.38548  21127103.828    86511959.13448
  21235007.640   111590714.35448  21235011.782    86953824.44649
  23501574.068   123501610.45247  23501580.353    96235041.25446
  23013167.198   120935003.52748  23013173.473    94235090.85448
  23078433.401   121277983.14446  23078441.236    94502363.77648
  21662121.771   113835211.20048  21662126.129    88702785.39048
  23408854.390   123014353.19347  23408860.995    95855374.95347
  23656385.538   124315151.24947  23656391.692    96868971.21547
  5  2 16 18 26 15.0000000  0  9G 2G 4G 5G 7G 9G10G17G24G30
  20177997.151   106036087.08949  20177998.076    82625530.20549
  21129339.173   111035424.68649  21129342.901    86521127.66849
  21233133.783   111580867.20048  21233137.924    86946151.34349
  23503353.924   123510963.72046  23503360.207    96242329.52246
  23015449.526   120946997.18048  23015455.813    94244436.52848
  23075090.676   121260416.97247  23075098.507    94488675.85647
  21660423.663   113826287.55249  21660428.021    88695831.89348
  23411787.508   123029766.73747  23411794.115    95867385.49347
  23653197.073   124298395.75347  23653203.237    96855914.96347
  5  2 16 18 26 20.0000000  0  9G 2G 4G 5G 7G 9G10G17G24G30
  20177581.086   106033900.65349  20177582.011    82623826.48949
  21131606.586   111047339.95949  21131610.322    86530412.28548
  21231288.983   111571172.74348  21231293.118    86938597.23249
  23505161.225   123520461.14847  23505167.526    96249730.09846
  23017760.234   120959139.96947  23017766.529    94253898.42848
  23071775.483   121242995.54747  23071783.303    94475100.74547
  21658754.225   113817514.69048  21658758.597    88688995.91248
  23414747.846   123045323.41847  23414754.447    95879507.58947
  23650036.229   124281785.59247  23650042.389    96842972.00447
  5  2 16 18 26 25.0000000  0  9G 2G 4G 5G 7G 9G10G17G24G30
  20177106.478   106031406.53849  20177107.395    82621883.01849
  21133814.437   111058942.23448  21133818.174    86539453.00848
  21229385.335   111561169.06648  21229389.476    86930802.16749
  23506908.045   123529640.81546  23506914.372    96256883.07946
  23020011.415   120970969.91048  23020017.702    94263116.54548
  23068399.936   121225256.93047  23068407.757    94461278.45048
  21657025.579   113808430.65648  21657029.951    88681917.45548
  23417647.539   123060561.25347  23417654.146    95891381.18447
  23646815.125   124264858.82447  23646821.287    96829782.35147
  5  2 16 18 26 30.0000000  0  9G 2G 4G 5G 7G 9G10G17G24G30
  20176690.531   106029220.75549  20176691.455    82620179.81249
  21136079.952   111070847.56748  21136083.682    86548729.88548
  21227540.082   111551472.19948  21227544.236    86923246.15549
  23508711.656   123539118.69846  23508718.008    96264268.38546
  23022320.287   120983103.02347  23022326.567    94272570.89948
  23065081.241   121207817.13347  23065089.050    94447689.02547
  21655354.947   113799651.52148  21655359.324    88675076.58148
  23420603.765   123076096.26047  23420610.350    95903486.37847
  23643651.031   124248231.46348  23643657.198    96816825.96847
  5  2 16 18 26 35.0000000  0  9G 2G 4G 5G 7G 9G10G17G24G30
  20176216.004   106026727.09849  20176216.921    82618236.70449
  21138285.864   111082439.74148  21138289.580    86557762.76248
  21225635.927   111541465.92148  21225640.080    86915449.08249
  23510454.734   123548278.53946  23510461.107    96271405.89446
  23024569.581   120994923.11247  23024575.854    94281781.35448
  23061702.156   121190059.98447  23061709.967    94433852.30848
  21653625.099   113790561.10448  21653629.475    88667993.14048
  23423499.264   123091312.18347  23423505.830    95915342.94747
  23640426.650   124231287.32147  23640432.831    96803622.75547
  5  2 16 18 26 40.0000000  0  9G 2G 4G 5G 7G 9G10G17G24G30
  20175770.825   106024387.66549  20175771.748    82616413.76649
  21140520.136   111094180.82948  21140523.854    86566911.64448
  21223760.853   111531612.34248  21223765.013    86907770.96549
  23512225.194   123557582.59246  23512231.552    96278655.85346
  23026847.253   121006892.23147  23026853.526    94291107.91548
  23058350.622   121172447.58547  23058358.423    94420128.38647
  21651923.938   113781621.53948  21651928.307    88661027.26448
  23426422.005   123106671.16447  23426428.572    95927310.96247
  23637229.972   124214488.53747  23637236.167    96790532.76147
  5  2 16 18 26 45.0000000  0  9G 2G 4G 5G 7G 9G10G17G24G30
  20175354.950   106022202.23049  20175355.860    82614710.83749
  21142782.704   111106070.51148  21142786.416    86576176.30348
  21221914.788   111521911.26749  21221918.955    86900211.69548
  23514023.077   123567030.53046  23514029.461    96286017.86446
  23029153.260   121019010.16047  23029159.529    94300550.42548
  23055026.605   121154979.72647  23055034.394    94406517.07547
  21650251.437   113772832.54748  21650255.805    88654178.71248
  23429371.921   123122172.92147  23429378.479    95939390.24447
  23634060.868   124197834.84648  23634067.063    96777555.87148
  5  2 16 18 26 50.0000000  0  9G 2G 4G 5G 7G 9G10G17G24G30
  20174939.094   106020016.82749  20174939.997    82613007.91549
  21145044.227   111117954.89848  21145047.947    86585436.86449
  21220068.467   111512208.78549  21220072.641    86892651.31649
  23515819.030   123576468.38945  23515825.425    96293372.03845
  23031458.252   121031122.91247  23031464.509    94309988.93048
  23051700.790   121137502.48046  23051708.581    94392898.45848
  21648578.281   113764040.11948  21648582.654    88647327.47148
  23432319.718   123137663.54147  23432326.279    95951460.83847
  23630890.103   124181172.33548  23630896.291    96764572.08948
  5  2 16 18 26 55.0000000  0  9G 2G 4G 5G 7G 9G10G17G24G30
  20174464.628   106017523.45849  20174465.518    82611065.03449
  21147246.126   111129525.95648  21147249.847    86594453.27548
  21218163.258   111502196.84349  21218167.434    86884849.81248
  23517554.511   123585588.24646  23517560.925    96300478.36846
  23033703.666   121042922.51747  23033709.925    94319183.40848
  23048314.550   121119707.82447  23048322.333    94379032.52647
  21646845.872   113754936.34148  21646850.251    88640233.63048
  23435206.769   123152834.97047  23435213.341    95963282.71647
  23627659.051   124164193.03948  23627665.252    96751341.46648
  5  2 16 18 27  0.0000000  0  9G 2G 4G 5G 7G 9G10G17G24G30
  20174078.051   106015492.01649  20174078.934    82609482.09949
  21149534.925   111141553.61249  21149538.655    86603825.46649
  21216345.675   111492645.37748  21216349.863    86877407.10449
  23519375.946   123595159.92245  23519382.379    96307936.79445
  23036035.980   121055178.82047  23036042.242    94328733.76248
  23045014.438   121102365.71247  23045022.227    94365519.20648
  21645200.732   113746291.07348  21645205.111    88633497.05948
  23438179.594   123168457.11547  23438186.189    95975455.78247
  23624514.214   124147666.80848  23624520.417    96738463.89248
  5  2 16 18 27  5.0000000  0  9G 2G 4G 5G 7G 9G10G17G24G30
  20173662.198   106013306.66149  20173663.081    82607779.22149
  21151793.393   111153421.91049  21151797.129    86613073.47848
  21214498.506   111482938.53448  21214502.696    86869843.35449
  23521166.168   123604567.63345  23521172.631    96315267.45346
  23038338.013   121067275.92748  23038344.283    94338160.04848
  23041683.256   121084860.29547  23041691.037    94351878.63448
  21643525.637   113737488.45149  21643530.021    88626637.87748
  23441120.976   123183914.09147  23441127.581    95987500.16547
  23621338.394   124130977.82448  23621344.599    96725459.50848
  5  2 16 18 27 10.0000000  0  9G 2G 4G 5G 7G 9G10G17G24G30
  20173216.962   106010966.93049  20173217.839    82605956.06049
  21154021.467   111165130.48748  21154025.203    86622197.03948
  21212621.714   111473075.92448  21212625.898    86862158.21248
  23522925.105   123613810.90645  23522931.577    96322469.97945
  23040609.664   121079213.41047  23040615.929    94347461.96548
  23038320.931   121067191.16047  23038328.700    94338110.49048
  21641820.519   113728528.11948  21641824.900    88619655.81548
  23444030.848   123199205.51047  23444037.482    95999415.53447
  23618131.519   124114125.67948  23618137.725    96712327.99048
  5  2 16 18 27 15.0000000  0  9G 2G 4G 5G 7G 9G10G17G24G30
  20172801.002   106008781.01849  20172801.879    82604252.74249
  21156277.783   111176987.50849  21156281.526    86631436.27248
  21210773.931   111463365.69949  21210778.116    86854591.79448
  23524711.414   123623197.90145  23524717.892    96329784.48645
  23042909.592   121091299.48448  23042915.865    94356879.66148
  23034986.105   121049666.53047  23034993.856    94324454.95348
  21640144.046   113719718.22348  21640148.420    88612790.97148
  23446967.875   123214639.56247  23446974.523    96011442.04247
  23614952.265   124097418.58647  23614958.487    96699309.48048
  5  2 16 18 27 20.0000000  0  9G 2G 4G 5G 7G 9G10G17G24G30
  20172384.989   106006594.85449  20172385.867    82602549.24249
  21158533.048   111188838.91448  21158536.785    86640671.11748
  21208925.822   111453653.85349  21208930.008    86847024.12949
  23526495.767   123632574.64345  23526502.247    96337091.02545
  23045208.451   121103380.07248  23045214.739    94366293.10648
  23031649.464   121032132.33346  23031657.202    94310791.94748
  21638466.872   113710904.67748  21638471.237    88605923.28148
  23449902.715   123230062.15947  23449909.359    96023459.64147
  23611771.285   124080702.48548  23611777.522    96686283.96048
  5  2 16 18 27 25.0000000  0  9G 2G 4G 5G 7G 9G10G17G24G30
  20171968.921   106004408.43549  20171969.791    82600845.54449
  21160787.222   111200684.67649  21160790.951    86649901.58348
  21207077.403   111443940.34648  21207081.582    86839455.16549
  23528278.119   123641941.03145  23528284.586    96344389.53045
  23047506.278   121115455.10847  23047512.580    94375702.19448
  23028310.993   121014588.58147  23028318.712    94297121.51148
  21636788.996   113702087.44248  21636793.358    88599052.71148
  23452835.378   123245473.25047  23452842.031    96035468.25347
  23608588.596   124063977.30848  23608594.841    96673251.34948
  5  2 16 18 27 30.0000000  0  9G 2G 4G 5G 7G 9G10G17G24G30
  20171552.794   106002221.67249  20171553.658    82599141.58049
  21163040.323   111212524.67849  21163044.052    86659127.52848
  21205228.662   111434225.08148  21205232.834    86831884.81849
  23530058.554   123651297.08945  23530065.033    96351679.91445
  23049803.024   121127524.52647  23049809.341    94385106.92148
  23024970.667   120997035.17546  23024978.372    94283443.56448
  21635110.434   113693266.54248  21635114.796    88592179.27848
  23455765.832   123260872.76647  23455772.485    96047467.85047
  23605404.169   124047243.06548  23605410.429    96660211.68448
  5  2 16 18 27 35.0000000  0  9G 2G 4G 5G 7G 9G10G17G24G30
  20171136.563   106000034.35949  20171137.434    82597437.17849
  21165292.262   111224358.76049  21165295.991    86668348.90548
  21203379.538   111424507.93048  21203383.702    86824313.02848
  23531836.948   123660642.52245  23531843.440    96358962.03545
  23052098.657   121139588.09947  23052104.982    94394507.09448
  23021628.477   120979472.00246  23021636.173    94269758.00847
  21633431.111   113684441.70148  21633435.450    88585302.79748
  23458694.046   123276260.51047  23458700.701    96059458.28047
  23602217.990   124030499.58348  23602224.251    96647164.81848
  5  2 16 18 27 40.0000000  0  9G 2G 4G 5G 7G 9G10G17G24G30
  20170720.253   105997846.60749  20170721.125    82595732.43149
  21167543.097   111236186.94348  21167546.826    86677565.66648
  21201530.078   111414789.01749  21201534.242    86816739.85948
  23533613.343   123669977.54245  23533619.841    96366236.07345
  23054393.181   121151645.93648  23054399.520    94403902.81148
  23018284.463   120961899.15547  23018292.172    94256064.88048
  21631751.078   113675613.09748  21631755.415    88578423.36448
  23461620.026   123291636.57647  23461626.675    96071439.62247
  23599030.055   124013746.93347  23599036.318    96634110.82748
  5  2 16 18 27 45.0000000  0  9G 2G 4G 5G 7G 9G10G17G24G30
  20170362.449   105995966.33549  20170363.314    82594267.29049
  21169851.403   111248317.17648  21169855.139    86687017.79248
  21199738.884   111405376.22848  21199743.033    86809405.22348
  23535446.355   123679609.96045  23535452.839    96373741.82845
  23056745.233   121164005.92748  23056751.594    94413533.94248
  23014997.189   120944624.57047  23015004.882    94242604.19748
  21630128.902   113667088.60148  21630133.232    88571780.91948
  23464602.385   123307308.82147  23464609.035    96083651.73347
  23595898.973   123997293.07947  23595905.237    96621289.66748
  5  2 16 18 27 50.0000000  0  9G 2G 4G 5G 7G 9G10G17G24G30
  20169916.595   105993623.35449  20169917.467    82592441.59049
  21172070.633   111259979.24648  21172074.389    86696105.09248
  21197859.386   111395499.36748  21197863.534    86801708.95548
  23537189.421   123688769.67345  23537195.895    96380879.22945
  23059008.211   121175897.86048  23059014.579    94422800.36248
  23011620.149   120926878.07447  23011627.835    94228775.75548
  21628418.028   113658097.99048  21628422.357    88564775.26548
  23467494.516   123322507.07047  23467501.153    96095494.53347
  23592678.198   123980367.85447  23592684.476    96608101.19148
  5  2 16 18 27 55.0000000  0  9G 2G 4G 5G 7G 9G10G17G24G30
  20169558.525   105991741.68749  20169559.398    82590975.35549
  21174376.590   111272097.19248  21174380.344    86705547.65848
  21196067.414   111386082.55349  21196071.553    86794371.18648
  23539018.556   123698380.65545         0.000           0.00040
  23061357.945   121188245.73647  23061364.320    94432422.06648
  23008329.113   120909583.68447  23008336.776    94215299.63848
  21626794.310   113649565.32848  21626798.631    88558126.44348
  23470472.304   123338155.36047  23470478.928    96107687.99247
  23589543.557   123963895.26548  23589549.843    96595265.42448
  5  2 16 18 28  0.0000000  0  9G 2G 4G 5G 7G 9G10G17G24G30
  20169112.378   105989397.16849  20169113.251    82589148.45849
  21176593.463   111283746.84349  21176597.224    86714625.28448
  21194187.127   111376201.60948  21194191.249    86786671.75249
  23540757.626   123707518.84444         0.000           0.00040
  23063618.582   121200125.43448  23063624.972    94441678.96148
  23004948.307   120891817.30747  23004955.950    94201455.68848
  21625081.890   113640566.53048  21625086.210    88551114.39848
  23473359.860   123353329.53547  23473366.483    96119512.01747
  23586319.188   123946951.15447  23586325.481    96582062.23348
  5  2 16 18 28  5.0000000  0  9G 2G 4G 5G 7G 9G10G17G24G30
  20168753.982   105987513.78449  20168754.855    82587680.88849
  21178897.033   111295852.15849  21178900.788    86724057.99648
  21192394.352   111366780.51548  21192398.460    86779330.64449
  23542582.377   123717108.16244         0.000           0.00040
  23065965.951   121212460.87848  23065972.348    94451290.98048
  23001653.484   120874502.89247  23001661.113    94187963.94547
  21623456.578   113632025.48848  21623460.897    88544459.04448
  23476333.029   123368953.55347  23476339.652    96131686.55547
  23583180.931   123930459.53347  23583187.226    96569211.63148
  5  2 16 18 28 10.0000000  0  9G 2G 4G 5G 7G 9G10G17G24G30
  20168336.807   105985321.48349  20168337.687    82585972.59149
  21181140.787   111307643.10249  21181144.550    86733245.72948
  21190542.541   111357049.24448  21190546.656    86771747.84348
  23544346.508   123726378.54844         0.000           0.00040
  23068253.528   121224482.01948  23068259.939    94460658.06348
  22998298.121   120856870.40547  22998305.725    94174224.37848
  21621771.847   113623172.20048  21621776.174    88537560.38348
  23479245.278   123384257.36947  23479251.889    96143611.58647
  23579982.242   123913650.37447  23579988.538    96556113.60548
  5  2 16 18 28 15.0000000  0  9G 2G 4G 5G 7G 9G10G17G24G30
  20167978.038   105983436.17049  20167978.918    82584503.52349
  21183441.901   111319735.53449  21183445.670    86742668.39948
  21188748.916   111347623.71348  21188753.024    86764403.28348
  23546166.980   123735945.91144         0.000           0.00040
  23070598.476   121236804.77548  23070604.895    94470260.20448
  22994999.439   120839535.84047  22995007.031    94160716.96647
  21620144.907   113614622.60148  21620149.227    88530898.36848
  23482213.782   123399856.89948  23482220.381    96155767.06347
  23576840.338   123897139.61948  23576846.649    96543248.09248
  5  2 16 18 28 20.0000000  0  9G 2G 4G 5G 7G 9G10G17G24G30
  20167560.451   105981241.73349  20167561.330    82582793.57249
  21185683.147   111331513.33349  21185686.924    86751845.89748
  21186896.234   111337887.80248  21186900.348    86756816.85448
  23547926.793   123745194.10344         0.000           0.00040
  23072883.567   121248812.97548  23072889.999    94479617.23048
  22991640.207   120821882.95547  22991647.812    94146961.46448
  21618458.503   113605760.52348  21618462.837    88523992.85548
  23485121.311   123415135.94447  23485127.905    96167672.79447
  23573637.952   123880311.09448  23573644.270    96530134.98048
  5  2 16 18 28 25.0000000  0  9G 2G 4G 5G 7G 9G10G17G24G30
  20167171.933   105979200.12349  20167172.812    82581202.71749
  21187952.404   111343438.39049  21187956.181    86761138.15648
  21185072.394   111328303.52148  21185076.500    86749348.59448
  23549713.820   123754585.18244         0.000           0.00040
  23075196.730   121260968.60248  23075203.162    94489089.12148
  22988308.307   120804373.85847  22988315.907    94133318.05748
  21616800.560   113597047.97148  21616804.888    88517203.86148
  23488055.766   123430556.54647  23488062.354    96179688.84247
  23570463.031   123863626.83348  23570469.357    96517134.27548
  5  2 16 18 28 30.0000000  0  9G 2G 4G 5G 7G 9G10G17G24G30
  20166783.177   105977157.19649  20166784.057    82579610.82849
  21190220.390   111355356.64349  21190224.188    86770425.08048
  21183248.078   111318716.70648  21183252.175    86741878.35448
  23551498.742   123763964.94844         0.000           0.00040
  23077508.603   121273117.51548  23077515.049    94498555.78748
  22984974.466   120786854.40947  22984982.074    94119666.53748
  21615141.714   113588330.77049  21615146.042    88510411.25648
  23490987.832   123445964.52847  23490994.427    96191695.03447
  23567286.223   123846932.69048  23567292.557    96504125.87248
  5  2 16 18 28 35.0000000  0  9G 2G 4G 5G 7G 9G10G17G24G30
  20166394.160   105975112.86549  20166395.033    82578017.84149
  21192487.068   111367268.05648  21192490.881    86779706.68348
  21181423.264   111309127.27748  21181427.355    86734406.08148
  23553281.481   123773333.30544         0.000           0.00040
  23079819.163   121285259.55748  23079825.615    94508017.10848
  22981638.624   120769324.47047  22981646.220    94106006.86448
  21613481.977   113579608.82548  21613486.303    88503614.93748
  23493917.453   123461359.73247  23493924.042    96203691.28547
  23564107.528   123830228.56347  23564113.870    96491109.67948
  5  2 16 18 28 40.0000000  0  9G 2G 4G 5G 7G 9G10G17G24G30
  20166034.191   105973221.21749  20166035.064    82576543.82849
  21194781.727   111379326.56949  21194785.547    86789102.92548
  21179627.289   111299689.36348  21179631.385    86727051.85448
  23555091.384   123782844.43743         0.000           0.00040
  23082157.761   121297548.87948  23082164.227    94517593.17548
  22978330.126   120751938.22847  22978337.710    94092459.16347
  21611850.665   113571036.28648  21611854.998    88496935.04648
  23496873.979   123476896.31547  23496880.568    96215797.70448
  23560956.263   123813668.61748  23560962.606    96478205.84248
  5  2 16 18 28 45.0000000  0  8G 2G 4G 5G 9G10G17G24G30
  20165644.613   105971173.96949  20165645.493    82574948.56849
  21197045.729   111391224.00949  21197049.556    86798373.66348
  21177801.481   111290094.67948  21177805.570    86719575.47748
  23084465.703   121309677.13548  23084472.169    94527043.74948
  22974990.325   120734387.35947  22974997.909    94078783.14248
  21610189.131   113562304.86848  21610193.464    88490131.34148
  23499798.748   123492265.95747  23499805.352    96227774.01747
  23557773.763   123796944.55948  23557780.114    96465174.13248
  5  2 16 18 28 50.0000000  0  8G 2G 4G 5G 9G10G17G24G30
  20165283.988   105969278.90149  20165284.861    82573471.90449
  21199337.639   111403268.07749  21199341.466    86807758.65148
  21176004.390   111280651.02948  21176008.478    86712216.81048
  23086801.562   121321952.09548  23086808.035    94536608.63748
  22971677.728   120716979.67147  22971685.292    94065218.75048
  21608555.913   113553722.34048  21608560.238    88483443.68148
  23502750.314   123507776.44846  23502756.919    96239860.09747
  23554618.614   123780364.14248  23554624.960    96452254.33648
  5  2 16 18 28 55.0000000  0  8G 2G 4G 5G 9G10G17G24G30
  20164923.022   105967382.01449  20164923.895    82571993.80849
  21201628.150   111415304.73149  21201631.983    86817137.84348
  21174206.752   111271204.37649  21174210.839    86704855.78048
  23089136.028   121334219.73647  23089142.501    94546167.82148
  22968363.103   120699561.16847  22968370.654    94051645.89248
  21606921.730   113545134.65248  21606926.056    88476751.97748
  23505699.360   123523273.75747  23505705.972    96251935.91447
  23551461.491   123763773.37648  23551467.845    96439326.47448
  5  2 16 18 29  0.0000000  0  8G 2G 4G 5G 9G10G17G24G30
  20164561.670   105965483.09849  20164562.550    82570514.13049
  21203917.228   111427333.85549  21203921.060    86826511.16948
  21172408.502   111261754.57249  21172412.581    86697492.30748
  23091469.070   121346479.82748  23091475.550    94555721.11148
  22965046.369   120682131.67547  22965053.906    94038064.48648
  21605286.534   113536541.63748  21605290.859    88470056.11848
  23508645.879   123538757.69147  23508652.505    96264001.28647
  23548302.373   123747172.16548  23548308.729    96426390.48548
  5  2 16 18 29  5.0000000  0  8G 2G 4G 5G 9G10G17G24G30
  20164170.637   105963428.20449  20164171.517    82568912.91449
  21206175.535   111439201.40249  21206179.359    86835758.61948
  21170580.361   111252147.62648  21170584.432    86690006.37448
  23093771.377   121358578.44248  23093777.844    94565148.58948
  22961698.247   120664537.23647  22961705.778    94024354.55548
  21603621.011   113527789.32048  21603625.322    88463236.15048
  23511560.534   123554074.31047  23511567.169    96275936.31447
  23545111.958   123730406.47948  23545118.314    96413326.33248
  5  2 16 18 29 10.0000000  0  8G 2G 4G 5G 9G10G17G24G30
  20163808.516   105961525.24649  20163809.382    82567430.09549
  21208461.727   111451215.26549  21208465.551    86845120.03948
  21168780.923   111242691.51248  21168784.986    86682637.97448
  23096101.543   121370823.48248  23096108.009    94574690.16448
  22958377.350   120647085.84047  22958384.880    94010756.06848
  21601983.788   113519185.68548  21601988.099    88456532.02448
  23514501.976   123569531.47047  23514508.631    96287980.80047
  23541948.845   123713784.27448  23541955.202    96400373.98348
  5  2 16 18 29 15.0000000  0  8G 2G 4G 5G 9G10G17G24G30
  20163445.981   105959620.10949  20163446.846    82565945.57349
  21210746.413   111463221.40349  21210750.230    86854475.47748
  21166980.844   111233232.12948  21166984.913    86675267.03948
  23098430.255   121383060.81948  23098436.721    94584225.72648
  22955054.340   120629623.39747  22955061.865    93997149.00248
  21600345.529   113510576.60548  21600349.840    88449823.65748
  23517440.789   123584975.10147  23517447.444    96300014.81047
  23538783.739   123697151.46848  23538790.099    96387413.35048
  5  2 16 18 29 20.0000000  0  8G 2G 4G 5G 9G10G17G24G30
  20163112.301   105957866.61249  20163113.168    82564579.21449
  21213058.902   111475373.58648  21213062.719    86863944.70548
  21165209.446   111223923.33948  21165213.514    86668013.42748
  23100786.765   121395444.30047  23100793.231    94593875.17748
  22951758.500   120612303.70347  22951766.019    93983653.15448
  21598735.506   113502115.90848  21598739.815    88443230.90848
  23520406.318   123600558.99946  23520413.000    96312158.07647
  23535645.883   123680661.89348  23535652.237    96374564.33148
  5  2 16 18 29 25.0000000  0  8G 2G 4G 5G 9G10G17G24G30
  20162719.580   105955802.84649  20162720.446    82562971.08449
  21215311.276   111487209.85748  21215315.099    86873167.76048
  21163378.785   111214303.21448  21163382.852    86660517.23548
  23103083.176   121407511.92847  23103089.635    94603278.50348
  22948401.932   120594664.87947  22948409.451    93969908.63548
  21597065.806   113493341.63948  21597070.123    88436393.82849
  23523310.637   123615821.23447  23523317.331    96324050.70247
  23532447.369   123663853.64948  23532453.717    96361467.01948
  5  2 16 18 29 30.0000000  0  8G 2G 4G 5G 9G10G17G24G30
  20162355.712   105953890.67649  20162356.578    82561481.07549
  21217591.444   111499192.15948  21217595.274    86882504.60148
  21161576.773   111204833.60748  21161580.840    86653138.32748
  23105407.377   121419725.59248  23105413.842    94612795.61948
  22945072.539   120577168.80247  22945080.053    93956275.33547
  21595424.343   113484715.69548  21595428.653    88429672.31748
  23526241.630   123631223.67647  23526248.342    96336052.57947
  23529276.123   123647188.60748  23529282.473    96348481.27348
  5  2 16 18 29 35.0000000  0  8G 2G 4G 5G 9G10G17G24G30
  20162049.977   105952284.06249  20162050.844    82560229.17549
  21219928.679   111511474.44148  21219932.508    86892075.21648
  21159832.712   111195668.50648  21159836.764    86645996.69148
  23107788.639   121432239.20948  23107795.104    94622546.48948
  22941799.582   120559969.42147  22941807.089    93942873.25148
  21593840.400   113476392.05048  21593844.711    88423186.36648
  23529228.590   123646920.25847  23529235.309    96348283.67947
  23526161.417   123630820.71648  23526167.761    96335727.08148
  5  2 16 18 29 40.0000000  0  8G 2G 4G 5G 9G10G17G24G30
  20161685.165   105950366.95949  20161686.032    82558735.33049
  21222205.750   111523440.53048  21222209.579    86901399.43848
  21158029.380   111186191.90148  21158033.424    86638612.31548
  23110109.766   121444436.78348  23110116.231    94632051.08348
  22938465.905   120542450.77147  22938473.413    93929222.34548
  21592196.759   113467754.65948  21592201.063    88416455.93748
  23532154.304   123662294.95446  23532161.028    96360263.94647
  23522986.030   123614133.97848  23522992.368    96322724.43848
  5  2 16 18 29 45.0000000  0  8G 2G 4G 5G 9G10G17G24G30
  20161349.171   105948601.29949  20161350.038    82557359.49249
  21224510.584   111535552.48248  21224514.412    86910837.31348
  21156254.650   111176865.72549  21156258.686    86631345.18448
  23112458.665   121456780.20547  23112465.142    94641669.29548
  22935159.364   120525074.77847  22935166.858    93915682.61748
  21590581.323   113459265.48549  21590585.628    88409841.00048
  23535106.690   123677809.72547  23535113.414    96372353.34647
  23519837.887   123597590.37548  23519844.219    96309833.32548
  5  2 16 18 29 50.0000000  0  8G 2G 4G 5G 9G10G17G24G30
  20160983.338   105946678.83549  20160984.205    82555861.46949
  21226784.504   111547502.01648  21226788.317    86920148.63848
  21154449.919   111167381.82749  21154453.954    86623955.13748
  23114776.650   121468961.26948  23114783.120    94651161.02748
  22931821.312   120507533.26247  22931828.793    93902013.92448
  21588935.444   113450616.33148  21588939.748    88403101.39748
  23538027.050   123693156.31946  23538033.780    96384311.72447
  23516658.335   123580881.68248  23516664.674    96296813.55848
  5  2 16 18 29 55.0000000  0  8G 2G 4G 5G 9G10G17G24G30
  20160646.310   105944907.71249  20160647.171    82554481.37049
  21229086.153   111559597.26448  21229089.965    86929573.50148
  21152673.785   111158048.24748  21152677.820    86616682.23048
  23117122.380   121481288.04147  23117128.857    94660766.27148
  22928510.386   120490134.29147  22928517.854    93888456.30648
  21587317.737   113442115.28848  21587322.035    88396477.22748
  23540974.051   123708642.85347  23540980.779    96396379.13047
  23513505.997   123564315.97448  23513512.331    96283905.20948
  5  2 16 18 30  0.0000000  0  8G 2G 4G 5G 9G10G17G24G30
  20160308.780   105943133.94749  20160309.641    82553099.21049
  21231386.225   111571684.18948  21231390.035    86938991.87548
  21150896.976   111148711.04848  21150901.009    86609406.48748
  23119466.522   121493606.55547  23119473.004    94670365.09848
  22925197.317   120472723.96447  22925204.772    93874889.82047
  21585698.914   113433608.37748  21585703.205    88389848.48348
  23543918.373   123724115.33747  23543925.099    96408435.60147
  23510351.565   123547739.32248  23510357.899    96270988.33948
  5  2 16 18 30  5.0000000  0  8G 2G 4G 5G 9G10G17G24G30
  20159941.430   105941203.54249  20159942.291    82551595.00449
  21233655.403   111583608.80048  21233659.212    86948283.77348
  21149090.178   111139216.26348  21149094.204    86602007.95348
  23121779.792   121505762.77747  23121786.267    94679837.46048
  22921852.766   120455148.26046  22921860.208    93861194.48448
  21584049.679   113424941.55848  21584053.978    88383095.11048
  23546830.717   123739419.74646  23546837.443    96420361.09947
  23507165.739   123530997.72548  23507172.068    96257942.95448
  5  2 16 18 30 10.0000000  0  8G 2G 4G 5G 9G10G17G24G30
  20159661.502   105939732.51149  20159662.364    82550448.74949
  21236010.934   111595987.13648  21236014.744    86957929.21948
  21147370.616   111130179.87248  21147374.628    86594966.60648
  23124179.379   121518372.66147  23124185.859    94689663.32948
  22918593.961   120438023.21647  22918601.402    93847850.31347
  21582487.225   113416730.87048  21582491.524    88376697.18448
  23549828.300   123755172.05646  23549835.031    96432635.59747
  23504065.757   123514707.24148  23504072.079    96245249.08348
  5  2 16 18 30 15.0000000  0  8G 2G 4G 5G 9G10G17G24G30
  20159322.430   105937950.67549  20159323.292    82549060.30849
  21238306.230   111608048.96748  21238310.039    86967328.03848
  21145591.711   111120831.75848  21145595.715    86587682.38248
  23126518.754   121530666.12847  23126525.241    94699242.64548
  22915274.349   120420578.72747  22915281.784    93834257.24947
  21580865.024   113408206.17748  21580869.316    88370054.57448
  23552764.549   123770602.14946  23552771.266    96444659.04847
  23500905.063   123498097.67848  23500911.379    96232306.57348
  5  2 16 18 30 20.0000000  0  8G 2G 4G 5G 9G10G17G24G30
  20158982.849   105936166.16649  20158983.711    82547669.78149
  21240599.953   111620102.50148  21240603.767    86976720.38048
  21143812.151   111111480.07549  21143816.146    86580395.34548
  23128856.564   121542951.24647  23128863.058    94708815.42548
  22911952.627   120403122.92547  22911960.067    93820655.31348
  21579241.712   113399675.61048  21579246.010    88363407.37748
  23555698.137   123786018.13646  23555704.867    96456671.46747
  23497742.282   123481477.21848  23497748.585    96219355.58848
  5  2 16 18 30 25.0000000  0  8G 2G 4G 5G 9G10G17G24G30
  20158642.767   105934379.02149  20158643.629    82546277.20149
  21242892.077   111632147.69648  21242895.877    86986106.24848
  21142031.908   111102124.86848  21142035.889    86573105.58348
  23131192.779   121555228.08047  23131199.274    94718381.77648
  22908628.756   120385655.86747  22908636.190    93807044.62148
  21577617.273   113391139.19048  21577621.571    88356755.63448
  23558629.046   123801420.07047  23558635.788    96468672.94147
  23494577.457   123464845.91948  23494583.762    96206396.13348
  5  2 16 18 30 30.0000000  0  8G 2G 4G 5G 9G10G17G24G30
  20158331.488   105932743.23649  20158332.342    82545002.56449
  21245211.923   111644338.56948  21245215.714    86995605.62548
  21140280.305   111092920.12848  21140284.278    86565933.06048
  23133556.713   121567650.57147  23133563.213    94728061.61948
  22905332.041   120368331.57947  22905339.476    93793545.19148
  21576021.038   113382750.98448  21576025.343    88350219.37848
  23561586.563   123816961.89946  23561593.305    96480783.45047
  23491439.876   123448357.82048  23491446.167    96193548.27148
  5  2 16 18 30 35.0000000  0  8G 2G 4G 5G 9G10G17G24G30
  20157990.411   105930950.83549  20157991.266    82543605.88449
  21247500.869   111656367.05948  21247504.644    87004978.47348
  21138498.729   111083557.91848  21138502.695    86558637.83748
  23135889.758   121579910.74447  23135896.271    94737614.97548
  22902003.884   120350842.02247  22902011.305    93779916.98348
  21574394.403   113374202.95848  21574398.701    88343558.58448
  23564512.101   123832335.67146  23564518.842    96492763.00247
  23488270.920   123431704.87548  23488277.206    96180571.96848
  5  2 16 18 30 40.0000000  0  8G 2G 4G 5G 9G10G17G24G30
  20157707.446   105929463.87349  20157708.301    82542447.21949
  21249846.868   111668695.33648  21249850.629    87014584.91848
  21136775.116   111074500.27048  21136779.074    86551579.92748
  23138279.822   121592470.61747  23138286.335    94747401.88848
  22898732.214   120333649.31147  22898739.621    93766520.07847
  21572825.269   113365957.13448  21572829.567    88337133.27348
  23567493.601   123848003.40446  23567500.348    96504971.58447
  23485158.526   123415349.13548  23485164.807    96167827.24448
  5  2 16 18 30 45.0000000  0  8G 2G 4G 5G 9G10G17G24G30
  20157365.385   105927666.30049  20157366.240    82541046.50649
  21252132.670   111680707.27548  21252136.423    87023944.86548
  21134992.230   111065131.20149  21134996.179    86544279.36648
  23140609.713   121604714.18247  23140616.231    94756942.29948
  22895399.805   120316137.45146  22895407.213    93752874.48647
  21571196.421   113357397.54348  21571200.712    88330463.47748
  23570413.803   123863349.07446  23570420.556    96516929.22247
  23481985.472   123398674.65248  23481991.746    96154834.15348
  5  2 16 18 30 50.0000000  0  8G 2G 4G 5G 9G10G17G24G30
  20157052.150   105926020.23949  20157053.005    82539763.86349
  21254446.199   111692864.92348  21254449.951    87033418.34548
  21133238.028   111055912.77648  21133241.970    86537096.17148
  23142967.347   121617103.50647  23142973.879    94766596.28448
  22892094.591   120298768.55947  22892101.984    93739340.31447
  21569595.818   113348986.28548  21569600.109    88323909.24449
  23573360.637   123878834.72946  23573367.397    96528995.95047
  23478839.715   123382143.55648  23478845.990    96141952.77648
  5  2 16 18 30 55.0000000  0  8G 2G 4G 5G 9G10G17G24G30
  20156738.450   105924371.70349  20156739.299    82538479.28649
  21256758.152   111705014.31849  21256761.896    87042885.40448
  21131483.183   111046691.00649  21131487.118    86529910.37948
  23145323.401   121629484.58947  23145329.932    94776243.86748
  22888787.297   120281388.63847  22888794.681    93725797.52347
  21567994.119   113340569.33248  21567998.411    88317350.58948
  23576304.827   123894306.42946  23576311.588    96541051.79547
  23475691.932   123365601.84748  23475698.195    96129063.14548
  5  2 16 18 31  0.0000000  0  8G 2G 4G 5G 9G10G17G24G30
  20156424.276   105922720.73949  20156425.124    82537192.82649
  21259068.556   111717155.60148  21259072.284    87052346.14948
  21129727.716   111037465.99349  21129731.644    86522722.06748
  23147677.889   121641857.44648  23147684.421    94785885.04048
  22885477.913   120263997.77547  22885485.297    93712246.21147
  21566391.352   113332146.76748  21566395.644    88310787.55948
  23579246.349   123909764.13646  23579253.117    96553096.74047
  23472542.122   123349049.54447  23472548.372    96116165.27148
  5  2 16 18 31  5.0000000  0  8G 2G 4G 5G 9G10G17G24G30
  20156138.946   105921221.32349  20156139.802    82536024.44549
  21261406.721   111729442.67948  21261410.440    87061920.47848
  21128000.948   111028391.79849  21128004.876    86515651.27348
  23150060.122   121654376.13447  23150066.646    94795639.85748
  22882195.738   120246749.95247  22882203.107    93698806.37847
  21564816.818   113323872.56248  21564821.103    88304340.14048
  23582214.539   123925361.95747  23582221.308    96565250.86147
  23469419.626   123332640.71748  23469425.876    96103379.17348
  5  2 16 18 31 10.0000000  0  8G 2G 4G 5G 9G10G17G24G30
  20155794.535   105919411.43049  20155795.384    82534614.14549
  21263684.704   111741413.56048  21263688.422    87071248.43048
  21126214.967   111019006.37648  21126218.888    86508337.95048
  23152382.168   121666578.57047  23152388.692    94805148.24648
  22878852.903   120229183.23847  22878860.265    93685118.03147
  21563182.603   113315284.76848  21563186.881    88297648.36848
  23585121.447   123940637.82847  23585128.217    96577154.13547
  23466236.515   123315913.35648  23466242.767    96090344.87248
  5  2 16 18 31 15.0000000  0  8G 2G 4G 5G 9G10G17G24G30
  20155537.604   105918061.18249  20155538.453    82533561.99349
  21266049.060   111753838.27648  21266052.770    87080930.00948
  21124516.282   111010079.78948  21124520.195    86501382.18148
  23154790.605   121679234.83247  23154797.127    94815010.22948
  22875595.914   120212067.70347  22875603.261    93671781.26747
  21561635.270   113307153.44848  21561639.556    88291312.26749
  23588113.660   123956361.85847  23588120.443    96589406.58247
  23463139.313   123299637.51247  23463145.552    96077662.42048
  5  2 16 18 31 20.0000000  0  8G 2G 4G 5G 9G10G17G24G30
  20155221.590   105916400.55249  20155222.440    82532268.00249
  21268353.253   111765946.85848  21268356.955    87090365.26148
  21122758.413   111000842.09148  21122762.326    86494183.96848
  23157138.861   121691574.90847  23157145.384    94824625.85648
  22872278.261   120194633.35547  22872285.602    93658196.07347
  21560028.265   113298708.61248  21560032.545    88284731.88848
  23591044.616   123971764.00847  23591051.398    96601408.22647
  23459981.515   123283043.20348  23459987.748    96064731.80448
  5  2 16 18 31 25.0000000  0  8G 2G 4G 5G 9G10G17G24G30
  20154934.448   105914891.60849  20154935.305    82531092.20149
  21270685.196   111778201.33448  21270688.884    87099914.21448
  21121029.263   110991755.31449  21121033.161    86487103.36148
  23159514.871   121704060.83448  23159521.407    94834355.11548
  22868987.864   120177342.29147  22868995.198    93644722.54247
  21558449.516   113290412.23148  21558453.795    88278267.17248
  23594002.227   123987306.33047  23594008.994    96613519.12247
  23456851.061   123266592.55847  23456857.289    96051913.12648
  5  2 16 18 31 30.0000000  0  8G 2G 4G 5G 9G10G17G24G30
  20154646.867   105913380.36149  20154647.724    82529914.60649
  21273015.619   111790447.72548  21273019.298    87109456.83948
  21119299.519   110982665.51449  21119303.411    86480020.41549
  23161889.336   121716538.63648  23161895.878    94844078.05348
  22865695.437   120160040.47547  22865702.758    93631240.61548
  21556869.723   113282110.45649  21556874.002    88271798.27848
  23596957.219   124002834.82547  23596963.979    96625619.22647
  23453718.640   123250131.60247  23453724.868    96039086.41848
  5  2 16 18 31 35.0000000  0  8G 2G 4G 5G 9G10G17G24G30
  20154329.544   105911712.78649  20154330.395    82528615.19649
  21275315.162   111802531.93749  21275318.833    87118873.11248
  21117539.892   110973418.67448  21117543.784    86472815.10149
  23164232.937   121728854.28148  23164239.478    94853674.63948
  22862371.673   120142573.97647  22862379.001    93617630.35447
  21555259.598   113273649.18948  21555263.884    88265205.08148
  23599880.254   124018195.47846  23599887.006    96637588.56647
  23450554.944   123233506.27047  23450561.168    96026131.62648
  5  2 16 18 31 40.0000000  0  8G 2G 4G 5G 9G10G17G24G30
  20154041.061   105910196.83049  20154041.919    82527433.93449
  21277642.464   111814761.92949  21277646.127    87128402.96148
  21115809.000   110964322.74149  21115812.892    86465727.35649
  23166604.276   121741315.68948  23166610.818    94863384.81648
  22859075.167   120125250.78347  22859082.475    93604131.78747
  21553677.724   113265336.42048  21553682.011    88258727.60748
  23602829.943   124033696.22746  23602836.686    96649667.07446
  23447418.579   123217024.56147  23447424.797    96013288.74448
  5  2 16 18 31 45.0000000  0  8G 2G 4G 5G 9G10G17G24G30
  20153752.126   105908678.46649  20153752.983    82526250.79249
  21279968.220   111826983.79948  21279971.875    87137926.47948
  21114077.505   110955223.70849  21114081.391    86458637.21149
  23168974.030   121753768.83048  23168980.564    94873088.56248
  22855776.622   120107916.80947  22855783.930    93590624.79747
  21552094.795   113257018.13248  21552099.075    88252245.84149
  23605776.993   124049183.08146  23605783.734    96661734.74246
  23444280.220   123200532.49947  23444286.431    96000437.81748
  5  2 16 18 31 50.0000000  0  8G 2G 4G 5G 9G10G17G24G30
  20153462.764   105907157.82449  20153463.621    82525065.87149
  21282292.407   111839197.51349  21282296.047    87147443.66948
  21112345.463   110946121.73149  21112349.349    86451544.75648
  23171342.273   121766213.84548  23171348.807    94882785.93348
  22852476.052   120090572.26147  22852483.353    93577109.57847
  21550510.854   113248694.43548  21550515.142    88245759.83749
  23608721.393   124064656.10046  23608728.117    96673791.65546
  23441139.948   123184030.16247  23441146.167    95987578.83648
  5  2 16 18 31 55.0000000  0  8G 2G 4G 5G 9G10G17G24G30
  20153231.581   105905942.95349  20153232.439    82524119.21849
  21284673.684   111851711.14848  21284677.316    87157194.53648
  21110671.475   110937324.83449  21110675.354    86444690.02748
  23173767.552   121778958.73848  23173774.085    94892717.01048
  22849232.086   120073525.16547  22849239.373    93563826.14747
  21548984.500   113240673.39248  21548988.796    88239509.67548
  23611721.830   124080423.37846  23611728.544    96686077.80946
  23438056.317   123167825.60147  23438062.523    95974951.92248
  5  2 16 18 32  0.0000000  0  8G 2G 4G 5G 9G10G17G24G30
  20152941.365   105904417.85549  20152942.228    82522930.82349
  21286994.817   111863908.75349  21286998.427    87166699.16248
  21108938.319   110928217.07349  21108942.193    86437593.08549
  23176132.684   121791387.49548  23176139.217    94902401.73648
  22845927.505   120056159.54147  22845934.785    93550294.50747
  21547398.510   113232339.02248  21547402.799    88233015.37748
  23614661.022   124095868.90846  23614667.720    96698113.27546
  23434912.146   123151302.93747  23434918.347    95962077.14048
  5  2 16 18 32  5.0000000  0  8G 2G 4G 5G 9G10G17G24G30
  20152621.434   105902736.60649  20152622.291    82521620.76349
  21289285.115   111875944.31548  21289288.709    87176077.51648
  21107175.332   110918952.51249  21107179.199    86430373.95049
  23178466.974   121803654.18247  23178473.508    94911960.17348
  22842591.639   120038629.50647  22842598.905    93536634.76047
  21545782.206   113223845.34948  21545786.502    88226396.94148
  23617568.305   124111146.65346  23617575.001    96710017.98046
  23431736.754   123134616.16947  23431742.950    95949074.48147
  5  2 16 18 32 10.0000000  0  8G 2G 4G 5G 9G10G17G24G30
  20152359.682   105901361.12249  20152360.538    82520548.96149
  21291632.503   111888279.86148  21291636.090    87185689.61548
  21105470.428   110909993.14949  21105474.295    86423392.62348
  23180858.321   121816220.76347  23180864.854    94921752.30548
  22839312.408   120021397.03447  22839319.666    93523206.85647
  21544223.514   113215654.36648  21544227.817    88220014.35849
  23620531.587   124126718.65346  23620538.276    96722151.96947
  23428618.043   123118227.32747  23428624.232    95936303.97848
  5  2 16 18 32 15.0000000  0  8G 2G 4G 5G 9G10G17G24G30
  20152068.221   105899829.45349  20152069.077    82519355.44849
  21293949.051   111900453.37248  21293952.623    87195175.46348
  21103735.685   110900877.01549  21103739.546    86416289.14948
  23183218.846   121828625.24847  23183225.385    94931418.10048
  22836001.876   120004000.16547  22836009.127    93509650.87947
  21542634.509   113207304.11848  21542638.813    88213507.68148
  23623462.928   124142122.89246  23623469.617    96734155.25947
  23425468.145   123101674.46846  23425474.341    95923405.63847
  5  2 16 18 32 20.0000000  0  8G 2G 4G 5G 9G10G17G24G30
  20151834.942   105898603.59549  20151835.799    82518400.24349
  21296322.675   111912926.82248  21296326.233    87204895.02848
  21102059.022   110892066.06048  21102062.877    86409423.46748
  23185636.409   121841329.59647  23185642.954    94941317.57748
  22832747.995   119986900.87347  22832755.239    93496326.75147
  21541103.115   113199256.58848  21541107.420    88207236.88348
  23626450.265   124157821.35647  23626456.939    96746387.81347
  23422374.900   123085419.42147  23422381.089    95910739.38447
  5  2 16 18 32 25.0000000  0  8G 2G 4G 5G 9G10G17G24G30
  20151571.950   105897221.53449  20151572.814    82517323.30149
  21298665.450   111925238.15248  21298668.992    87214488.26948
  21100352.521   110883098.33749  21100356.369    86402435.63348
  23188023.111   121853871.80047  23188029.656    94951090.72248
  22829462.803   119969637.16547  22829470.041    93482874.53747
  21539541.411   113191049.77848  21539545.722    88200841.95948
  23629405.666   124173352.03447  23629412.328    96758489.63447
  23419250.439   123069000.36346  23419256.629    95897945.33747
  5  2 16 18 32 30.0000000  0  8G 2G 4G 5G 9G10G17G24G30
  20151308.513   105895837.19349  20151309.377    82516244.60049
  21301006.669   111937541.31248  21301010.196    87224075.14048
  21098645.478   110874127.76449  21098649.319    86395445.58248
  23190408.269   121866405.73447  23190414.821    94960857.38848
  22826175.620   119952363.02646  22826182.843    93469414.20247
  21537978.673   113182837.63248  21537982.992    88194442.90549
  23632358.452   124188868.84147  23632365.107    96770580.61647
  23416124.040   123052571.15047  23416130.224    95885143.38747
  5  2 16 18 32 35.0000000  0  8G 2G 4G 5G 9G10G17G24G30
  20151015.365   105894296.69249  20151016.222    82515044.21149
  21303317.052   111949682.39648  21303320.566    87233535.71648
  21096908.614   110865000.41749  21096912.448    86388333.35448
  23192762.557   121878777.53847  23192769.109    94970497.73948
  22822857.175   119934924.54247  22822864.406    93455825.78547
  21536385.640   113174466.21648  21536389.966    88187919.72948
  23635279.292   124204217.89547  23635285.939    96782540.90547
  23412966.472   123035978.01547  23412972.656    95872213.67547
  5  2 16 18 32 40.0000000  0  8G 2G 4G 5G 9G10G17G24G30
  20150780.399   105893061.90449  20150781.250    82514082.04049
  21305684.480   111962123.31449  21305687.986    87243229.93648
  21095229.818   110856178.28749  21095233.645    86381458.96848
  23195173.899   121891449.13247  23195180.458    94980371.68648
  22819595.348   119917783.68147  22819602.579    93442469.30547
  21534850.208   113166397.49748  21534854.535    88181632.42648
  23638256.133   124219861.17647  23638262.781    96794730.44747
  23409865.593   123019682.75747  23409871.778    95859516.06647
  5  2 16 18 32 45.0000000  0  8G 2G 4G 5G 9G10G17G24G30
  20150486.407   105891516.93649  20150487.265    82512878.16049
  21307991.776   111974248.17349  21307995.260    87252677.87248
  21093491.896   110847045.47749  21093495.723    86374342.49848
  23197525.077   121903804.56348  23197531.642    94989999.26848
  22816272.993   119900324.59147  22816280.223    93428864.81547
  21533255.178   113158015.56048  21533259.512    88175101.04549
  23641171.741   124235182.67447  23641178.382    96806669.25547
  23406704.208   123003069.56547  23406710.387    95846570.72747
  5  2 16 18 32 50.0000000  0  8G 2G 4G 5G 9G10G17G24G30
  20150250.616   105890277.87549  20150251.480    82511912.66049
  21310356.148   111986673.00148  21310359.632    87262359.54548
  21091812.085   110838218.01149  21091815.906    86367463.96148
  23199933.329   121916459.88648  23199939.888    94999860.53848
  22813007.308   119883163.30147  22813014.532    93415492.38447
  21531717.755   113149936.37948  21531722.096    88168805.58448
  23644143.343   124250798.45547  23644149.986    96818837.38247
  23403599.515   122986754.44947  23403605.687    95833857.68847
  5  2 16 18 32 55.0000000  0  8G 2G 4G 5G 9G10G17G24G30
  20150014.434   105889036.73249  20150015.292    82510945.53949
  21312719.026   111999089.88049  21312722.502    87272035.00948
  21090131.785   110829387.97248  21090135.599    86360583.41449
  23202340.031   121929107.12848  23202346.589    95009715.51248
  22809739.692   119865991.85947  22809746.909    93402112.04648
  21530179.355   113141852.06348  21530183.703    88162506.12248
  23647112.347   124266400.55247  23647118.983    96830994.83647
  23400492.990   122970429.52047  23400499.162    95821136.95847
  5  2 16 18 33  0.0000000  0  8G 2G 4G 5G 9G10G17G24G30
  20149748.547   105887639.51849  20149749.405    82509856.80749
  21315051.034   112011344.73049  21315054.496    87281584.26148
  21088421.689   110820401.35649  21088425.495    86353580.85748
  23204715.880   121941592.26948  23204722.439    95019444.18948
  22806440.839   119848656.27147  22806448.048    93388603.79648
  21528610.667   113133608.58449  21528615.016    88156082.63949
  23650049.453   124281834.93047  23650056.098    96843021.57747
  23397355.277   122953940.75847  23397361.443    95808288.58547
  5  2 16 18 33  5.0000000  0  8G 2G 4G 5G 9G10G17G24G30
  20149511.579   105886394.17749  20149512.436    82508886.39949
  21317410.827   112023745.46248  21317414.281    87291247.15448
  21086740.395   110811566.12749  21086744.194    86346696.27348
  23207119.487   121954223.21347  23207126.052    95029286.45848
  22803169.327   119831464.48247  22803176.522    93375207.62948
  21527070.295   113125513.90449  21527074.650    88149775.10048
  23653013.211   124297409.55147  23653019.856    96855157.64147
  23394244.980   122937596.07047  23394251.147    95795552.47447
  5  2 16 18 33 10.0000000  0  8G 2G 4G 5G 9G10G17G24G30
  20149244.893   105884992.73549  20149245.752    82507794.37049
  21319739.790   112035984.18148  21319743.237    87300783.80748
  21085029.331   110802574.39649  21085033.131    86339689.72349
  23209492.245   121966692.01847  23209498.824    95039002.37548
  22799866.617   119814108.62546  22799873.806    93361683.59247
  21525499.648   113117260.13148  21525504.004    88143343.59949
  23655945.069   124312816.47347  23655951.714    96867163.01547
  23391103.512   122921087.57446  23391109.672    95782688.72147
  5  2 16 18 33 15.0000000  0  8G 2G 4G 5G 9G10G17G24G30
  20148977.835   105883589.33349  20148978.693    82506700.81149
  21322067.239   112048214.97949  21322070.672    87310314.29948
  21083317.789   110793580.24448  21083321.589    86332681.30849
  23211863.461   121979152.81047  23211870.039    95048712.07648
  22796561.988   119796742.77847  22796569.170    93348151.78548
  21523928.061   113109001.38349  21523932.425    88136908.21349
  23658874.350   124328209.82747  23658880.996    96879157.81247
  23387960.207   122904569.45547  23387966.367    95769817.47347
  5  2 16 18 33 20.0000000  0  8G 2G 4G 5G 9G10G17G24G30
  20148768.970   105882491.74049  20148769.828    82505845.54349
  21324451.761   112060745.66549  21324455.187    87320078.45648
  21081664.367   110784891.45348  21081668.168    86325910.82648
  23214291.736   121991913.39047  23214298.323    95058655.36448
  22793314.041   119779674.79647  22793321.217    93334852.08648
  21522414.081   113101045.39548  21522418.451    88130708.74448
  23661859.594   124343897.38747  23661866.240    96891381.88647
  23384873.659   122888349.47347  23384879.812    95757178.51647
  5  2 16 18 33 25.0000000  0  8G 2G 4G 5G 9G10G17G24G30
  20148501.103   105881084.08949  20148501.961    82504748.67249
  21326776.150   112072960.31549  21326779.569    87329596.34948
  21079951.862   110775892.21249  21079955.670    86318898.43348
  23216659.852   122004357.83047  23216666.446    95068352.30748
  22790005.584   119762288.80047  22790012.754    93321304.57548
  21520840.528   113092776.31948  21520844.900    88124265.31449
  23664783.668   124359263.25046  23664790.321    96903355.22947
  23381726.645   122871811.74147  23381732.798    95744291.95947
  5  2 16 18 33 30.0000000  0  8G 2G 4G 5G 9G10G17G24G30
  20148320.737   105880136.23049  20148321.596    82504010.07649
  21329186.877   112085628.80249  21329190.288    87339467.90248
  21078326.775   110767352.35149  21078330.583    86312244.00349
  23219114.307   122017255.98447  23219120.907    95078402.79148
  22786783.101   119745354.65847  22786790.270    93308109.16748
  21519353.889   113084964.00849  21519358.268    88118177.80449
  23667792.988   124375077.27147  23667799.640    96915677.82647
  23378665.640   122855726.17946  23378671.786    95731757.78247
  5  2 16 18 33 35.0000000  0  8G 2G 4G 5G 9G10G17G24G30
  20148052.044   105878724.27149  20148052.903    82502909.85549
  21331508.157   112097827.21348  21331511.555    87348973.16648
  21076613.312   110758347.98149  21076617.120    86305227.59748
  23221479.280   122029683.90347  23221485.893    95088086.85748
  22783470.812   119727948.49347  22783477.981    93294545.92848
  21517778.357   113076684.53548  21517782.731    88111726.27449
  23670711.780   124390415.53546  23670718.433    96927629.70047
  23375514.864   122839168.80147  23375521.010    95718855.94347
  5  2 16 18 33 40.0000000  0  8G 2G 4G 5G 9G10G17G24G30
  20147812.247   105877464.12749  20147813.099    82501927.92749
  21333857.188   112110171.42348  21333860.571    87358592.02448
  21074928.652   110749495.03248  21074932.461    86298329.19849
  23223871.975   122042257.53947  23223878.589    95097884.48448
  22780185.901   119710686.23247  22780193.057    93281094.83848
  21516231.147   113068553.89248  21516235.522    88105390.71148
  23673657.231   124405893.98447  23673663.882    96939690.82247
  23372391.534   122822755.65446  23372397.679    95706066.48747
  5  2 16 18 33 45.0000000  0  8G 2G 4G 5G 9G10G17G24G30
  20147601.344   105876355.79449  20147602.196    82501064.28549
  21336233.967   112122661.48048  21336237.341    87368324.53548
  21073272.817   110740793.55949  21073276.618    86291548.83049
  23226292.402   122054976.90547  23226299.029    95107795.65848
  22776928.386   119693567.90647  22776935.534    93267755.88848
  21514712.262   113060572.06348  21514716.643    88099171.09649
  23676629.354   124421512.59547  23676636.006    96951861.17047
  23369295.651   122806486.71146  23369301.795    95693389.39247
  5  2 16 18 33 50.0000000  0  8G 2G 4G 5G 9G10G17G24G30
  20147390.031   105875245.33949  20147390.883    82500198.99349
  21338609.228   112135143.46848  21338612.595    87378050.73748
  21071616.509   110732089.63349  21071620.311    86284766.56249
  23228711.262   122067688.00747  23228717.904    95117700.38948
  22773668.977   119676439.62847  22773676.118    93254409.18848
  21513192.399   113052585.16449  21513196.774    88092947.54849
  23679598.889   124437117.44947  23679605.553    96964020.75247
  23366197.914   122790208.05546  23366204.056    95680704.73247
  5  2 16 18 33 55.0000000  0  8G 2G 4G 5G 9G10G17G24G30
  20147148.995   105873978.71849  20147149.841    82499212.02749
  21340953.613   112147463.23348  21340956.973    87387650.54248
  21069930.418   110723229.19849  21069934.213    86277862.33748
  23231099.223   122080236.79647  23231105.865    95127478.66048
  22770378.350   119659147.33146  22770385.484    93240934.68648
  21511642.257   113044439.11049  21511646.639    88086599.97449
  23682536.460   124452554.48947  23682543.117    96976049.61647
  23363069.019   122773765.63246  23363075.154    95667892.46347
  5  2 16 18 34  0.0000000  0  8G 2G 4G 5G 9G10G17G24G30
  20146936.868   105872863.94749  20146937.713    82498343.36849
  21343325.728   112159928.78248  21343329.087    87397363.95448
  21068273.179   110714520.34648  21068276.974    86271076.21948
  23233514.930   122092931.29947  23233521.587    95137370.44848
  22767115.130   119641999.05547  22767122.257    93227572.41147
  21510120.413   113036441.79748  21510124.789    88080368.31449
  23685500.729   124468131.67447  23685507.394    96988187.64647
  23359967.579   122757467.57846  23359973.713    95655192.70647
  5  2 16 18 34  5.0000000  0  8G 2G 4G 5G 9G10G17G24G30
  20146694.987   105871592.85449  20146695.832    82497352.90849
  21345666.984   112172232.07248  21345670.336    87406950.91648
  21066586.138   110705654.85648  21066589.940    86264168.03548
  23235899.707   122105463.32347  23235906.378    95147135.64548
  22763820.677   119624686.65247  22763827.804    93214082.24047
  21508568.275   113028285.22549  21508572.652    88074012.54048
  23688433.019   124483540.86847  23688439.676    97000194.79047
  23356834.943   122741005.62146  23356841.083    95642365.23347
  5  2 16 18 34 10.0000000  0  8G 2G 4G 5G 9G10G17G24G30
  20146452.681   105870319.49749  20146453.519    82496360.67549
  21348006.623   112184526.95749  21348009.969    87416531.35348
  21064898.600   110696786.78449  21064902.395    86257257.85248
  23238282.889   122117986.96947  23238289.573    95156894.30748
  22760524.287   119607364.22447  22760531.407    93200584.29347
  21507015.125   113020123.39749  21507019.502    88067652.68349
  23691362.650   124498936.11847  23691369.307    97012191.07747
  23353700.462   122724533.87646  23353706.600    95629530.11447
  5  2 16 18 34 15.0000000  0  8G 2G 4G 5G 9G10G17G24G30
  20146268.579   105869352.06849  20146269.417    82495606.83949
  21350403.333   112197121.72049  21350406.665    87426345.45348
  21063269.212   110688224.35549  21063273.001    86250585.84849
  23240723.099   122130810.29247  23240729.789    95166886.49048
  22757284.657   119590339.88347  22757291.771    93187318.58748
  21505519.616   113012264.50948  21505523.995    88061528.89349
  23694348.244   124514625.58147  23694354.893    97024416.64647
  23350622.757   122708360.52146  23350628.902    95616927.51447
  5  2 16 18 34 20.0000000  0  8G 2G 4G 5G 9G10G17G24G30
  20146025.444   105868074.35349  20146026.283    82494611.21549
  21352739.858   112209400.24248  21352743.182    87435913.13248
  21061580.730   110679351.38449  21061584.519    86243671.86148
  23243103.098   122143317.14948  23243109.796    95176632.06548
  22753984.510   119572997.52547  22753991.617    93173805.07347
  21503964.517   113004092.37748  21503968.903    88055160.99049
  23697272.611   124529993.08047  23697279.261    97036391.28947
  23347484.574   122691869.35246  23347490.725    95604077.26647
  5  2 16 18 34 25.0000000  0  8G 2G 4G 5G 9G10G17G24G30
  20145869.782   105867256.34449  20145870.614    82493973.80749
  21355162.711   112222132.42048  21355166.027    87445834.30948
  21059979.698   110670937.84349  21059983.489    86237115.84448
  23245569.381   122156277.49148  23245576.086    95186731.01548
  22750770.373   119556107.12547  22750777.473    93160643.71947
  21502496.305   112996376.87048  21502500.691    88049148.90949
  23700282.222   124545808.59747  23700288.872    97048715.04747
  23344432.442   122675830.41447  23344438.578    95591579.42547
  5  2 16 18 34 30.0000000  0  8G 2G 4G 5G 9G10G17G24G30
  20145655.105   105866128.17849  20145655.936    82493094.70749
  21357525.410   112234548.39748  21357528.727    87455509.07648
  21058319.595   110662213.94149  21058323.385    86230317.99948
  23247975.478   122168921.48948  23247982.190    95196583.45448
  22747495.747   119538898.87747  22747502.839    93147234.70347
  21500968.517   112988348.32248  21500972.897    88042892.90949
  23703230.573   124561302.29047  23703237.216    97060788.05347
  23341319.890   122659473.87347  23341326.039    95578834.06847
  5  2 16 18 34 35.0000000  0  8G 2G 4G 5G 9G10G17G24G30
  20145439.977   105864997.70249  20145440.809    82492213.82649
  21359886.496   112246955.95449  21359889.819    87465177.29148
  21056659.012   110653487.48848  21056662.803    86223518.15948
  23250379.946   122181556.95947  23250386.665    95206429.25148
  22744219.181   119521680.59747  22744226.245    93133817.91447
  21499439.731   112980314.53049  21499444.118    88036632.81348
  23706176.273   124576781.98348  23706182.915    97072850.13547
  23338205.477   122643107.58747  23338211.627    95566081.13047
  5  2 16 18 34 40.0000000  0  8G 2G 4G 5G 9G10G17G24G30
  20145224.453   105863865.08549  20145225.285    82491331.26149
  21362246.024   112259355.26549  21362249.348    87474839.07148
  21054997.956   110644758.64348  21055001.740    86216716.47948
  23252782.813   122194184.02047  23252789.540    95216268.49548
  22740940.779   119504452.47947  22740947.835    93120393.40547
  21497909.976   112972275.64148  21497914.362    88030368.75148
  23709119.340   124592247.81247  23709125.968    97084901.41747
  23335089.229   122626731.68747  23335095.378    95553320.70747
  5  2 16 18 34 45.0000000  0  8G 2G 4G 5G 9G10G17G24G30
  20145037.802   105862884.22949  20145038.633    82490566.95549
  21364633.276   112271900.26549  21364636.614    87484614.37248
  21053365.767   110636181.37049  21053369.551    86210032.87448
  23255213.362   122206956.60947  23255220.089    95226221.15548
  22737689.787   119487368.49047  22737696.828    93107081.22948
  21496408.544   112964385.59648  21496412.932    88024220.67648
  23712089.043   124607853.70447  23712095.663    97097061.85347
  23332000.481   122610500.17547  23332006.636    95540672.76447
  5  2 16 18 34 50.0000000  0  8G 2G 4G 5G 9G10G17G24G30
  20144821.387   105861746.95949  20144822.218    82489680.77149
  21366989.592   112284282.78849  21366992.931    87494263.09448
  21051703.764   110627447.51749  21051707.548    86203227.28448
  23257612.960   122219566.51948  23257619.686    95236047.04548
  22734407.579   119470120.46547  22734414.613    93093641.23348
  21494876.798   112956336.21448  21494881.184    88017948.42749
  23715026.765   124623291.47847  23715033.372    97109091.27847
  23328880.537   122594104.82147  23328886.692    95527897.17547
  5  2 16 18 34 55.0000000  0  8G 2G 4G 5G 9G10G17G24G30
  20144663.166   105860915.44149  20144663.991    82489032.82749
  21369402.926   112296964.97348  21369406.264    87504145.32148
  21050099.909   110619019.23149  21050103.693    86196659.79548
  23260069.547   122232475.87747  23260076.280    95246106.25848
  22731182.098   119453170.54547  22731189.133    93080433.52348
  21493402.642   112948589.50749  21493407.030    88011912.04148
  23718020.434   124639023.28147  23718027.033    97121349.82247
  23325817.377   122578007.83847  23325823.526    95515354.08447
  5  2 16 18 35  0.0000000  0  8G 2G 4G 5G 9G10G17G24G30
  20144445.923   105859773.81949  20144446.747    82488143.24949
  21371756.122   112309330.97948  21371759.461    87513781.14548
  21048437.025   110610280.68748  21048440.802    86189850.53548
  23262465.920   122245068.87047  23262472.659    95255918.96948
  22727896.161   119435902.95047  22727903.189    93066978.29048
  21491868.928   112940529.81449  21491873.315    88005631.76649
  23720952.869   124654433.27147  23720959.468    97133357.58947
  23322693.809   122561593.37847  23322699.957    95502563.59147
  5  2 16 18 35  5.0000000  0  8G 2G 4G 5G 9G10G17G24G30
  20144228.239   105858629.88449  20144229.064    82487251.87249
  21374107.678   112321688.51949  21374111.009    87523410.40348
  21046773.678   110601539.73849  21046777.449    86183039.41248
  23264860.679   122257653.28847  23264867.431    95265724.97248
  22724608.354   119418625.47247  22724615.384    93053515.34148
  21490334.215   112932464.84648  21490338.604    87999347.38048
  23723882.635   124669829.26047  23723889.232    97145354.45147
  23319568.393   122545169.23447  23319574.546    95489765.55947
  5  2 16 18 35 10.0000000  0  8G 2G 4G 5G 9G10G17G24G30
  20144068.733   105857791.70349  20144069.558    82486598.75249
  21376516.277   112334345.76348  21376519.615    87533273.18248
  21045168.481   110593104.40549  21045172.245    86176466.43448
  23267312.411   122270537.13547  23267319.170    95275764.31048
  22721377.297   119401646.18547  22721384.321    93040284.73948
  21488857.133   112924702.75649  21488861.507    87993299.01248
  23726868.377   124685519.25347  23726874.981    97157580.37547
  23316499.766   122529043.52347  23316505.920    95477200.07747
  5  2 16 18 35 15.0000000  0  8G 2G 4G 5G 9G10G17G24G30
  20143879.526   105856797.44849  20143880.351    82485824.01349
  21378894.000   112346840.74848  21378897.331    87543009.52848
  21043533.570   110584512.85848  21043537.335    86169771.71848
  23269733.228   122283258.58147  23269739.986    95285677.11648
  22718115.099   119384503.28247  22718122.117    93026926.65548
  21487349.797   112916781.65348  21487354.179    87987126.72348
  23729822.165   124701041.45247  23729828.776    97169675.57847
  23313400.051   122512754.41147  23313406.205    95464507.26447
  5  2 16 18 35 20.0000000  0  8G 2G 4G 5G 9G10G17G24G30
  20143719.224   105855954.98949  20143720.049    82485167.54149
  21381299.452   112359481.45548  21381302.776    87552859.42648
  21041927.527   110576073.04349  21041931.291    86163195.23648
  23272181.749   122296125.52247  23272188.522    95295703.27248
  22714880.371   119367504.64147  22714887.377    93013680.96447
  21485870.800   112909009.47349  21485875.182    87981070.47749
  23732802.594   124716703.71447  23732809.211    97181879.93047
  23310327.817   122496609.80747  23310333.971    95451927.07347
  5  2 16 18 35 25.0000000  0  8G 2G 4G 5G 9G10G17G24G30
  20143499.864   105854802.27549  20143500.695    82484269.32349
  21383644.693   112371805.74848  21383648.023    87562462.75848
  21040262.431   110567322.90349  21040266.188    86156376.94948
  23274570.013   122308675.90547  23274576.792    95305482.77748
  22711585.165   119350188.27846  22711592.163    93000187.70947
  21484332.202   112900924.14949  21484336.585    87974770.24148
  23735721.784   124732043.97447  23735728.407    97193833.33347
  23307195.187   122480147.69147  23307201.348    95439099.44247
  5  2 16 18 35 30.0000000  0  8G 2G 4G 5G 9G10G17G24G30
  20143338.672   105853955.20849  20143339.504    82483609.27149
  21386046.929   112384429.55149  21386050.259    87572299.48148
  21038655.476   110558878.33248  21038659.234    86149796.77348
  23277015.237   122321525.57948  23277022.029    95315495.49048
  22708346.693   119333170.08847  22708353.677    92986926.80548
  21482851.232   112893141.56648  21482855.607    87968705.88648
  23738696.851   124747678.11747  23738703.474    97206015.79847
  23304119.305   122463983.92047  23304125.466    95426504.31347
  5  2 16 18 35 35.0000000  0  8G 2G 4G 5G 9G10G17G24G30
  20143147.747   105852951.89049  20143148.578    82482827.46349
  21388418.273   112396890.98748  21388421.604    87582009.67748
  21037018.786   110550277.46648  21037022.551    86143094.79748
  23279429.525   122334212.68647  23279436.330    95325381.52248
  22705077.069   119315988.19247  22705084.032    92973538.34448
  21481339.967   112885199.84648  21481344.342    87962517.53948
  23741640.004   124763144.27147  23741646.641    97218067.29347
  23301012.306   122447656.59047  23301018.473    95413781.72947
  5  2 16 18 35 40.0000000  0  8G 2G 4G 5G 9G10G17G24G30
  20143015.004   105852254.32049  20143015.835    82482283.90249
  21390846.602   112409651.93948  21390849.938    87591953.27148
  21035440.258   110541982.27648  21035444.016    86136631.02549
  23281900.781   122347199.15947  23281907.586    95335500.83948
  22701864.211   119299104.57147  22701871.167    92960382.29248
  21479886.333   112877560.97948  21479890.709    87956565.18548
  23744639.078   124778904.45047  23744645.716    97230347.94147
  23297962.109   122431627.78847  23297968.276    95401291.77247
  5  2 16 18 35 45.0000000  0  8G 2G 4G 5G 9G10G17G24G30
  20142793.921   105851092.52449  20142794.753    82481378.60749
  21393185.428   112421942.55348  21393188.765    87601530.37448
  21033773.391   110533222.83449  21033777.156    86129805.47948
  23284282.490   122359715.03447  23284289.308    95345253.43848
  22698561.603   119281749.30847  22698568.545    92946858.73248
  21478343.819   112869455.01448  21478348.202    87950248.84549
  23747547.602   124794188.62747  23747554.262    97242257.63747
  23294822.203   122415127.50446  23294828.370    95388434.41447
  5  2 16 18 35 50.0000000  0  8G 2G 4G 5G 9G10G17G24G30
  20142631.017   105850236.42749  20142631.857    82480711.51249
  21395581.264   112434532.69748  21395584.601    87611340.85948
  21032164.700   110524769.10549  21032168.458    86123218.16348
  23286721.154   122372530.23748  23286727.979    95355239.29248
  22695315.748   119264692.38047  22695322.689    92933567.65248
  21476858.886   112861651.66948  21476863.262    87944168.32648
  23750512.037   124809766.74647  23750518.698    97254396.41547
  23291739.072   122398925.73146  23291745.232    95375809.70047
  5  2 16 18 35 55.0000000  0  8G 2G 4G 5G 9G10G17G24G30
  20142496.971   105849531.97649  20142497.810    82480162.58449
  21398004.756   112447268.26448  21398008.086    87621264.68848
  21030584.852   110516466.98049  21030588.618    86116748.98248
  23289187.475   122385490.68647  23289194.320    95365338.29648
  22692097.343   119247779.67447  22692104.285    92920388.94948
  21475402.271   112853997.13748  21475406.653    87938203.75948
  23753503.083   124825484.73647  23753509.745    97266644.18747
  23288683.454   122382868.38247  23288689.621    95363297.48247
  5  2 16 18 36  0.0000000  0  8G 2G 4G 5G 9G10G17G24G30
  20142333.169   105848671.19349  20142334.008    82479491.84349
  21400397.342   112459841.32548  21400400.678    87631061.85948
  21028975.264   110508008.50749  21028979.031    86110157.96248
  23291622.791   122398288.38848  23291629.642    95375310.53548
  22688847.816   119230703.26247  22688854.751    92907082.65148
  21473915.364   112846183.41648  21473919.739    87932115.15648
  23756462.144   124841034.61347  23756468.820    97278760.94947
  23285596.709   122366647.52046  23285602.875    95350657.86747
  5  2 16 18 36  5.0000000  0  8G 2G 4G 5G 9G10G17G24G30
  20142168.894   105847807.95049  20142169.733    82478819.19249
  21402788.284   112472405.71248  21402791.626    87640852.26648
  21027365.189   110499547.56749  21027368.956    86103565.03548
  23294056.449   122411077.22447  23294063.308    95385275.83348
  22685596.386   119213617.06947  22685603.314    92893768.77948
  21472427.449   112838364.40549  21472431.825    87926022.42648
  23759418.470   124856570.24347  23759425.147    97290866.64547
  23282508.153   122350417.08047  23282514.325    95338010.77047
  5  2 16 18 36 10.0000000  0  8G 2G 4G 5G 9G10G17G24G30
  20142004.167   105846942.27349  20142005.013    82478144.62949
  21405177.575   112484961.49348  21405180.911    87650635.98948
  21025754.686   110491084.25449  21025758.447    86096970.23848
  23296488.412   122423857.20947  23296495.276    95395234.24348
  22682343.147   119196521.12347  22682350.075    92880447.24447
  21470938.544   112830540.12349  21470942.920    87919925.58049
  23762372.122   124872091.69547  23762378.806    97302961.25947
  23279417.761   122334177.02346  23279423.932    95325356.19447
  5  2 16 18 36 15.0000000  0  8G 2G 4G 5G 9G10G17G24G30
  20141838.977   105846074.19549  20141839.817    82477468.20949
  21407565.226   112497508.65049  21407568.575    87660412.98248
  21024143.719   110482618.59649  21024147.486    86090373.62348
  23298918.676   122436628.36747  23298925.547    95405185.79648
  22679088.028   119179415.48047  22679094.942    92867118.21048
  21469448.619   112822710.60748  21469452.988    87913824.68148
  23765323.085   124887598.95147  23765329.782    97315044.79547
  23276325.560   122317927.42547  23276331.730    95312694.17247
  5  2 16 18 36 20.0000000  0  8G 2G 4G 5G 9G10G17G24G30
  20141731.890   105845511.44849  20141732.735    82477029.69849
  21410009.791   112510354.92849  21410013.134    87670423.07348
  21022590.862   110474458.31048  21022594.623    86084014.96948
  23301405.841   122449698.41247  23301412.718    95415370.21848
  22675889.624   119162607.87947  22675896.524    92854021.40948
  21468016.283   112815183.59848  21468020.659    87907959.47048
  23768329.854   124903399.72347  23768336.551    97327357.10547
  23273290.070   122301976.03647  23273296.232    95300264.56847
  5  2 16 18 36 25.0000000  0  8G 2G 4G 5G 9G10G17G24G30
  20141536.406   105844484.17549  20141537.259    82476229.22549
  21412364.790   112522730.43549  21412368.141    87680066.30748
  21020949.636   110465833.57448  21020953.388    86077294.38948
  23303803.384   122462297.49348  23303810.267    95425187.65748
  22672601.433   119145328.47647  22672608.326    92840556.97448
  21466494.989   112807189.17848  21466499.359    87901730.06548
  23771246.015   124918724.22147  23771252.727    97339298.26347
  23270164.899   122285553.09047  23270171.068    95287467.45047
  5  2 16 18 36 30.0000000  0  8G 2G 4G 5G 9G10G17G24G30
  20141428.362   105843916.39949  20141429.215    82475786.80349
  21414806.040   112535559.29249  21414809.391    87690062.81748
  21019395.860   110457668.42949  21019399.613    86070931.94148
  23306287.137   122475349.60747  23306294.033    95435358.10948
  22669399.339   119128501.32947  22669406.226    92827444.91148
  21465060.586   112799651.33948  21465064.956    87895856.42348
  23774247.375   124934496.38247  23774254.093    97351588.23447
  23267125.787   122269582.54347  23267131.956    95275022.88547
  5  2 16 18 36 35.0000000  0  8G 2G 4G 5G 9G10G17G24G30
  20141261.188   105843037.89349  20141262.041    82475102.25249
  21417186.970   112548071.13349  21417190.321    87699812.29848
  21017782.950   110449192.62548  21017786.690    86064327.44448
  23308710.516   122488084.49047  23308717.413    95445281.38048
  22666136.708   119111356.20947  22666143.581    92814085.11348
  21463566.504   112791799.85449  21463570.873    87889738.37548
  23777187.364   124949946.00346  23777194.098    97363626.87247
  23264026.217   122253294.16047  23264032.391    95262330.62547
  5  2 16 18 36 40.0000000  0  8G 2G 4G 5G 9G10G17G24G30
  20141093.524   105842156.84749  20141094.377    82474415.73049
  21419566.237   112560574.17049  21419569.595    87709554.90248
  21016169.615   110440714.39648  21016173.348    86057721.01648
  23311132.181   122500810.36147  23311139.091    95455197.62248
  22662872.241   119094201.35447  22662879.108    92800717.70548
  21462071.412   112783943.12549  21462075.782    87883616.25648
  23780124.617   124965381.28046  23780131.365    97375654.33447
  23260924.787   122236996.22347  23260930.948    95249630.98147
  5  2 16 18 36 45.0000000  0  8G 2G 4G 5G 9G10G17G24G30
  20140954.685   105841427.21049  20140955.544    82473847.16949
  21421973.104   112573222.37548  21421976.461    87719410.64848
  21014585.105   110432387.74048  21014588.836    86051232.70648
  23313581.416   122513681.11447  23313588.332    95465226.76348
  22659635.210   119077190.70047  22659642.076    92787462.66148
  21460604.597   112776234.98948  21460608.960    87877609.92848
  23783088.417   124980956.09246  23783095.165    97387790.53947
  23257850.898   122220842.67247  23257857.066    95237043.76047
  5  2 16 18 36 50.0000000  0  8G 2G 4G 5G 9G10G17G24G30
  20140815.319   105840694.83849  20140816.186    82473276.48749
  21424378.301   112585861.64448  21424381.666    87729259.40148
  21013000.098   110424058.50549  21013003.823    86044742.40548
  23316028.920   122526542.70947  23316035.844    95475248.75648
  22656396.291   119060170.16247  22656403.137    92774199.93448
  21459136.728   112768521.31648  21459141.091    87871599.28048
  23786049.466   124996516.38047  23786056.221    97399915.41347
  23254775.115   122204679.35747  23254781.282    95224448.97347
  5  2 16 18 36 55.0000000  0  8G 2G 4G 5G 9G10G17G24G30
  20140675.439   105839959.76349  20140676.306    82472703.70349
  21426781.772   112598491.94148  21426785.144    87739101.18148
  21011414.613   110415726.69048  21011418.336    86038250.07148
  23318474.647   122539395.06047  23318481.576    95485263.56148
  22653155.514   119043139.79347  22653162.359    92760929.52148
  21457667.811   112760802.10748  21457672.175    87865584.31448
  23789007.718   125012062.16247  23789014.468    97412029.03147
  23251697.495   122188506.35147  23251703.656    95211846.63747
  5  2 16 18 37  0.0000000  0  8G 2G 4G 5G 9G10G17G24G30
  20140535.028   105839221.89949  20140535.895    82472128.74349
  21429183.514   112611113.14748  21429186.887    87748935.88448
  21009828.613   110407392.26849  21009832.337    86031755.73148
  23320918.606   122552238.09048  23320925.542    95495271.09948
  22649912.844   119026099.51147  22649919.675    92747651.39848
  21456197.824   112753077.27149  21456202.180    87859564.96448
  23791963.255   125027593.33746  23791970.026    97424131.17247
  23248618.007   122172323.53547  23248624.160    95199236.65147
  5  2 16 18 37  5.0000000  0  8G 2G 4G 5G 9G10G17G24G30
  20140423.398   105838635.27649  20140424.271    82471671.62949
  21431612.848   112623879.32149  21431616.228    87758883.53948
  21008271.442   110399209.31348  21008275.160    86025379.41348
  23323390.121   122565225.83147  23323397.056    95505391.37948
  22646697.589   119009203.35846  22646704.407    92734485.60048
  21454756.077   112745500.84349  21454760.434    87853661.25248
  23794945.284   125043263.97046  23794952.062    97436342.05047
  23245565.977   122156285.00847  23245572.124    95186739.10547
  5  2 16 18 37 10.0000000  0  8G 2G 4G 5G 9G10G17G24G30
  20140281.931   105837891.83449  20140282.805    82471092.32149
  21434011.134   112636482.39749  21434014.508    87768704.12348
  21006684.475   110390869.74348  21006688.185    86018881.04948
  23325830.534   122578050.22747  23325837.477    95515384.39848
  22643451.147   118992143.28347  22643457.959    92721192.06448
  21453283.951   112737764.86049  21453288.300    87847633.23948
  23797895.225   125058765.95346  23797902.003    97448421.50247
  23242482.803   122140082.72747  23242488.958    95174113.92747
  5  2 16 18 37 15.0000000  0  8G 2G 4G 5G 9G10G17G24G30
  20140139.931   105837145.58549  20140140.811    82470510.81549
  21436407.695   112649076.35249  21436411.069    87778517.57848
  21005097.012   110382527.56749  21005100.721    86012380.65048
  23328269.169   122590865.21348  23328276.117    95525370.06948
  22640202.836   118975073.35546  22640209.640    92707890.83548
  21451810.776   112730023.24349  21451815.125    87841600.80048
  23800842.394   125074253.30647  23800849.179    97460489.54047
  23239397.732   122123870.69547  23239403.873    95161481.20747
  5  2 16 18 37 20.0000000  0  8G 2G 4G 5G 9G10G17G24G30
  20140026.706   105836550.61749  20140027.580    82470047.21849
  21438831.859   112661815.32648  21438835.240    87788444.03048
  21003538.388   110374336.91549  21003542.091    86005998.31948
  23330735.318   122603824.91648  23330742.267    95535468.54148
  22636981.955   118958147.63847  22636988.753    92694701.99648
  21450365.841   112722430.08948  21450370.183    87835684.06848
  23803816.096   125089880.08947  23803822.889    97472666.22947
  23236340.142   122107802.98147  23236346.282    95148960.91547
  5  2 16 18 37 25.0000000  0  8G 2G 4G 5G 9G10G17G24G30
  20139912.935   105835952.77549  20139913.808    82469581.37249
  21441254.268   112674545.16848  21441257.642    87798363.39348
  21001979.258   110366143.66349  21001982.962    85999613.97649
  23333199.693   122616775.17148  23333206.657    95545559.61548
  22633759.204   118941212.06247  22633766.002    92681505.46548
  21448919.846   112714831.33449  21448924.189    87829762.96448
  23806786.998   125105492.19446  23806793.799    97484831.48147
  23233280.683   122091725.50746  23233286.815    95136433.03447
  5  2 16 18 37 30.0000000  0  8G 2G 4G 5G 9G10G17G24G30
  20139798.604   105835351.96449  20139799.471    82469113.21149
  21443674.924   112687265.73848  21443678.307    87808275.51448
  21000419.609   110357947.68248  21000423.305    85993227.50649
  23335662.245   122629715.90548  23335669.215    95555643.28548
  22630534.565   118924266.50047  22630541.349    92668301.14548
  21447472.750   112707226.82349  21447477.092    87823837.37548
  23809755.066   125121089.46347  23809761.874    97496985.18947
  23230219.372   122075638.21247  23230225.496    95123897.47947
  5  2 16 18 37 35.0000000  0  8G 2G 4G 5G 9G10G17G24G30
  20139654.440   105834594.34249  20139655.313    82468522.84749
  21446064.537   112699823.21048  21446067.927    87818060.54648
  20998830.178   110349595.16549  20998833.875    85986719.05449
  23338093.708   122642493.23647  23338100.678    95565599.62648
  22627278.757   118907157.14647  22627285.536    92654969.19448
  21445995.292   112699462.72948  21445999.627    87817787.43248
  23812691.069   125136518.10847  23812697.891    97509007.46947
  23227126.895   122059387.23147  23227133.019    95111234.39647
  5  2 16 18 37 40.0000000  0  8G 2G 4G 5G 9G10G17G24G30
  20139568.336   105834141.83649  20139569.204    82468170.24249
  21448511.003   112712679.41548  21448514.394    87828078.35848
  20997298.849   110341548.00949  20997302.553    85980448.54648
  23340581.961   122655569.06047  23340588.937    95575788.56848
  22624079.662   118890345.91247  22624086.428    92641869.57047
  21444575.341   112692000.90249  21444579.669    87811973.03748
  23815682.863   125152240.00047  23815689.692    97521258.27247
  23224091.168   122043434.46947  23224097.291    95098803.69247
  5  2 16 18 37 45.0000000  0  8G 2G 4G 5G 9G10G17G24G30
  20139452.325   105833532.16249  20139453.199    82467695.15949
  21450926.351   112725372.12248  21450929.749    87837968.77348
  20995737.673   110333344.00649  20995741.370    85974055.82748
  23343039.058   122668481.13047  23343046.040    95585849.90348
  22620849.353   118873370.55547  22620856.111    92628642.02547
  21443124.957   112684379.04949  21443129.278    87806033.92748
  23818642.491   125167792.88747  23818649.335    97533377.38847
  23221024.227   122027317.70847  23221030.343    95086245.20747
  5  2 16 18 37 50.0000000  0  8G 2G 4G 5G 9G10G17G24G30
  20139365.039   105833073.50349  20139365.914    82467337.77249
  21453369.231   112738209.51048  21453372.628    87847971.92248
  20994205.305   110325291.29348  20994209.002    85967780.97549
  23345523.642   122681537.55147  23345530.631    95596023.69948
  22617646.462   118856539.28047  22617653.214    92615526.76048
  21441702.787   112676905.52948  21441707.108    87800210.41148
  23821628.609   125183484.91447  23821635.466    97545604.91047
  23217984.774   122011345.18547  23217990.899    95073799.06447
  5  2 16 18 37 55.0000000  0  8G 2G 4G 5G 9G10G17G24G30
  20139218.562   105832303.75949  20139219.430    82466737.97649
  21455751.710   112750729.49248  21455755.116    87857727.74748
  20992613.789   110316927.88149  20992617.479    85961264.04449
  23347947.760   122694276.28547  23347954.756    95605949.95948
  22614383.042   118839390.01647  22614389.773    92602163.73448
  21440220.889   112669118.16649  21440225.211    87794142.35048
  23824553.265   125198854.02647  23824560.130    97557580.82447
  23214884.801   121995054.81247  23214890.918    95061105.28848
  5  2 16 18 38  0.0000000  0  8G 2G 4G 5G 9G10G17G24G30
  20139100.804   105831684.93649  20139101.678    82466255.77149
  21458161.712   112763394.07748  21458165.118    87867596.24148
  20991051.067   110308715.72148  20991054.757    85954864.96249
  23350399.318   122707159.24747  23350406.328    95615988.61348
  22611147.025   118822384.78947  22611153.743    92588912.95148
  21438767.202   112661478.98848  21438771.516    87788189.74748
  23827504.380   125214362.17647  23827511.252    97569665.08247
  23211812.258   121978908.54747  23211818.375    95048523.79948
  5  2 16 18 38  5.0000000  0  8G 2G 4G 5G 9G10G17G24G30
  20139011.787   105831217.08949  20139012.663    82465891.20649
  21460599.232   112776203.32848  21460602.644    87877577.47248
  20989517.140   110300654.88549  20989520.831    85948583.79148
  23352878.365   122720186.57347  23352885.382    95626139.73948
  22607938.477   118805523.69247  22607945.197    92575774.42748
  21437341.730   112653988.11148  21437346.043    87782352.70548
  23830481.981   125230009.47947  23830488.866    97581857.75747
  23208767.168   121962906.46447  23208773.279    95036054.64247
  5  2 16 18 38 10.0000000  0  8G 2G 4G 5G 9G10G17G24G30
  20138892.828   105830592.01649  20138893.710    82465404.14549
  21463005.609   112788848.86049  21463009.022    87887431.12348
  20987953.371   110292437.22349  20987957.062    85942180.41648
  23355326.206   122733049.99747  23355333.222    95636163.17048
  22604698.669   118788498.51247  22604705.376    92562508.08948
  21435885.820   112646337.25549  21435890.127    87776391.00048
  23833427.406   125245487.67147  23833434.306    97593918.65747
  23205690.876   121946740.40848  23205696.986    95023457.70648
  5  2 16 18 38 15.0000000  0  8G 2G 4G 5G 9G10G17G24G30
  20138802.606   105830117.86449  20138803.481    82465034.67349
  21465439.499   112801639.01149  21465442.919    87897397.46548
  20986418.383   110284370.80348  20986422.067    85935894.90048
  23357801.482   122746057.63048  23357808.498    95646298.98048
  22601486.273   118771617.38047  22601492.966    92549353.99648
  21434458.111   112638834.58948  21434462.417    87770544.76948
  23836399.262   125261104.87647  23836406.163    97606087.91047
  23202642.000   121930718.52048  23202648.104    95010973.13748
  5  2 16 18 38 20.0000000  0  8G 2G 4G 5G 9G10G17G24G30
  20138741.061   105829794.47649  20138741.936    82464782.68949
  21467900.865   112814573.51448  21467904.286    87907476.28848
  20984912.156   110276455.56049  20984915.840    85929727.18449
  23360304.191   122759209.33148  23360311.215    95656547.03148
  22598301.278   118754880.21447  22598307.964    92536312.06948
  21433058.545   112631479.82348  21433062.844    87764813.78448
  23839397.570   125276860.96747  23839404.484    97618365.34947
  23199620.530   121914840.67948  23199626.627    94998600.81848
  5  2 16 18 38 25.0000000  0  8G 2G 4G 5G 9G10G17G24G30
  20138649.565   105829313.62849  20138650.448    82464407.99649
  21470331.059   112827344.20748  21470334.487    87917427.46048
  20983376.046   110268383.24849  20983379.723    85923437.07349
  23362775.654   122772196.86047  23362782.677    95666667.16047
  22595085.029   118737978.74447  22595091.708    92523142.10248
  21431628.487   112623964.87948  21431632.780    87758958.00248
  23842363.649   125292447.69047  23842370.577    97630510.81547
  23196567.830   121898798.63448  23196573.920    94986100.52548
  5  2 16 18 38 30.0000000  0  8G 2G 4G 5G 9G10G17G24G30
  20138528.137   105828675.49049  20138529.020    82463910.73949
  21472730.112   112839951.25248  21472733.548    87927251.12148
  20981810.093   110260154.07549  20981813.763    85917024.72848
  23365215.891   122785020.42847  23365222.914    95676659.55648
  22591837.570   118720913.26347  22591844.235    92509844.33748
  21430167.996   112616289.97749  21430172.295    87752977.56248
  23845297.539   125307865.32347  23845304.474    97642524.54247
  23193483.930   121882592.62948  23193490.020    94973472.46948
  5  2 16 18 38 35.0000000  0  8G 2G 4G 5G 9G10G17G24G30
  20138435.371   105828188.03349  20138436.260    82463530.90349
  21475156.617   112852702.55748  21475160.059    87937187.18248
  20980272.886   110252076.00049  20980276.556    85910730.12548
  23367683.537   122797987.90147  23367690.568    95686764.05948
  22588617.477   118703991.65447  22588624.135    92496658.69148
  21428735.668   112608763.01148  21428739.967    87747112.38649
  23848257.840   125323421.65847  23848264.791    97654646.32447
  23190427.415   121866530.62748  23190433.506    94960956.64848
  5  2 16 18 38 40.0000000  0  8G 2G 4G 5G 9G10G17G24G30
  20138371.278   105827851.22049  20138372.161    82463268.45949
  21477610.559   112865598.11248  21477613.996    87947235.67548
  20978764.423   110244149.00649  20978768.080    85904553.26049
  23370178.573   122811099.30847  23370185.603    95696980.71748
  22585424.759   118687213.96247  22585431.403    92483585.20648
  21427331.486   112601384.01748  21427335.778    87741362.53148
  23851244.492   125339116.71246  23851251.430    97666876.26847
  23187398.321   121850612.63148  23187404.405    94948553.01948
  5  2 16 18 38 45.0000000  0  8G 2G 4G 5G 9G10G17G24G30
  20138277.238   105827357.00749  20138278.129    82462883.34949
  21480033.347   112878329.88749  21480036.790    87957156.52148
  20977226.115   110236065.11248  20977229.772    85898254.11648
  23372642.381   122824046.58247  23372649.417    95707069.46748
  22582200.827   118670272.17947  22582207.457    92470383.84348
  21425896.835   112593844.90948  21425901.128    87735487.90748
  23854198.970   125354642.50646  23854205.930    97678974.26347
  23184338.026   121834530.64248  23184344.117    94936021.58948
  5  2 16 18 38 50.0000000  0  8G 2G 4G 5G 9G10G17G24G30
  20138182.563   105826859.48449  20138183.460    82462495.66449
  21482454.288   112891051.98748  21482457.739    87967069.83748
  20975687.259   110227978.36648  20975690.916    85891952.75748
  23375104.257   122836983.79547  23375111.285    95717150.40748
  22578974.994   118653320.37647  22578981.619    92457174.66648
  21424461.027   112586299.71548  21424465.312    87729608.54648
  23857150.551   125370153.04446  23857157.525    97691060.36647
  23181275.806   121818438.69448  23181281.891    94923482.44148
  5  2 16 18 38 55.0000000  0  8G 2G 4G 5G 9G10G17G24G30
  20138116.485   105826512.27549  20138117.382    82462225.12149
  21484902.608   112903917.96348  21484906.059    87977095.26648
  20974177.093   110220042.42149  20974180.750    85885768.90949
  23377593.467   122850064.58847  23377600.502    95727343.21148
  22575776.497   118636512.22447  22575783.108    92444077.42548
  21423053.342   112578902.25248  21423057.628    87723844.28448
  23860128.477   125385801.99346  23860135.458    97703254.31646
  23178240.945   121802490.42448  23178247.031    94911055.22548
  5  2 16 18 39  0.0000000  0  8G 2G 4G 5G 9G10G17G24G30
  20138020.451   105826007.54849  20138021.349    82461831.81849
  21487319.736   112916620.02348  21487323.179    87986992.97148
  20972637.062   110211949.50449  20972640.718    85879462.73749
  23380051.412   122862981.11347  23380058.452    95737408.01247
  22572546.761   118619539.93947  22572553.364    92430852.28948
  21421615.166   112571344.61848  21421619.445    87717955.22548
  23863074.154   125401281.53546  23863081.149    97715316.27246
  23175174.846   121786378.05748  23175180.931    94898500.15648
  5  2 16 18 39  5.0000000  0  8G 2G 4G 5G 9G10G17G24G30
  20137982.311   105825807.15449  20137983.216    82461675.67049
  21489793.551   112929619.94848  21489797.002    87997122.76648
  20971155.033   110204161.42348  20971158.690    85873394.11049
  23382565.985   122876195.19247  23382573.032    95747704.66947
  22569373.675   118602865.32347  22569380.271    92417859.09848
  21420234.368   112564088.53649  21420238.653    87712301.14648
  23866075.463   125417053.45846  23866082.465    97727606.06346
  23172165.406   121770563.43848  23172171.492    94886177.09848
  5  2 16 18 39 10.0000000  0  8G 2G 4G 5G 9G10G17G24G30
  20137884.901   105825295.26249  20137885.800    82461276.79849
  21492206.847   112942301.90648  21492210.311    88007004.80548
  20969613.825   110196062.35249  20969617.481    85867083.15049
  23385019.968   122889090.92947  23385027.028    95757753.27748
  22566140.062   118585872.60247  22566146.644    92404618.02748
  21418793.780   112556518.22848  21418798.052    87706402.21948
  23869015.244   125432501.98846  23869022.254    97739643.85346
  23169095.457   121754430.77748  23169101.536    94873606.20648
  5  2 16 18 39 15.0000000  0  8G 2G 4G 5G 9G10G17G24G30
  20137786.798   105824779.72849  20137787.711    82460875.07849
  21494618.228   112954973.76448  21494621.685    88016878.97648
  20968072.030   110187960.19449  20968075.685    85860769.78549
  23387471.998   122901976.24447  23387479.057    95767793.73947
  22562904.491   118568869.65847  22562911.060    92391369.00848
  21417352.009   112548941.63848  21417356.281    87700498.37548
  23871952.035   125447934.93146  23871959.045    97751669.52146
  23166023.575   121738287.95948  23166029.661    94861027.39148
  5  2 16 18 39 20.0000000  0  8G 2G 4G 5G 9G10G17G24G30
  20137746.600   105824568.45349  20137747.507    82460710.44749
  21497086.281   112967943.44148  21497089.745    88026985.20848
  20966588.246   110180162.85849  20966591.903    85854693.94449
  23389980.608   122915159.01947  23389987.680    95778066.00847
  22559725.566   118552164.38647  22559732.114    92378351.94548
  21415967.624   112541666.67749  21415971.896    87694829.58348
  23874944.467   125463660.20046  23874951.483    97763922.96146
  23163008.344   121722442.84348  23163014.430    94848680.55448
  5  2 16 18 39 25.0000000  0  8G 2G 4G 5G 9G10G17G24G30
  20137647.102   105824045.58749  20137648.015    82460303.01349
  21499493.813   112980595.07548  21499497.277    88036843.61848
  20965045.270   110172054.49148  20965048.926    85848375.74349
  23392428.626   122928023.37447  23392435.690    95788090.16947
  22556486.104   118535140.99347  22556492.647    92365086.99148
  21414523.438   112534077.39949  21414527.710    87688915.84948
  23877875.322   125479061.98346  23877882.338    97775924.35546
  23159932.580   121706279.62848  23159938.667    94836085.85148
  5  2 16 18 39 30.0000000  0  8G 2G 4G 5G 9G10G17G24G30
  20137634.828   105823981.08549  20137635.741    82460252.75649
  21501987.351   112993698.64449  21501990.823    88047054.17648
  20963589.622   110164405.04648  20963593.286    85842415.13949
  23394962.573   122941339.23247  23394969.651    95798466.12848
  22553332.602   118518569.35447  22553339.138    92352174.05748
  21413165.935   112526943.70149  21413170.200    87683357.13649
  23880891.146   125494910.15146  23880898.168    97788273.54946
  23156942.801   121690568.29648  23156948.888    94823843.26848
  5  2 16 18 39 35.0000000  0  8G 2G 4G 5G 9G10G17G24G30
  20137563.233   105823604.85249  20137564.154    82459959.58649
  21504420.320   113006483.95248  21504423.800    88057016.74748
  20962074.769   110156444.46949  20962078.440    85836212.09849
  23397435.895   122954336.53447  23397442.981    95808593.87548
  22550118.545   118501679.49147  22550125.073    92339013.15448
  21411748.621   112519495.69748  21411752.893    87677553.50248
  23883845.435   125510434.66646  23883852.477    97800370.47946
  23153892.481   121674538.75348  23153898.560    94811352.71648
  5  2 16 18 39 40.0000000  0  8G 2G 4G 5G 9G10G17G24G30
  20137490.923   105823224.89049  20137491.844    82459663.52049
  21506851.358   113019259.10849  21506854.838    88066971.41048
  20960559.328   110148480.80448  20960562.998    85830006.64949
  23399907.223   122967323.26247  23399914.316    95818713.36048
  22546902.545   118484779.42247  22546909.067    92325844.30448
  21410330.116   112512041.37549  21410334.389    87671744.93248
  23886796.683   125525943.54845  23886803.717    97812455.31645
  23150840.212   121658499.00648  23150846.291    94798854.21748
  5  2 16 18 39 45.0000000  0  8G 2G 4G 5G 9G10G17G24G30
  20137417.947   105822841.34049  20137418.869    82459364.63949
  21509280.491   113032024.19948  21509283.993    88076918.20848
  20959043.322   110140514.13749  20959046.993    85823798.86249
  23402376.527   122980299.54247  23402383.626    95828824.74247
  22543684.647   118467869.28946  22543691.169    92312667.58248
  21408910.423   112504580.83348  21408914.689    87665931.52948
  23889744.950   125541436.88945  23889751.978    97824528.07545
  23147786.021   121642449.21348  23147792.093    94786347.91148
  5  2 16 18 39 50.0000000  0  8G 2G 4G 5G 9G10G17G24G30
  20137402.911   105822762.32249  20137403.834    82459303.07149
  21511766.342   113045087.36748  21511769.844    88087097.29048
  20957585.376   110132852.61249  20957589.047    85817828.84949
  23404902.474   122993573.48247  23404909.579    95839168.06447
  22540523.461   118451257.23547  22540529.968    92299723.14648
  21407548.167   112497422.19448  21407552.434    87660353.38548
  23892748.959   125557222.84645  23892755.994    97836828.76845
  23144788.579   121626697.55048  23144794.651    94774073.88848
  5  2 16 18 39 55.0000000  0  8G 2G 4G 5G 9G10G17G24G30
  20137357.918   105822525.85349  20137358.841    82459118.80149
  21514220.984   113057986.60048  21514224.501    88097148.63648
  20956097.600   110125034.32949  20956101.286    85811736.68349
  23407397.175   123006683.13247  23407404.273    95849383.35747
  22537331.096   118434481.33747  22537337.589    92286651.04648
  21406155.463   112490103.48348  21406159.729    87654650.49348
  23895720.695   125572839.42644  23895727.716    97848997.53645
  23141759.958   121610782.07048  23141766.031    94761672.22448
  5  2 16 18 40  0.0000000  0  8G 2G 4G 5G 9G10G17G24G30
  20137253.652   105821977.96449  20137254.582    82458691.88049
  21516615.136   113070567.89248  21516618.667    88106952.22248
  20954550.684   110116905.26148  20954554.369    85805402.35049
  23409831.287   123019474.44347  23409838.390    95859350.59848
  22534078.251   118417387.58547  22534084.730    92273331.25648
  21404703.003   112482470.75849  21404707.263    87648702.91748
  23898630.927   125588132.64345  23898637.962    97860914.29045
  23138670.850   121594548.76147  23138676.923    94749022.90548
  5  2 16 18 40  5.0000000  0  8G 2G 4G 5G 9G10G17G24G30
  20137207.376   105821734.74849  20137208.300    82458502.36149
  21519066.024   113083447.39348  21519069.569    88116988.19448
  20953061.883   110109081.52948  20953065.569    85799305.93249
  23412322.072   123032563.51347  23412329.176    95869549.85547
  22530882.159   118400592.10147  22530888.624    92260243.89248
  21403308.019   112475140.09748  21403312.286    87642990.71948
  23901596.827   125603718.61145  23901603.854    97873059.21644
  23135638.499   121578613.74447  23135644.572    94736606.02848
  5  2 16 18 40 10.0000000  0  8G 2G 4G 5G 9G10G17G24G30
  20137160.480   105821488.31149  20137161.412    82458310.33149
  21521515.063   113096317.11648  21521518.615    88127016.53148
  20951572.586   110101255.28049  20951576.285    85793207.56349
  23414810.925   123045642.43047  23414818.035    95879741.19147
  22527684.231   118383787.00247  22527690.689    92247149.04248
  21401911.917   112467803.53348  21401916.184    87637273.91748
  23904559.724   125619289.33744         0.000           0.00040
  23132604.329   121562669.10647  23132610.395    94724181.64548
  5  2 16 18 40 15.0000000  0  8G 2G 4G 5G 9G10G17G24G30
  20137112.979   105821238.65749  20137113.911    82458115.79049
  21523962.220   113109177.01648  21523965.787    88137037.22948
  20950082.817   110093426.52549  20950086.517    85787107.24349
  23417297.843   123058711.24147  23417304.966    95889924.66447
  22524484.490   118366972.31047  22524490.934    92234046.70248
  21400514.686   112460461.03249  21400518.945    87631552.48948
  23907519.747   125634844.89444         0.000           0.00040
  23129568.342   121546714.91747  23129574.415    94711749.81548
  5  2 16 18 40 20.0000000  0  8G 2G 4G 5G 9G10G17G24G30
  20137123.489   105821293.92249  20137124.422    82458158.86249
  21526466.196   113122335.43348  21526469.777    88147290.52548
  20948651.217   110085903.41349  20948654.917    85781245.08149
  23419841.470   123072078.00147  23419848.601    95900340.29947
  22521341.557   118350456.21247  22521347.987    92221177.04647
  21399174.997   112453420.92249  21399179.257    87626066.68948
  23910535.689   125650693.43144         0.000           0.00040
  23126589.173   121531059.37147  23126595.253    94699550.70448
  5  2 16 18 40 25.0000000  0  8G 2G 4G 5G 9G10G17G24G30
  20137074.834   105821038.17349  20137075.766    82457959.56249
  21528909.744   113135176.24448  21528913.340    88157296.32348
  20947160.577   110078070.05048  20947164.278    85775141.16249
  23422324.599   123085126.83747  23422331.742    95910508.19248
  22518138.255   118333622.81047  22518144.684    92208060.12148
  21397775.632   112446067.20948  21397779.900    87620336.52248
  23913490.219   125666218.96544         0.000           0.00040
  23123549.627   121515086.54348  23123555.708    94687104.36948
  5  2 16 18 40 30.0000000  0  8G 2G 4G 5G 9G10G17G24G30
  20137054.916   105820933.56649  20137055.848    82457878.06449
  21531380.798   113148161.71948  21531384.415    88167414.86748
  20945698.841   110070388.60548  20945702.548    85769155.62249
  23424835.150   123098319.86947  23424842.293    95920788.47547
  22514962.520   118316934.27247  22514968.936    92195056.08648
  21396404.544   112438862.09049  21396408.804    87614722.14748
  23916471.116   125681883.71444         0.000           0.00040
  23120537.648   121499258.55248  23120543.735    94674770.87648
  5  2 16 18 40 35.0000000  0  8G 2G 4G 5G 9G10G17G24G30
  20137005.177   105820672.15349  20137006.109    82457674.36249
  21533820.784   113160983.83848  21533824.416    88177406.10648
  20944207.412   110062551.09149  20944211.127    85763048.46949
  23427314.553   123111349.09747  23427321.702    95930941.08847
  22511755.750   118300082.64347  22511762.160    92181924.96847
  21395003.099   112431497.47849  21395007.352    87608983.49948
  23919419.993   125697379.66844         0.000           0.00040
  23117494.630   121483267.44448  23117500.717    94662310.28948
  5  2 16 18 40 40.0000000  0  8G 2G 4G 5G 9G10G17G24G30
  20137013.535   105820716.07749  20137014.468    82457708.58749
  21536317.604   113174104.68548  21536321.243    88187630.13548
  20942774.227   110055019.71649  20942777.948    85757179.87349
  23429850.729   123124676.69647  23429857.878    95941326.20848
  22508605.871   118283530.07647  22508612.260    92169026.90648
  21393659.270   112424435.60948  21393663.531    87603480.74348
  23922424.759   125713168.97644         0.000           0.00040
  23114508.542   121467575.41348  23114514.630    94650082.72948
  5  2 16 18 40 45.0000000  0  8G 2G 4G 5G 9G10G17G24G30
  20136962.820   105820449.56649  20136963.753    82457500.91849
  21538754.100   113186908.55748  21538757.746    88197607.17548
  20941282.127   110047178.67748  20941285.848    85751069.97349
  23432326.521   123137686.88347  23432333.676    95951463.96848
  22505395.744   118266660.80947  22505402.125    92155882.03547
  21392255.872   112417060.73348  21392260.127    87597734.10048
  23925368.034   125728635.77244         0.000           0.00040
  23111462.171   121451566.71848  23111468.252    94637608.44548
  5  2 16 18 40 50.0000000  0  8G 2G 4G 5G 9G10G17G24G30
  20136940.944   105820334.57749  20136941.870    82457411.31149
  21541218.186   113199857.35148  21541221.839    88207697.12948
  20939819.004   110039489.91548  20939822.725    85745078.72849
  23434829.789   123150841.58347  23434836.950    95961714.36648
  22502213.272   118249936.86647  22502219.638    92142850.40747
  21390880.829   112409834.77148  21390885.090    87592103.46348
  23928337.742   125744242.22644         0.000           0.00040
  23108443.477   121435703.31648  23108449.566    94625247.33848
  5  2 16 18 40 55.0000000  0  8G 2G 4G 5G 9G10G17G24G30
  20136918.603   105820217.20449  20136919.535    82457319.85549
  21543680.569   113212797.20049  21543684.223    88217780.11848
  20938355.580   110031799.60049  20938359.300    85739086.28049
  23437331.276   123163986.92747  23437338.438    95971957.47848
  22499029.162   118233204.34747  22499035.513    92129812.10347
  21389504.825   112402603.85648  21389509.080    87586468.99148
  23931304.741   125759834.22144         0.000           0.00040
  23105423.124   121419831.31448  23105429.207    94612879.56548
  5  2 16 18 41  0.0000000  0  7G 2G 4G 5G 9G10G17G30
  20136895.854   105820097.62749  20136896.780    82457226.67749
  21546141.279   113225728.32048  21546144.940    88227856.31248
  20936891.902   110024107.92249  20936895.622    85733092.76549
  23439831.005   123177123.02947  23439838.160    95982193.39048
  22495843.468   118216463.44447  22495849.812    92116767.25148
  21388127.918   112395368.18848  21388132.173    87580830.81948
  23102401.165   121403950.90848  23102407.248    94600505.24448
  5  2 16 18 41  5.0000000  0  7G 2G 4G 5G 9G10G17G30
  20136872.698   105819975.94149  20136873.617    82457131.85749
  21548600.351   113238650.76848  21548604.026    88237925.73348
  20935427.993   110016414.99549  20935431.720    85727098.26849
  23442329.014   123190250.02747  23442336.176    95992422.19048
  22492656.190   118199714.28247  22492662.514    92103715.98848
  21386750.113   112388127.77649  21386754.368    87575188.93848
  23099377.655   121388062.25448  23099383.738    94588124.47548
  5  2 16 18 41 10.0000000  0  7G 2G 4G 5G 9G10G17G30
  20136849.139   105819852.10549  20136850.064    82457035.35349
  21551057.745   113251564.46049  21551061.428    88247988.35148
  20933963.815   110008720.75449  20933967.542    85721102.76649
  23444825.274   123203367.87248  23444832.443    96002643.86348
  22489467.331   118182956.86947  22489473.640    92090658.30048
  21385371.417   112380882.71148  21385375.673    87569543.44248
  23096352.555   121372165.27947  23096358.632    94575737.23548
  5  2 16 18 41 15.0000000  0  7G 2G 4G 5G 9G10G17G30
  20136825.209   105819726.38649  20136826.134    82456937.39449
  21553513.535   113264469.62848  21553517.225    88258044.30348
  20932499.457   110001025.46849  20932503.184    85715106.43249
  23447319.832   123216476.76947  23447327.008    96012858.56348
  22486276.931   118166191.38847  22486283.232    92077594.33347
  21383991.881   112373633.20048  21383996.144    87563894.47149
  23093325.908   121356260.20447  23093331.985    94563343.68348
  5  2 16 18 41 20.0000000  0  7G 2G 4G 5G 9G10G17G30
  20136830.246   105819752.85649  20136831.171    82456958.01949
  21555997.030   113277520.42248  21556000.728    88268213.74248
  20931064.223   109993483.29549  20931067.943    85709229.42349
  23449842.015   123229730.83447  23449849.197    96023186.38348
  22483114.360   118149572.03247  22483120.655    92064644.20147
  21382640.811   112366533.27949  21382645.067    87558362.07048
  23090327.083   121340501.27347  23090333.160    94551063.99848
  5  2 16 18 41 25.0000000  0  7G 2G 4G 5G 9G10G17G30
  20136805.648   105819623.62549  20136806.574    82456857.32749
  21558449.629   113290408.94648  21558453.333    88278256.74948
  20929599.540   109985786.33249  20929603.266    85703231.78549
  23452333.208   123242822.10947  23452340.390    96033387.37047
  22479921.007   118132790.94147  22479927.288    92051568.05247
  21381259.637   112359275.19549  21381263.894    87552706.42648
  23087297.459   121324580.48848  23087303.529    94538658.19648
  5  2 16 18 41 30.0000000  0  7G 2G 4G 5G 9G10G17G30
  20136810.097   105819646.94249  20136811.030    82456875.48249
  21560930.017   113303443.38248  21560933.736    88288413.42848
  20928164.055   109978242.83849  20928167.782    85697353.74749
  23454852.099   123256058.88047  23454859.281    96043701.71347
  22476755.544   118116156.31947  22476761.824    92038606.00848
  21379907.002   112352167.07948  21379911.251    87547167.64448
  23084295.703   121308806.21548  23084301.765    94526366.56847
  5  2 16 18 41 35.0000000  0  7G 2G 4G 5G 9G10G17G30
  20136784.956   105819514.82249  20136785.888    82456772.53149
  21563379.559   113316315.78148  21563383.279    88298443.86548
  20926699.174   109970544.83549  20926702.901    85691355.30449
  23457340.064   123269133.12947  23457347.247    96053889.42247
  22473559.342   118099360.19847  22473565.602    92025518.13747
  21378524.296   112344900.94249  21378528.545    87541505.72448
  23081263.227   121292870.41548  23081269.290    94513949.05847
  5  2 16 18 41 40.0000000  0  7G 2G 4G 5G 9G10G17G30
  20136788.880   105819535.44349  20136789.812    82456788.59949
  21565856.897   113329334.24848  21565860.631    88308588.11348
  20925263.535   109963000.50449  20925267.262    85685476.60249
  23459855.740   123282353.03347  23459862.929    96064190.62948
  22470391.050   118082710.83547  22470397.296    92012544.64047
  21377170.185   112337785.04249  21377174.434    87535960.86848
  23078258.652   121277081.30048  23078264.715    94501645.85548
  5  2 16 18 41 45.0000000  0  7G 2G 4G 5G 9G10G17G30
  20136821.904   105819708.95449  20136822.837    82456923.79949
  21568362.093   113342499.04848  21568365.833    88318846.37448
  20923857.159   109955609.98149  20923860.886    85679717.76049
  23462399.151   123295718.68647  23462406.355    96074605.40648
  22467250.703   118066208.32747  22467256.941    91999685.57147
  21375844.679   112330819.45748  21375848.927    87530533.13948
  23075282.036   121261439.04947  23075288.093    94489457.08848
  5  2 16 18 41 50.0000000  0  7G 2G 4G 5G 9G10G17G30
  20136796.088   105819573.32149  20136797.028    82456818.11549
  21570807.174   113355348.00648  21570810.921    88328858.53748
  20922392.145   109947911.27749  20922395.871    85673718.77149
  23464882.412   123308768.12047  23464889.622    96084773.75247
  22464050.394   118049390.68147  22464056.611    91986580.94047
  21374459.863   112323542.20048  21374464.111    87524862.54848
  23072245.433   121245481.65048  23072251.481    94477022.76348
  5  2 16 18 41 55.0000000  0  7G 2G 4G 5G 9G10G17G30
  20136828.706   105819744.72849  20136829.645    82456951.67649
  21573309.423   113368497.40948  21573313.183    88339104.81948
  20920985.743   109940520.58848  20920989.469    85667959.79049
  23467422.709   123322117.47347  23467429.933    96095175.83847
  22460907.383   118032874.10947  22460913.591    91973710.89447
  21373132.996   112316569.49949  21373137.238    87519429.28548
  23069266.148   121229825.27847  23069272.203    94464822.96248
  5  2 16 18 42  0.0000000  0  7G 2G 4G 5G 9G10G17G30
  20136802.537   105819607.17949  20136803.477    82456844.49249
  21575751.624   113381331.23348  21575755.378    88349105.19748
  20919520.735   109932821.95049  20919524.462    85661960.86249
  23469902.878   123335150.75647  23469910.103    96105331.62648
  22457704.454   118016042.66647  22457710.656    91960595.50247
  21371746.868   112309285.34948  21371751.102    87513753.32448
  23066226.883   121213853.96147  23066232.919    94452377.81848
  5  2 16 18 42  5.0000000  0  7G 2G 4G 5G 9G10G17G30
  20136834.839   105819776.90049  20136835.780    82456976.73549
  21578251.037   113394465.70748  21578254.791    88359339.84448
  20918114.400   109925431.60649  20918118.127    85656202.15249
  23472440.154   123348484.19948  23472447.385    96115721.30948
  22454558.856   117999512.59447  22454565.042    91947714.96047
  21370418.730   112302305.99649  21370422.964    87508314.88048
  23063244.956   121198183.91847  23063250.991    94440167.41748
  5  2 16 18 42 10.0000000  0  7G 2G 4G 5G 9G10G17G30
  20136867.036   105819946.12749  20136867.983    82457108.60249
  21580749.103   113407593.03848  21580752.863    88369568.90748
  20916708.166   109918041.82949  20916711.900    85650443.88849
  23474975.989   123361810.00748  23474983.227    96126105.03248
  22451412.075   117982976.18047  22451418.255    91934829.45547
  21369090.047   112295323.68949  21369094.274    87502874.11648
  23060261.834   121182507.47947  23060267.876    94427951.99948
  5  2 16 18 42 15.0000000  0  7G 2G 4G 5G 9G10G17G30
  20136869.843   105819960.84549  20136870.783    82457120.06849
  21583216.481   113420559.16348  21583220.254    88379672.36848
  20915272.740   109910498.58449  20915276.481    85644566.02549
  23477481.066   123374974.15047  23477488.311    96136362.77848
  22448234.758   117966279.36247  22448240.925    91921818.97547
  21367731.467   112288184.36548  21367735.687    87497311.02648
  23057248.154   121166670.60747  23057254.195    94415611.60248
  5  2 16 18 42 20.0000000  0  7G 2G 4G 5G 9G10G17G30
  20136901.856   105820129.07749  20136902.797    82457251.15849
  21585711.815   113433672.20148  21585715.595    88389890.31048
  20913866.716   109903109.94149  20913870.457    85638808.65449
  23480013.974   123388284.64148  23480021.226    96146734.57848
  22445085.524   117949730.18146  22445091.683    91908923.54447
  21366401.626   112281196.00548  21366405.846    87491865.54848
  23054262.557   121150981.31547  23054268.599    94403386.20948
  5  2 16 18 42 25.0000000  0  7G 2G 4G 5G 9G10G17G30
  20136904.510   105820143.02049  20136905.458    82457262.02249
  21588176.535   113446624.29848  21588180.322    88399982.83248
  20912431.547   109895568.07749  20912435.281    85632931.88049
  23482516.174   123401433.69648  23482523.440    96156980.57048
  22441905.831   117933020.93847  22441911.982    91895903.38747
  21365041.963   112274050.92649  21365046.182    87486297.95348
  23051246.512   121135131.89147  23051252.554    94391036.01048
  5  2 16 18 42 30.0000000  0  7G 2G 4G 5G 9G10G17G30
  20136936.441   105820310.78849  20136937.389    82457392.74349
  21590669.237   113459723.47348  21590673.025    88410189.96848
  20911025.854   109888181.11149  20911029.595    85627175.80049
  23485046.278   123414729.35948  23485053.552    96167340.79848
  22438754.327   117916459.70347  22438760.478    91882998.53447
  21363711.081   112267057.15748  21363715.293    87480848.27748
  23048258.599   121119430.39347  23048264.646    94378801.09048
  5  2 16 18 42 35.0000000  0  7G 2G 4G 5G 9G10G17G30
  20136939.055   105820324.52349  20136939.995    82457403.44949
  21593131.328   113472661.85148  21593135.124    88420271.82248
  20909591.041   109880641.17848  20909594.788    85621300.53849
  23487545.696   123427863.79548  23487552.977    96177575.40248
  22435572.371   117899738.63147  22435578.513    91869969.16947
  21362350.420   112259906.87048  21362354.639    87475276.62649
  23045240.272   121103568.97947  23045246.313    94366441.55248
  5  2 16 18 42 40.0000000  0  7G 2G 4G 5G 9G10G17G30
  20136941.692   105820338.38549  20136942.640    82457414.24849
  21595592.199   113485593.78448  21595596.002    88430348.64448
  20908156.473   109873102.47548  20908160.221    85615426.22649
  23490043.761   123440991.15548  23490051.043    96187804.50148
  22432389.379   117883011.92747  22432395.519    91856935.37447
  21360989.312   112252754.19949  21360993.525    87469703.12248
  23042220.847   121087701.85747  23042226.889    94354077.57648
  5  2 16 18 42 45.0000000  0  7G 2G 4G 5G 9G10G17G30
  20137002.958   105820660.33949  20137003.906    82457665.12149
  21598110.426   113498827.12548  21598114.235    88440660.32348
  20906780.749   109865872.99549  20906784.504    85609792.86249
  23492599.091   123454419.37748  23492606.386    96198268.01547
  22429263.907   117866587.58247  22429270.039    91844137.21347
  21359686.378   112245907.19948  21359690.589    87464367.78948
  23039258.938   121072136.95147  23039264.972    94341949.08648
  5  2 16 18 42 50.0000000  0  7G 2G 4G 5G 9G10G17G30
  20137034.933   105820828.36949  20137035.888    82457796.05249
  21600598.086   113511899.83648  21600601.895    88450846.84648
  20905375.938   109858490.72549  20905379.692    85604040.45549
  23495123.731   123467686.45348  23495131.020    96208606.00248
  22426108.065   117850003.55246  22426114.184    91831214.60547
  21358353.668   112238903.85648  21358357.873    87458910.66248
  23036266.645   121056412.34747  23036272.679    94329696.14548
  5  2 16 18 42 55.0000000  0  7G 2G 4G 5G 9G10G17G30
  20137066.971   105820996.69649  20137067.926    82457927.20849
  21603084.521   113524966.07548  21603088.336    88461028.31248
  20903971.415   109851109.90548  20903975.176    85598289.16449
  23497647.083   123480946.62948  23497654.378    96218938.57647
  22422951.182   117833414.14747  22422957.292    91818287.81947
  21357020.566   112231898.33048  21357024.778    87453451.79948
  23033273.301   121040682.28147  23033279.329    94317438.97148
  5  2 16 18 43  0.0000000  0  7G 2G 4G 5G 9G10G17G30
  20137099.055   105821165.29849  20137100.003    82458058.59249
  21605569.746   113538025.95748  21605573.575    88471204.82648
  20902567.156   109843730.51048  20902570.917    85592538.99249
  23500169.100   123494199.85747  23500176.395    96229265.75148
  22419793.277   117816819.33647  22419799.372    91805356.82047
  21355687.033   112224890.59448  21355691.244    87447991.23348
  23030278.914   121024946.69847  23030284.947    94305177.47848
  5  2 16 18 43  5.0000000  0  7G 2G 4G 5G 9G10G17G30
  20137160.550   105821488.46049  20137161.499    82458310.40649
  21608083.106   113551233.69348  21608086.942    88481496.55048
  20901192.545   109836506.87649  20901196.313    85586910.18549
  23502719.160   123507600.35647  23502726.463    96239707.66448
  22416663.704   117800373.41447  22416669.798    91792541.83347
  21354382.435   112218034.95048  21354386.646    87442649.18548
  23027312.832   121009359.86647  23027318.859    94293031.90448
  5  2 16 18 43 10.0000000  0  7G 2G 4G 5G 9G10G17G30
  20137192.828   105821658.04649  20137193.776    82458442.54549
  21610565.951   113564281.10048  21610569.803    88491663.35448
  20899788.934   109829130.85049  20899792.702    85581162.63349
  23505238.605   123520840.03347  23505245.907    96250024.27447
  22413503.849   117783768.26647  22413509.943    91779602.75247
  21353048.176   112211023.36848  21353052.380    87437185.61748
  23024316.428   120993613.75047  23024322.449    94280762.23248
  5  2 16 18 43 15.0000000  0  7G 2G 4G 5G 9G10G17G30
  20137195.920   105821674.29649  20137196.869    82458455.21149
  21613018.340   113577168.42748  21613022.212    88501705.40548
  20898356.362   109821602.66949  20898360.137    85575296.52149
  23507727.486   123533919.10247  23507734.803    96260215.72948
  22410313.723   117767004.10447  22410319.810    91766539.78647
  21351684.276   112203855.99648  21351688.481    87431600.64948
  23021289.789   120977708.59347  23021295.810    94268368.58848
  5  2 16 18 43 20.0000000  0  7G 2G 4G 5G 9G10G17G30
  20137257.767   105821999.30649  20137258.723    82458708.46149
  21615528.202   113590357.78048  21615532.088    88511982.80248
  20896982.787   109814384.45048  20896986.562    85569671.92949
  23510273.745   123547299.65647  23510281.062    96270642.10947
  22407181.254   117750543.05546  22407187.333    91753713.03447
  21350378.658   112196994.95748  21350382.863    87426254.39248
  23018320.759   120962106.42447  23018326.787    94256211.09348
  5  2 16 18 43 25.0000000  0  7G 2G 4G 5G 9G10G17G30
  20137290.463   105822171.12649  20137291.413    82458842.34949
  21618007.628   113603387.21948  21618011.529    88522135.60548
  20895580.274   109807014.25649  20895584.048    85563928.93049
  23512789.463   123560519.71647  23512796.793    96280943.42248
  22404018.589   117733923.22946  22404024.652    91740762.54047
  21349043.429   112189978.28148  21349047.626    87420786.85348
  23015321.514   120946345.37547  23015327.535    94243929.78248
  5  2 16 18 43 30.0000000  0  7G 2G 4G 5G 9G10G17G30
  20137352.634   105822497.80449  20137353.591    82459096.89649
  21620515.238   113616564.77048  21620519.146    88532403.81548
  20894207.485   109799800.17049  20894211.260    85558307.56149
  23515333.240   123573887.32548  23515340.564    96291359.73648
  22400884.327   117717452.69647  22400890.389    91727928.38447
  21347737.214   112183114.08048  21347741.413    87415438.12848
  23012350.667   120930733.53147  23012356.688    94231764.72448
  5  2 16 18 43 35.0000000  0  7G 2G 4G 5G 9G10G17G30
  20137385.673   105822671.42749  20137386.623    82459232.18949
  21622992.436   113629582.47048  21622996.358    88542547.45948
  20892805.792   109792434.25549  20892809.574    85552567.89149
  23517846.515   123587094.54947  23517853.846    96301651.04948
  22397719.881   117700823.54647  22397725.935    91714970.63047
  21346401.396   112176094.33548  21346405.587    87409968.20648
  23009349.639   120914962.93248  23009355.669    94219475.92848
  5  2 16 18 43 40.0000000  0  7G 2G 4G 5G 9G10G17G30
  20137448.219   105823000.10849  20137449.169    82459488.30449
  21625497.841   113642748.39948  21625501.770    88552806.60948
  20891433.856   109785224.68449  20891437.638    85546950.04449
  23520387.888   123600449.52347  23520395.218    96312057.51247
  22394583.875   117684343.90847  22394589.923    91702129.40247
  21345094.633   112169227.28249  21345098.824    87404617.26348
  23006377.011   120899341.75747  23006383.042    94207303.60848
  5  2 16 18 43 45.0000000  0  7G 2G 4G 5G 9G10G17G30
  20137540.290   105823483.97649  20137541.240    82459865.35149
  21628031.505   113656062.86148  21628035.441    88563181.50448
  20890091.700   109778171.60449  20890095.483    85541454.14149
  23522957.408   123613952.41147  23522964.745    96322579.23347
  22391476.386   117668014.00747  22391482.439    91689404.80847
  21343816.954   112162513.03249  21343821.144    87399385.37548
  23003432.836   120883870.13747  23003438.866    94195247.82748
  5  2 16 18 43 50.0000000  0  7G 2G 4G 5G 9G10G17G30
  20137574.023   105823661.18149  20137574.967    82460003.42549
  21630505.518   113669063.89048  21630509.455    88573312.17848
  20888691.432   109770813.18149  20888695.222    85535720.30649
  23525467.188   123627141.26747  23525474.538    96332856.22948
  22388309.479   117651371.92747  22388315.533    91676436.98147
  21342480.453   112155489.77048  21342484.643    87393912.72248
  23000429.257   120868086.25547  23000435.289    94182948.71048
  5  2 16 18 43 55.0000000  0  7G 2G 4G 5G 9G10G17G30
  20137637.318   105823993.79949  20137638.268    82460262.60249
  21633007.824   113682213.53248  21633011.766    88583558.63048
  20887321.006   109763611.51048  20887324.796    85530108.61149
  23528005.144   123640478.19447  23528012.501    96343248.60848
  22385171.121   117634879.83547  22385177.167    91663586.02347
  21341173.092   112148619.54148  21341177.281    87388559.29448
  22997454.182   120852452.25546  22997460.214    94170766.40148
  5  2 16 18 44  0.0000000  0  7G 2G 4G 5G 9G10G17G30
  20137700.881   105824327.85249  20137701.817    82460522.91849
  21635509.108   113695357.86948  21635513.050    88593800.97148
  20885951.090   109756412.58648  20885954.880    85524499.06349
  23530541.972   123653809.21848  23530549.335    96353636.39248
  22382031.999   117618383.70347  22382038.052    91650731.90247
  21339865.517   112141748.22048  21339869.700    87383205.03048
  22994478.335   120836814.10747  22994484.374    94158580.83548
  5  2 16 18 44  5.0000000  0  7G 2G 4G 5G 9G10G17G30
  20137764.753   105824663.47049  20137765.689    82460784.43249
  21638009.411   113708496.95648  21638013.361    88604039.19948
  20884581.724   109749216.55248  20884585.514    85518891.77149
  23533077.700   123667134.46848  23533085.071    96364019.68448
  22378892.123   117601883.69747  22378898.167    91637874.78747
  21338557.801   112134876.15348  21338561.983    87377850.18048
  22991501.709   120821171.92447  22991507.748    94146392.14148
  5  2 16 18 44 10.0000000  0  7G 2G 4G 5G 9G10G17G30
  20137858.254   105825154.79049  20137859.197    82461167.26949
  21640538.053   113721784.96448  21640542.009    88614393.46848
  20883242.248   109742177.55548  20883246.043    85513406.83349
  23535641.639   123680608.02548  23535649.009    96374518.54848
  22375780.864   117585533.98647  22375786.901    91625134.76347
  21337279.270   112128157.40048  21337283.460    87372614.77748
  22988553.668   120805679.92947  22988559.712    94134320.46048
  5  2 16 18 44 15.0000000  0  7G 2G 4G 5G 9G10G17G30
  20137922.783   105825493.92749  20137923.726    82461431.53749
  21643036.442   113734914.05448  21643040.412    88624623.91648
  20881874.075   109734987.75848  20881877.870    85507804.39249
  23538175.230   123693922.01347  23538182.614    96384893.05348
  22372639.633   117569026.76447  22372645.661    91612272.00547
  21335971.311   112121284.09148  21335975.494    87367258.96948
  22985575.616   120790030.22247  22985581.661    94122125.89948
  5  2 16 18 44 20.0000000  0  7G 2G 4G 5G 9G10G17G30
  20137987.692   105825834.99649  20137988.636    82461697.30049
  21645533.900   113748038.19248  21645537.871    88634850.50048
  20880506.525   109727801.20448  20880510.322    85502204.47849
  23540707.767   123707230.55147  23540715.150    96395263.33148
  22369497.747   117552516.07447  22369503.767    91599406.53647
  21334663.286   112114410.37049  21334667.461    87361902.82448
  22982596.901   120774376.96847  22982602.945    94109928.55648
  5  2 16 18 44 25.0000000  0  7G 2G 4G 5G 9G10G17G30
  20138023.677   105826024.06549  20138024.614    82461844.62549
  21648001.130   113761003.51148  21648005.108    88644953.32948
  20879110.309   109720464.10249  20879114.105    85496487.26649
  23543209.985   123720379.67247  23543217.374    96405509.36548
  22366325.905   117535848.06046  22366331.924    91586418.49547
  21333325.883   112107382.24149  21333330.057    87356426.34948
  22979588.190   120758566.18047  22979594.234    94097608.48148
  5  2 16 18 44 30.0000000  0  7G 2G 4G 5G 9G10G17G30
  20138147.986   105826677.31049  20138148.922    82462353.64649
  21650555.391   113774426.21349  21650559.371    88655412.57648
  20877802.700   109713592.56848  20877806.495    85491132.82249
  23545799.092   123733985.52247  23545806.481    96416111.32648
  22363241.363   117519638.86846  22363247.375    91573788.00147
  21332076.335   112100815.88248  21332080.503    87351309.72448
  22976666.787   120743214.10248  22976672.839    94085645.82548
  5  2 16 18 44 35.0000000  0  7G 2G 4G 5G 9G10G17G30
  20138184.809   105826870.81849  20138185.747    82462504.43649
  21653020.856   113787382.28848  21653024.841    88665508.20348
  20876407.859   109706262.66148  20876411.654    85485421.21149
  23548299.318   123747124.23748  23548306.714    96426349.26848
  22360068.350   117502964.63647  22360074.361    91560795.10347
  21330738.859   112093787.43149  21330743.026    87345833.01448
  22973656.864   120727396.85347  22973662.904    94073320.70648
  5  2 16 18 44 40.0000000  0  7G 2G 4G 5G 9G10G17G30
  20138310.018   105827528.76649  20138310.956    82463017.11649
  21655573.419   113800796.06648  21655577.404    88675960.49048
  20875101.679   109699398.64149  20875105.475    85480072.62649
  23550886.528   123760719.93047  23550893.931    96436943.26847
  22356982.699   117486749.55447  22356988.715    91548159.99447
  21329489.321   112087221.09448  21329493.480    87340716.39448
  22970734.263   120712038.57048  22970740.304    94061353.24248
  5  2 16 18 44 45.0000000  0  7G 2G 4G 5G 9G10G17G30
  20138347.780   105827727.23549  20138348.717    82463171.77449
  21658037.237   113813743.51648  21658041.229    88686049.40848
  20873708.345   109692076.62249  20873712.147    85474367.15049
  23553384.871   123773848.71347  23553392.279    96447173.46148
  22353808.631   117470069.74347  22353814.644    91535162.73347
  21328151.904   112080192.95149  21328156.064    87335239.92848
  22967723.226   120696215.43748  22967729.268    94049023.52348
  5  2 16 18 44 50.0000000  0  7G 2G 4G 5G 9G10G17G30
  20138444.681   105828236.39449  20138445.619    82463568.50949
  21660558.897   113826994.83748  21660562.896    88696375.08948
  20872374.405   109685066.75049  20872378.199    85468904.92149
  23555940.910   123787280.72747  23555948.318    96457639.95048
  22350692.648   117453695.36347  22350698.641    91522403.53247
  21326873.176   112073473.16048  21326877.328    87330003.72048
  22964770.251   120680697.54347  22964776.287    94036931.68348
  5  2 16 18 44 55.0000000  0  7G 2G 4G 5G 9G10G17G30
  20138571.389   105828902.31149  20138572.327    82464087.41749
  21663109.073   113840396.06848  21663113.071    88706817.59848
  20871070.574   109678215.10449  20871074.367    85463565.97949
  23558525.368   123800862.05147  23558532.782    96468222.77448
  22347605.560   117437472.51447  22347611.557    91509762.31847
  21325623.821   112066907.78548  21325627.973    87324887.85148
  22961846.101   120665331.02747  22961852.137    94024957.78048
  5  2 16 18 45  0.0000000  0  7G 2G 4G 5G 9G10G17G30
  20138610.749   105829109.11749  20138611.687    82464248.55749
  21665570.594   113853331.38748  21665574.593    88716897.05548
  20869679.673   109670905.86649  20869683.459    85457870.47449
  23561021.027   123813976.80047  23561028.454    96478442.04248
  22344430.058   117420785.35647  22344436.027    91496759.39447
  21324286.656   112059881.03349  21324290.808    87319412.47648
  22958833.540   120649500.03846  22958839.577    94012621.97648
  5  2 16 18 45  5.0000000  0  7G 2G 4G 5G 9G10G17G30
  20138709.314   105829627.07849  20138710.252    82464652.16649
  21668089.997   113866570.93748  21668094.002    88727213.58548
  20868348.263   109663909.26349  20868352.050    85452418.57449
  23563574.500   123827395.23447  23563581.933    96488897.92447
  22341312.821   117404404.16646  22341318.788    91483994.82147
  21323008.275   112053163.09549  21323012.419    87314177.72048
  22955879.187   120633974.90347  22955885.218    94000524.49548
  5  2 16 18 45 10.0000000  0  7G 2G 4G 5G 9G10G17G30
  20138808.482   105830148.21049  20138809.420    82465058.24449
  21670608.732   113879806.85548  21670612.744    88737527.25648
  20867017.741   109656917.31949  20867021.527    85446970.30649
  23566127.131   123840809.33847  23566134.564    96499350.45647
  22338195.163   117388020.95047  22338201.121    91471228.71747
  21321730.031   112046445.90948  21321734.175    87308943.55548
  22952924.416   120618447.60347  22952930.448    93988425.32947
  5  2 16 18 45 15.0000000  0  7G 2G 4G 5G 9G10G17G30
  20138908.299   105830672.72049  20138909.237    82465466.94749
  21673126.780   113893039.25948  21673130.794    88747838.21648
  20865688.147   109649930.29149  20865691.941    85441525.87349
  23568678.964   123854219.31048  23568686.402    96509799.77747
  22335077.198   117371635.96547  22335083.154    91458461.19647
  21320451.983   112039729.81348  21320456.126    87303710.25148
  22949969.281   120602918.32347  22949975.311    93976324.59948
  5  2 16 18 45 20.0000000  0  7G 2G 4G 5G 9G10G17G30
  20139008.732   105831200.50249  20139009.664    82465878.20949
  21675644.142   113906268.08148  21675648.161    88758146.38548
  20864359.479   109642948.12049  20864363.278    85436085.22249
  23571230.015   123867625.07847  23571237.460    96520245.80848
  22331958.869   117355249.18847  22331964.818    91445692.31547
  21319174.157   112033014.73248  21319178.301    87298477.70948
  22947013.769   120587387.06747  22947019.799    93964222.33548
  5  2 16 18 45 25.0000000  0  7G 2G 4G 5G 9G10G17G30
  20139109.825   105831731.75049  20139110.758    82466292.17249
  21678160.858   113919493.48448  21678164.877    88768451.88248
  20863031.760   109635970.94149  20863035.559    85430648.46649
  23573780.294   123881026.79347  23573787.739    96530688.68048
  22328840.232   117338860.76747  22328846.187    91432922.13647
  21317896.531   112026300.82249  21317900.673    87293246.10148
  22944057.921   120571853.97948  22944063.957    93952118.62548
  5  2 16 18 45 30.0000000  0  7G 2G 4G 5G 9G10G17G30
  20139211.621   105832266.68849  20139212.553    82466709.00649
  21680676.986   113932715.76548  21680681.012    88778754.94148
  20861705.052   109628999.04649  20861708.852    85425215.82249
  23576329.859   123894424.72347  23576337.318    96541128.59248
  22325721.340   117322470.96947  22325727.293    91420150.88147
  21316619.180   112019588.32948  21316623.322    87288015.59348
  22941101.778   120556319.34347  22941107.808    93940013.71948
  5  2 16 18 45 35.0000000  0  7G 2G 4G 5G 9G10G17G30
  20139314.103   105832805.20549  20139315.029    82467128.62849
  21683192.476   113945934.72248  21683196.501    88789055.41948
  20860379.332   109622032.33849  20860383.139    85419787.21949
  23578878.642   123907818.63747  23578886.094    96551565.40347
  22322602.137   117306079.63747  22322608.090    91407378.45647
  21315342.078   112012877.11248  21315346.219    87282786.06948
  22938145.318   120540783.01247  22938151.340    93927907.47947
  5  2 16 18 45 40.0000000  0  7G 2G 4G 5G 9G10G17G30
  20139417.301   105833347.51349  20139418.234    82467551.20249
  21685707.369   113959150.50848  21685711.394    88799353.42248
  20859054.620   109615070.96349  20859058.434    85414362.77349
  23581426.738   123921208.81247  23581434.196    96561999.27048
  22319482.728   117289687.00147  22319488.686    91394604.95647
  21314065.239   112006167.28048  21314069.381    87277557.62848
  22935188.582   120525245.25847  22935194.604    93915800.13648
  5  2 16 18 45 45.0000000  0  7G 2G 4G 5G 9G10G17G30
  20139579.873   105834201.80349  20139580.807    82468216.88049
  21688280.330   113972671.44948  21688284.356    88809889.20748
  20857789.594   109608423.20849  20857793.409    85409182.70349
  23584032.744   123934903.40347  23584040.210    96572670.36448
  22316421.717   117273601.37547  22316427.668    91382070.72247
  21312847.342   111999767.18848  21312851.478    87272570.55048
  22932290.221   120510014.33147  22932296.235    93903931.89448
  5  2 16 18 45 50.0000000  0  7G 2G 4G 5G 9G10G17G30
  20139684.632   105834752.31849  20139685.566    82468645.85149
  21690794.161   113985881.68848  21690798.186    88820182.89148
  20856467.075   109601473.32449  20856470.898    85403767.21249
  23586579.505   123948286.66147  23586586.971    96583098.86248
  22313301.948   117257206.97047  22313307.890    91369295.87747
  21311571.201   111993061.01948  21311575.335    87267344.96148
  22929333.049   120494474.41247  22929339.056    93891822.89848
  5  2 16 18 45 55.0000000  0  7G 2G 4G 5G 9G10G17G30
  20139790.187   105835307.01449  20139791.122    82469078.08449
  21693307.485   113999089.23448  21693311.504    88830474.47848
  20855145.657   109594529.25449  20855149.486    85398356.25149
  23589125.627   123961666.56247  23589133.093    96593524.74548
  22310182.032   117240811.82847  22310187.952    91356520.47447
  21310295.414   111986356.77548  21310299.541    87262120.89148
  22926375.702   120478933.47847  22926381.702    93879713.08848
  5  2 16 18 46  0.0000000  0  7G 2G 4G 5G 9G10G17G30
  20139955.170   105836173.97549  20139956.105    82469753.63349
  21695878.924   114012602.11348  21695882.943    88841003.96748
  20853883.977   109587899.08249  20853887.806    85393189.88449
  23591729.731   123975351.12847  23591737.204    96604188.02048
  22307120.605   117224723.94947  22307126.517    91343984.46947
  21309078.646   111979962.67948  21309082.773    87257138.49048
  22923476.795   120463699.71748  22923482.789    93867842.65148
  5  2 16 18 46  5.0000000  0  7G 2G 4G 5G 9G10G17G30
  20140033.026   105836583.10849  20140033.960    82470072.43649
  21698361.898   114025650.25848  21698365.916    88851171.35548
  20852535.499   109580812.75149  20852539.329    85387668.06549
  23594245.265   123988570.25147  23594252.737    96614488.61547
  22303971.094   117208173.31447  22303977.005    91331087.90047
  21307774.328   111973108.44548  21307778.448    87251797.52948
  22920489.791   120448002.99847  22920495.785    93855611.46348
  5  2 16 18 46 10.0000000  0  7G 2G 4G 5G 9G10G17G30
  20140170.347   105837304.73549  20140171.282    82470634.74449
  21700903.049   114039004.00548  21700907.076    88861576.85448
  20851246.798   109574040.58248  20851250.628    85382391.04949
  23596818.820   124002094.31147  23596826.306    96625026.82247
  22300880.136   117191930.28047  22300886.037    91318431.00047
  21306529.041   111966564.41648  21306533.167    87246698.28148
  22917561.272   120432613.65247  22917567.274    93843619.79248
  5  2 16 18 46 15.0000000  0  7G 2G 4G 5G 9G10G17G30
  20140308.528   105838030.85049  20140309.463    82471200.54449
  21703443.719   114052355.28648  21703447.752    88871980.43748
  20849959.264   109567274.57649  20849963.101    85377118.84049
  23599391.790   124015615.23947  23599399.283    96635562.57748
  22297789.104   117175686.83247  22297794.998    91305773.77447
  21305284.156   111960022.53348  21305288.281    87241600.71448
  22914632.634   120417223.64848  22914638.629    93831627.60748
  5  2 16 18 46 20.0000000  0  7G 2G 4G 5G 9G10G17G30
  20140418.240   105838607.42149  20140419.175    82471649.82749
  21705954.622   114065550.07348  21705958.661    88882262.06548
  20848643.608   109560360.75749  20848647.452    85371731.44749
  23601934.842   124028979.03647  23601942.348    96645975.90847
  22294668.685   117159288.98347  22294674.572    91292996.24547
  21304010.380   111953328.89048  21304014.499    87236384.91148
  22911674.587   120401679.03648  22911680.577    93819514.94248
  5  2 16 18 46 25.0000000  0  7G 2G 4G 5G 9G10G17G30
  20140558.154   105839342.64349  20140559.089    82472222.72149
  21708494.386   114078896.62548  21708498.432    88892661.97148
  20847358.473   109553607.32949  20847362.319    85366469.04049
  23604506.650   124042493.84947  23604514.162    96656506.90048
  22291577.535   117143044.93847  22291583.407    91280338.56347
  21302766.395   111946791.67448  21302770.513    87231290.96848
  22908745.780   120386288.05248  22908751.772    93807521.97248
  5  2 16 18 46 30.0000000  0  7G 2G 4G 5G 9G10G17G30
  20140669.688   105839928.72949  20140670.617    82472679.40949
  21711004.472   114092087.09248  21711008.512    88902940.23348
  20846045.278   109546706.47249  20846049.130    85361091.75249
  23607048.629   124055851.88347  23607056.147    96666915.71947
  22288457.076   117126646.94147  22288462.940    91267560.92847
  21301493.600   111940103.12048  21301497.711    87226079.11848
  22905787.614   120370742.84948  22905793.606    93795408.84248
  5  2 16 18 46 35.0000000  0  7G 2G 4G 5G 9G10G17G30
  20140811.437   105840673.62549  20140812.373    82473259.84449
  21713543.445   114105429.48348  21713547.478    88913336.90848
  20844762.639   109539966.19148  20844766.498    85355839.59149
  23609619.350   124069361.08648  23609626.877    96677442.36747
  22285365.951   117110402.96947  22285371.813    91254903.28247
  21300250.602   111933571.15548  21300254.720    87220989.27648
  22902858.729   120355351.45148  22902864.722    93783415.54948
  5  2 16 18 46 40.0000000  0  7G 2G 4G 5G 9G10G17G30
  20140954.117   105841423.41549  20140955.053    82473844.09449
  21716082.040   114118769.79748  21716086.067    88923731.94348
  20843481.280   109533232.60449  20843485.140    85350592.64349
  23612189.552   124082867.55347  23612197.086    96687966.87848
  22282274.822   117094159.13547  22282280.669    91242245.78447
  21299008.111   111927041.82148  21299012.228    87215901.48248
  22899929.825   120339959.92548  22899935.811    93771422.15148
  5  2 16 18 46 45.0000000  0  7G 2G 4G 5G 9G10G17G30
  20141127.094   105842332.41349  20141128.030    82474552.40749
  21718649.605   114132262.37748  21718653.625    88934245.63248
  20842230.548   109526659.95948  20842234.407    85345471.10149
  23614788.585   124096525.53547  23614796.119    96698609.45448
  22279213.101   117078069.71647  22279218.941    91229708.58247
  21297795.490   111920669.48548  21297799.593    87210936.03848
  22897030.258   120324722.57048  22897036.231    93759548.88747
  5  2 16 18 46 50.0000000  0  7G 2G 4G 5G 9G10G17G30
  20141242.439   105842938.52349  20141243.368    82475024.69849
  21721158.196   114145445.08348  21721162.217    88944517.86448
  20840922.520   109519786.22749  20840926.387    85340114.94349
  23617328.541   124109872.97047  23617336.090    96709010.02148
  22276092.823   117061672.63847  22276098.648    91216931.65747
  21296524.808   111913992.06748  21296528.911    87205732.86748
  22894072.120   120309177.35248  22894078.092    93747435.70747
  5  2 16 18 46 55.0000000  0  7G 2G 4G 5G 9G10G17G30
  20141417.374   105843857.81249  20141418.310    82475741.02549
  21723725.072   114158934.01348  21723729.093    88955028.70248
  20839674.425   109513227.47548  20839678.292    85335004.23649
  23619926.645   124123525.94247  23619934.207    96719648.66047
  22273031.269   117045584.06047  22273037.085    91204395.10347
  21295313.295   111907625.55748  21295317.398    87200771.95848
  22891172.606   120293940.36847  22891178.558    93735562.75548
  5  2 16 18 47  0.0000000  0  7G 2G 4G 5G 9G10G17G30
  20141534.719   105844474.46349  20141535.656    82476221.53449
  21726233.022   114172113.34748  21726237.036    88965298.30848
  20838369.086   109506367.90548  20838372.953    85329659.12049
  23622465.682   124136868.54447  23622473.251    96730045.46247
  22269911.206   117029188.14647  22269917.015    91191619.09447
  21294043.778   111900954.23148  21294047.887    87195573.52248
  22888214.579   120278395.83147  22888220.523    93723450.12947
  5  2 16 18 47  5.0000000  0  7G 2G 4G 5G 9G10G17G30
  20141711.713   105845404.57449  20141712.650    82476946.29749
  21728799.302   114185599.14448  21728803.322    88975806.69648
  20837123.759   109499823.63448  20837127.626    85324559.68449
  23625062.894   124150516.92247  23625070.469    96740680.54447
  22266849.905   117013100.96447  22266855.713    91179083.63447
  21292833.496   111894594.18348  21292837.597    87190617.64948
  22885315.243   120263159.81047  22885321.172    93711577.92748
  5  2 16 18 47 10.0000000  0  7G 2G 4G 5G 9G10G17G30
  20141831.131   105846032.08749  20141832.068    82477435.26249
  21731306.668   114198775.41148  21731310.688    88986073.90948
  20835821.191   109492978.62448  20835825.057    85319225.91649
  23627601.073   124163854.98847  23627608.662    96751073.80048
  22263730.126   116996706.53947  22263735.919    91166308.78748
  21291565.219   111887929.34348  21291569.321    87185424.26948
  22882357.391   120247616.29148  22882363.306    93699466.11848
  5  2 16 18 47 15.0000000  0  7G 2G 4G 5G 9G10G17G30
  20141980.913   105846819.19749  20141981.850    82478048.59249
  21733843.079   114212104.28148  21733847.099    88996460.02648
  20834549.354   109486295.04748  20834553.221    85314017.92749
  23630168.124   124177344.93347  23630175.713    96761585.44747
  22260639.839   116980467.03447  22260645.631    91153654.63648
  21290326.889   111881421.87748  21290330.991    87180353.51848
  22879428.998   120232227.44848  22879434.906    93687474.80948
  5  2 16 18 47 20.0000000  0  7G 2G 4G 5G 9G10G17G30
  20142161.104   105847766.11149  20142162.042    82478786.44949
  21736408.570   114225585.96248  21736412.590    89006965.21948
  20833308.274   109479773.12748  20833312.149    85308935.91149
  23632764.125   124190986.88547  23632771.722    96772215.51047
  22257579.069   116964382.66847  22257584.845    91141121.38748
  21289118.537   111875072.00648  21289122.639    87175405.57948
  22876530.065   120216993.51548  22876535.967    93675604.23248
  5  2 16 18 47 25.0000000  0  7G 2G 4G 5G 9G10G17G30
  20142283.776   105848410.72349  20142284.714    82479288.74049
  21738915.194   114238758.32848  21738919.207    89017229.39548
  20832010.028   109472950.82948  20832013.902    85303619.83949
  23635301.127   124204318.86047  23635308.731    96782604.04447
  22254459.921   116947991.43947  22254465.685    91128349.00847
  21287852.260   111868417.70848  21287856.362    87170220.41948
  22873572.694   120201452.45848  22873578.597    93663494.32548
  5  2 16 18 47 30.0000000  0  7G 2G 4G 5G 9G10G17G30
  20142466.181   105849369.30249  20142467.120    82480035.69349
  21741480.227   114252237.67048  21741484.240    89027732.77948
  20830771.886   109466444.35148  20830775.761    85298549.86049
  23637896.385   124217956.99747  23637903.988    96793231.15848
  22251399.632   116931909.57547  22251405.396    91115817.69948
  21286645.308   111862075.16248  21286649.410    87165278.18448
  22870674.157   120186220.51048  22870680.055    93651625.28048
  5  2 16 18 47 35.0000000  0  7G 2G 4G 5G 9G10G17G30
  20142649.751   105850333.93649  20142650.690    82480787.35049
  21744045.104   114265716.06548  21744049.117    89038235.39648
  20829535.259   109459945.83248  20829539.134    85293486.07849
  23640491.337   124231593.50047  23640498.940    96803856.98948
  22248339.627   116915829.23047  22248345.376    91103287.58747
  21285439.107   111855736.53648  21285443.217    87160338.99348
  22867775.856   120170989.86748  22867781.748    93639757.26148
  5  2 16 18 47 40.0000000  0  7G 2G 4G 5G 9G10G17G30
  20142805.177   105851150.70649  20142806.123    82481423.79149
  21746580.499   114279039.59348  21746584.512    89048617.35148
  20828270.861   109453301.40448  20828274.742    85288308.60549
  23643056.669   124245074.35247  23643064.279    96814361.53147
  22245250.625   116899596.48148  22245256.367    91090638.70748
  21284204.349   111849247.86948  21284208.452    87155282.89948
  22864848.491   120155606.55448  22864854.376    93627770.28648
  5  2 16 18 47 45.0000000  0  7G 2G 4G 5G 9G10G17G30
  20142932.512   105851819.85549  20142933.465    82481945.20349
  21749086.461   114292208.54148  21749090.474    89058878.87948
  20826978.746   109446511.29348  20826982.626    85283017.60849
  23645592.449   124258399.84047  23645600.065    96824744.99347
  22242132.680   116883211.60047  22242138.421    91077871.26948
  21282941.097   111842609.40448  21282945.201    87150110.06448
  22861892.125   120140070.81148  22861898.012    93615664.53348
  5  2 16 18 47 50.0000000  0  7G 2G 4G 5G 9G10G17G30
  20143119.667   105852803.36349  20143120.613    82482711.57649
  21751650.931   114305684.79848  21751654.951    89069379.82848
  20825746.828   109440037.52448  20825750.710    85277973.11649
  23648186.562   124272031.93147  23648194.177    96835367.38648
  22239073.687   116867136.57647  22239079.413    91065345.29748
  21281737.246   111836283.18748  21281741.357    87145180.55748
  22858994.676   120124844.67348  22859000.555    93603800.02648
  5  2 16 18 47 55.0000000  0  7G 2G 4G 5G 9G10G17G30
  20143278.776   105853639.45449  20143279.730    82483363.07049
  21754185.995   114319006.62148  21754190.022    89079760.45848
  20824487.226   109433418.27148  20824491.109    85272815.25849
  23650751.134   124285508.81947  23650758.750    96845868.85247
  22235985.808   116850909.66147  22235991.526    91052700.94848
  21280504.959   111829807.41248  21280509.071    87140134.49048
  22856068.264   120109466.37047  22856074.151    93591816.95247
  5  2 16 18 48  0.0000000  0  7G 2G 4G 5G 9G10G17G30
  20143468.461   105854636.28649  20143469.421    82484139.82549
  21756750.320   114332482.14548  21756754.348    89090260.85048
  20823258.591   109426961.75048  20823262.473    85267784.20349
  23653344.832   124299138.63647  23653352.453    96856489.44648
  22232927.655   116834839.02347  22232933.373    91040178.38548
  21279302.815   111823490.16648  21279306.927    87135211.97448
  22853171.540   120094244.07648  22853177.420    93579955.44847
  5  2 16 18 48  5.0000000  0  7G 2G 4G 5G 9G10G17G30
  20143630.161   105855486.02549  20143631.121    82484801.95849
  21759285.304   114345803.47948  21759289.333    89100641.09448
  20822002.347   109420360.14248  20822006.230    85262640.09649
  23655909.032   124312613.53447  23655916.660    96866989.35047
  22229840.660   116818616.84947  22229846.364    91027537.75548
  21278072.279   111817023.71948  21278076.391    87130173.19648
  22850245.950   120078869.99448  22850251.830    93567975.64847
  5  2 16 18 48 10.0000000  0  7G 2G 4G 5G 9G10G17G30
  20143822.497   105856496.75949  20143823.451    82485589.54849
  21761849.574   114359278.77848  21761853.604    89111141.32448
  20820777.118   109413921.52248  20820781.002    85257622.99249
  23658502.392   124326241.64147  23658510.019    96877608.62947
  22226783.468   116802551.25747  22226789.171    91015019.12548
  21276871.975   111810716.07848  21276876.086    87125258.14948
  22847350.135   120063652.22848  22847356.021    93556117.60647
  5  2 16 18 48 15.0000000  0  7G 2G 4G 5G 9G10G17G30
  20143986.907   105857360.70549  20143987.867    82486262.74149
  21764384.594   114372600.33548  21764388.631    89121521.74148
  20819524.344   109407338.11448  20819528.228    85252493.06049
  23661066.333   124339715.11547  23661073.967    96888107.41047
  22223697.497   116786334.46447  22223703.194    91002382.68948
  21275643.339   111804259.54948  21275647.450    87120227.08948
  22844425.457   120048282.97448  22844431.344    93544141.57348
  5  2 16 18 48 20.0000000  0  7G 2G 4G 5G 9G10G17G30
  20144181.998   105858385.91749  20144182.952    82487061.61649
  21766948.952   114386076.09748  21766952.990    89132022.33348
  20818302.626   109400917.97849  20818306.518    85247490.36249
  23663659.457   124353341.98047  23663667.084    96898725.72747
  22220641.388   116770274.53748  22220647.084    90989868.46248
  21274444.970   111797962.11148  21274449.081    87115320.00048
  22841530.587   120033070.32948  22841536.453    93532287.57248
  5  2 16 18 48 25.0000000  0  7G 2G 4G 5G 9G10G17G30
  20144349.187   105859264.53149  20144350.141    82487746.25549
  21769484.067   114399398.18648  21769488.112    89142403.17248
  20817053.417   109394353.33649  20817057.309    85242375.06349
  23666223.204   124366814.47047  23666230.830    96909223.74947
  22217556.545   116754063.66847  22217562.241    90977236.64048
  21273218.315   111791515.99348  21273222.426    87110297.05248
  22838606.949   120017706.47948  22838612.809    93520315.73748
  5  2 16 18 48 30.0000000  0  7G 2G 4G 5G 9G10G17G30
  20144547.142   105860304.76249  20144548.103    82488556.81449
  21772048.620   114412874.91148  21772052.672    89152904.49248
  20815835.349   109387952.35148  20815839.250    85237387.28049
  23668816.215   124380440.70748  23668823.833    96919841.56847
  22214501.649   116738010.11447  22214507.345    90964727.38348
  21272021.998   111785229.37048  21272026.110    87105398.40048
  22835713.179   120002499.61048  22835719.017    93508466.23848
  5  2 16 18 48 35.0000000  0  7G 2G 4G 5G 9G10G17G30
  20144746.577   105861352.80149  20144747.538    82489373.46749
  21774613.306   114426352.39648  21774617.366    89163406.42148
  20814619.163   109381561.24549  20814623.063    85232407.20049
  23671409.203   124394066.85748  23671416.828    96930459.32247
  22211447.412   116721960.02047  22211453.101    90952220.82548
  21270826.794   111778948.53048  21270830.905    87100504.23648
  22832820.010   119987295.93648  22832825.834    93496619.23348
  5  2 16 18 48 40.0000000  0  7G 2G 4G 5G 9G10G17G30
  20144947.513   105862408.69449  20144948.473    82490196.23249
  21777178.139   114439830.58848  21777182.206    89173908.88648
  20813404.872   109375180.10649  20813408.774    85227434.88649
  23674002.191   124407693.01147  23674009.816    96941077.08047
  22208393.843   116705913.43747  22208399.518    90939717.00748
  21269632.692   111772673.48148  21269636.803    87095614.58848
  22829927.458   119972095.50848  22829933.277    93484774.75648
  5  2 16 18 48 45.0000000  0  7G 2G 4G 5G 9G10G17G30
  20145149.980   105863472.63449  20145150.934    82491025.27549
  21779743.155   114453309.80648  21779747.229    89184412.16548
  20812192.503   109368809.09249  20812196.411    85222470.46449
  23676595.207   124421319.30647  23676602.838    96951694.94947
  22205340.974   116689870.62747  22205346.642    90927216.14648
  21268439.712   111766404.35848  21268443.822    87090729.56248
  22827035.569   119956898.58947  22827041.381    93472933.01948
  5  2 16 18 48 50.0000000  0  7G 2G 4G 5G 9G10G17G30
  20145324.673   105864390.68149  20145325.634    82491740.64249
  21782279.077   114466636.04348  21782283.153    89194796.22448
  20810952.779   109362294.30048  20810956.694    85217394.00149
  23679158.961   124434791.83347  23679166.592    96962192.99947
  22202259.560   116673677.72347  22202265.236    90914598.30648
  21267218.563   111759987.17848  21267222.666    87085729.16348
  22824115.034   119941551.23248  22824120.832    93460974.07748
  5  2 16 18 48 55.0000000  0  7G 2G 4G 5G 9G10G17G30
  20145530.243   105865470.92949  20145531.197    82492582.39049
  21784844.502   114480117.38248  21784848.586    89205301.15048
  20809744.330   109355943.85749  20809748.246    85212445.60549
  23681752.076   124448418.65047  23681759.708    96972811.28148
  22199208.189   116657642.78347  22199213.865    90902103.57648
  21266027.875   111753730.07148  21266031.970    87080853.49548
  22821224.529   119926361.52647  22821230.321    93449137.94948
  5  2 16 18 49  0.0000000  0  7G 2G 4G 5G 9G10G17G30
  20145737.413   105866559.58249  20145738.374    82493430.68149
  21787410.164   114493600.02548  21787414.255    89215807.10748
  20808537.880   109349603.95448  20808541.804    85207505.42749
  23684345.293   124462045.97247  23684352.931    96983429.93848
  22196157.636   116641612.04847  22196163.306    90889612.10848
  21264838.379   111747479.26148  21264842.474    87075982.73848
  22818334.748   119911175.68448  22818340.532    93437304.84248
  5  2 16 18 49  5.0000000  0  7G 2G 4G 5G 9G10G17G30
  20145946.166   105867656.61649  20145947.120    82494285.52649
  21789976.091   114507083.96848  21789980.189    89226314.05248
  20807333.438   109343274.56948  20807337.368    85202573.43449
  23686938.582   124475673.73147  23686946.220    96994048.96148
  22193107.885   116625585.50247  22193113.556    90877123.89348
  21263650.077   111741234.72349  21263654.158    87071116.87748
  22815445.712   119895993.76348  22815451.489    93425474.78548
  5  2 16 18 49 10.0000000  0  7G 2G 4G 5G 9G10G17G30
  20146127.252   105868608.20149  20146128.206    82495027.01149
  21792512.971   114520415.32848  21792517.076    89236702.11748
  20806101.728   109336801.88949  20806105.659    85197529.78949
  23689502.695   124489148.14647  23689510.341    97004548.48448
  22190029.655   116609409.32547  22190035.326    90864519.08448
  21262433.709   111734842.69548  21262437.789    87066136.07848
  22812528.167   119880661.92448  22812533.942    93413527.88848
  5  2 16 18 49 15.0000000  0  7G 2G 4G 5G 9G10G17G30
  20146368.595   105869876.46949  20146369.557    82496015.27149
  21795108.772   114534056.29648  21795112.885    89247331.42748
  20804930.688   109330648.03249  20804934.619    85192734.57849
  23692125.557   124502931.28347  23692133.209    97015288.56648
  22187010.882   116593545.65647  22187016.546    90852157.81048
  21261277.206   111728765.29148  21261281.285    87061400.45248
  22809670.038   119865642.29348  22809675.807    93401824.27048
  5  2 16 18 49 20.0000000  0  7G 2G 4G 5G 9G10G17G30
  20146553.027   105870845.66549  20146553.989    82496770.48849
  21797646.312   114547391.12748  21797650.438    89257722.19048
  20803703.155   109324197.33349  20803707.092    85187708.06049
  23694689.998   124516407.42047  23694697.664    97025789.42448
  22183934.423   116577378.82147  22183940.087    90839560.28948
  21260063.414   111722386.74448  21260067.487    87056430.15248
  22806754.146   119850319.14748  22806759.914    93389884.14748
  5  2 16 18 49 25.0000000  0  7G 2G 4G 5G 9G10G17G30
  20146768.445   105871977.69549  20146769.406    82497652.58649
  21800213.489   114560881.67248  21800217.623    89268234.28748
  20802507.032   109317911.66249  20802510.962    85182810.13949
  23697283.923   124530038.43247  23697291.596    97036410.95448
  22180888.175   116561370.71048  22180893.845    90827086.43848
  21258880.210   111716168.96448  21258884.275    87051585.12948
  22803868.386   119835154.37748  22803874.139    93378067.44348
  5  2 16 18 49 30.0000000  0  7G 2G 4G 5G 9G10G17G30
  20147014.895   105873272.76549  20147015.856    82498661.72749
  21802810.333   114574528.11248  21802814.460    89278867.86848
  20801342.365   109311791.29748  20801346.303    85178041.02249
  23699907.356   124543824.54047  23699915.037    97047153.35047
  22177872.171   116545521.59348  22177877.841    90814736.49948
  21257727.648   111710112.23848  21257731.719    87046865.60448
  22801012.822   119820148.25448  22801018.568    93366374.35848
  5  2 16 18 49 35.0000000  0  7G 2G 4G 5G 9G10G17G30
  20147204.441   105874268.83749  20147205.396    82499437.89149
  21805348.924   114587868.43648  21805353.058    89289262.91148
  20800121.220   109305374.13748  20800125.157    85173040.63749
  23702472.377   124557303.69247  23702480.071    97057656.54948
  22174798.500   116529369.40647  22174804.164    90802150.40048
  21256517.792   111703754.46548  21256521.849    87041911.51448
  22798099.491   119804838.75248  22798105.216    93354444.91848
  5  2 16 18 49 40.0000000  0  7G 2G 4G 5G 9G10G17G30
  20147425.037   105875428.01649  20147425.999    82500341.13149
  21807917.209   114601364.83348  21807921.343    89299779.57948
  20798931.539   109299122.35449  20798935.483    85168169.11849
  23705066.912   124570937.96947  23705074.606    97068280.63947
  22171755.122   116513376.28447  22171760.780    90789688.21948
  21255338.585   111697557.62948  21255342.649    87037082.79348
  22795216.386   119789687.96548  22795222.111    93342639.11448
  5  2 16 18 49 45.0000000  0  7G 2G 4G 5G 9G10G17G30
  20147618.068   105876442.43249  20147619.030    82501131.59049
  21810456.584   114614709.30948  21810460.718    89310177.86448
  20797714.750   109292728.08049  20797718.693    85163186.56649
  23707632.374   124584419.53347  23707640.069    97078785.75147
  22168683.398   116497234.36347  22168689.049    90777110.12048
  21254131.414   111691213.96348  21254135.469    87032139.68748
  22792304.908   119774388.10648  22792310.626    93330717.16348
  5  2 16 18 49 50.0000000  0  7G 2G 4G 5G 9G10G17G30
  20147871.506   105877774.22249  20147872.468    82502169.34549
  21813054.992   114628363.97648  21813059.134    89320817.84748
  20796558.792   109286653.45249  20796562.729    85158453.08849
  23710256.721   124598210.44447  23710264.422    97089531.88447
  22165671.320   116481405.78547  22165676.964    90764776.16548
  21252984.279   111685185.70149  21252988.329    87027442.33948
  22789452.994   119759401.29248  22789458.705    93319039.14948
  5  2 16 18 49 55.0000000  0  7G 2G 4G 5G 9G10G17G30
  20148068.103   105878807.34849  20148069.057    82502974.37949
  21815595.204   114641712.84448  21815599.338    89331219.55948
  20795346.429   109280282.43949  20795350.366    85153488.66249
  23712822.707   124611694.72747  23712830.408    97100039.10548
  22162601.633   116465274.59647  22162607.276    90752206.43148
  21251779.929   111678856.82648  21251783.985    87022510.75048
  22786543.408   119744111.43848  22786549.117    93307125.00048
  5  2 16 18 50  0.0000000  0  7G 2G 4G 5G 9G10G17G30
  20148325.116   105880157.96149  20148326.078    82504026.80249
  21818194.480   114655372.10449  21818198.615    89341863.13148
  20794194.915   109274231.19449  20794198.858    85148773.40049
  23715447.586   124625488.46747  23715455.288    97110787.45347
  22159591.633   116449456.96947  22159597.275    90739881.01148
  21250635.605   111672843.42849  21250639.654    87017825.00248
  22783693.444   119729134.81248  22783699.154    93295454.90848
  5  2 16 18 50  5.0000000  0  7G 2G 4G 5G 9G10G17G30
  20148525.357   105881210.20249  20148526.311    82504846.72649
  21820735.629   114668725.80849  21820739.765    89352268.59148
  20792987.070   109267883.92849  20792991.007    85143827.48249
  23718014.166   124638975.81247  23718021.875    97121297.04348
  22156524.076   116433336.97547  22156529.712    90727320.00948
  21249434.133   111666529.61748  21249438.181    87012905.13948
  22780785.883   119713855.53648  22780791.586    93283548.99848
  5  2 16 18 50 10.0000000  0  7G 2G 4G 5G 9G10G17G30
  20148786.054   105882580.14249  20148787.009    82505914.20949
  21823335.855   114682390.05348  21823339.998    89362916.04648
  20791840.120   109261856.69549  20791844.056    85139130.94049
  23720639.662   124652772.82347  23720647.378    97132047.94548
  22153516.264   116417530.78247  22153521.906    90715003.48648
  21248292.721   111660531.49248  21248296.770    87008231.28348
  22777937.976   119698889.71748  22777943.688    93271887.33048
  5  2 16 18 50 15.0000000  0  7G 2G 4G 5G 9G10G17G30
  20149019.279   105883805.75149  20149020.227    82506869.22949
  21825907.259   114695902.81348  21825911.409    89373445.45248
  20790666.151   109255687.44549  20790670.087    85134323.73349
  23723236.168   124666417.46347  23723243.878    97142680.11748
  22150480.216   116401576.33647  22150485.858    90702571.46848
  21247123.455   111654386.95448  21247127.503    87003443.32848
  22775061.785   119683775.32348  22775067.496    93260109.90048
  5  2 16 18 50 20.0000000  0  7G 2G 4G 5G 9G10G17G30
  20149283.699   105885195.25449  20149284.648    82507951.95549
  21828508.493   114709572.35648  21828512.649    89384097.03448
  20789523.816   109249684.43549  20789527.759    85129646.06349
  23725862.325   124680217.94547  23725870.041    97153433.71947
  22147474.618   116385781.90547  22147480.260    90690264.14248
  21245984.987   111648404.35748  21245989.034    86998781.58448
  22772215.992   119668820.58048  22772221.696    93248456.85648
  5  2 16 18 50 25.0000000  0  7G 2G 4G 5G 9G10G17G30
  20149491.371   105886286.57649  20149492.326    82508802.33349
  21831051.636   114722936.60048  21831055.799    89394510.71348
  20788325.187   109243385.59549  20788329.123    85124737.88149
  23728430.223   124693712.18647  23728437.947    97163948.67948
  22144411.557   116369685.44247  22144417.185    90677721.45648
  21244789.407   111642121.47949  21244793.454    86993885.81948
  22769312.645   119653563.41748  22769318.350    93236568.16848
  5  2 16 18 50 30.0000000  0  7G 2G 4G 5G 9G10G17G30
  20149730.219   105887541.70249  20149731.174    82509780.34549
  21833624.563   114736457.45648  21833628.719    89405046.45448
  20787158.199   109237253.00249  20787162.143    85119959.22849
  23731027.749   124707362.18447  23731035.473    97174585.02048
  22141378.940   116353748.96348  22141384.574    90665303.42148
  21243624.589   111636000.41549  21243628.636    86989116.17848
  22766439.654   119638465.87548  22766445.346    93224803.88548
  5  2 16 18 50 35.0000000  0  7G 2G 4G 5G 9G10G17G30
  20149970.958   105888806.76049  20149971.906    82510766.10249
  21836198.042   114749981.05148  21836202.191    89415584.29948
  20785993.546   109231132.73949  20785997.490    85115190.20149
  23733625.651   124721014.06347  23733633.388    97185222.79948
  22138347.486   116337818.62747  22138353.113    90652890.18848
  21242461.319   111629887.35748  21242465.364    86984352.74648
  22763567.795   119623374.12248  22763573.492    93213044.06248
  5  2 16 18 50 40.0000000  0  7G 2G 4G 5G 9G10G17G30
  20150213.626   105890081.95949  20150214.576    82511759.76049
  21838772.066   114763507.64049  21838776.216    89426124.49848
  20784831.276   109225024.97149  20784835.228    85110430.90149
  23736223.931   124734667.98947  23736231.669    97195862.19848
  22135317.239   116321894.60348  22135322.860    90640481.86948
  21241299.611   111623782.48149  21241303.657    86979595.68448
  22760697.061   119608288.37648  22760702.751    93201288.95148
  5  2 16 18 50 45.0000000  0  7G 2G 4G 5G 9G10G17G30
  20150487.519   105891521.27949  20150488.469    82512881.30749
  21841375.959   114777191.16048  21841380.095    89436786.98048
  20783700.712   109219083.78448  20783704.664    85105801.39949
  23738851.889   124748477.94447  23738859.633    97206623.18147
  22132317.501   116306130.93847  22132323.115    90628198.51048
  21240168.733   111617839.77049  21240172.771    86974965.02348
  22757856.784   119593362.64948  22757862.473    93189658.51848
  5  2 16 18 50 50.0000000  0  7G 2G 4G 5G 9G10G17G30
  20150704.740   105892662.74849  20150705.689    82513770.75749
  21843921.800   114790569.61348  21843925.930    89447211.74848
  20782513.923   109212847.16949  20782517.876    85100941.69949
  23741421.625   124761981.93247  23741429.383    97217145.74947
  22129260.357   116290065.63047  22129265.963    90615680.11148
  21238980.814   111611597.24349  21238984.845    86970100.72448
  22754959.038   119578134.92748  22754964.722    93177792.77448
  5  2 16 18 50 55.0000000  0  7G 2G 4G 5G 9G10G17G30
  20150982.487   105894122.38249  20150983.436    82514908.14649
  21846526.825   114804259.04948  21846530.955    89457878.82748
  20781388.151   109206931.16149  20781392.104    85096331.82049
  23744050.386   124775796.00647  23744058.150    97227909.92447
  22126263.070   116274314.81247  22126268.676    90603406.75248
  21237853.059   111605670.82249  21237857.082    86965482.72748
  22752121.067   119563221.25348  22752126.742    93166171.72248
  5  2 16 18 51  0.0000000  0  7G 2G 4G 5G 9G10G17G30
  20151232.872   105895438.13349  20151233.814    82515933.40349
  21849103.097   114817797.38748  21849107.227    89468428.16948
  20780235.456   109200873.74349  20780239.410    85091611.76149
  23746650.205   124789458.05547  23746657.969    97238555.65447
  22123237.698   116258416.37447  22123243.305    90591018.36248
  21236697.546   111599598.55749  21236701.569    86960751.09049
  22749254.922   119548159.59248  22749260.591    93154435.37548
  5  2 16 18 51  5.0000000  0  7G 2G 4G 5G 9G10G17G30
  20151485.205   105896764.15249  20151486.154    82516966.66249
  21851679.978   114831338.89348  21851684.115    89478979.97148
  20779085.204   109194829.12749  20779089.158    85086901.67349
  23749250.442   124803122.29848  23749258.212    97249203.09047
  22120213.570   116242524.56947  22120219.170    90578635.15948
  21235543.620   111593534.66849  21235547.635    86956025.98948
  22746389.965   119533104.20348  22746395.627    93142703.91948
  5  2 16 18 51 10.0000000  0  7G 2G 4G 5G 9G10G17G30
  20151739.488   105898100.41849  20151740.430    82518007.91049
  21854257.431   114844883.40848  21854261.576    89489534.11548
  20777937.379   109188797.23249  20777941.339    85082201.48449
  23751851.075   124816788.62547  23751858.853    97259852.15447
  22117190.714   116226639.32247  22117196.307    90566257.04048
  21234391.254   111587479.07048  21234395.262    86951307.37048
  22743526.196   119518054.99448  22743531.852    93130977.27248
  5  2 16 18 51 15.0000000  0  7G 2G 4G 5G 9G10G17G30
  20152025.009   105899600.84349  20152025.951    82519177.07149
  21856864.739   114858584.87148  21856868.897    89500210.56648
  20776821.267   109182932.02649  20776825.229    85077631.19849
  23754481.383   124830610.95547  23754489.161    97270622.79647
  22114198.397   116210914.59447  22114203.977    90554004.01148
  21233269.781   111581585.65849  21233273.789    86946715.09248
  22740692.899   119503165.95148  22740698.549    93119375.42948
  5  2 16 18 51 20.0000000  0  7G 2G 4G 5G 9G10G17G30
  20152253.876   105900803.51349  20152254.810    82520114.21249
  21859414.008   114871981.34248  21859418.167    89510649.37048
  20775648.969   109176771.55849  20775652.931    85072830.83449
  23757053.497   124844127.38148  23757061.281    97281155.04048
  22111148.705   116194888.47647  22111154.276    90541516.15548
  21232091.256   111575392.43249  21232095.263    86941889.19548
  22737802.177   119487975.10448  22737807.821    93107538.41548
  5  2 16 18 51 25.0000000  0  7G 2G 4G 5G 9G10G17G30
  20152513.984   105902170.39449  20152514.919    82521179.31349
  21861993.162   114885534.79248  21861997.329    89521210.48048
  20774508.403   109170777.84449  20774512.372    85068160.40549
  23759655.302   124857799.83148  23759663.092    97291808.86747
  22108129.608   116179023.01447  22108135.180    90529153.45948
  21230943.604   111569361.51749  21230947.605    86937189.78948
  22734941.927   119472944.45248  22734947.565    93095826.23648
  5  2 16 18 51 30.0000000  0  7G 2G 4G 5G 9G10G17G30
  20152834.661   105903855.53049  20152835.595    82522492.39849
  21864631.476   114899399.28948  21864635.643    89532013.99848
  20773428.868   109165104.87849  20773432.836    85063739.91949
  23762316.095   124871782.36147  23762323.884    97302704.33448
  22105170.361   116163472.16247  22105175.940    90517035.93148
  21229856.161   111563646.93248  21229860.155    86932736.86248
  22732141.501   119458228.08248  22732147.132    93084358.93348
  5  2 16 18 51 35.0000000  0  7G 2G 4G 5G 9G10G17G30
  20153069.300   105905088.56749  20153070.228    82523453.21049
  21867182.418   114912804.54848  21867186.584    89542459.64548
  20772263.802   109158982.38349  20772267.771    85058969.14149
  23764889.320   124885304.65747  23764897.117    97313241.16547
  22102124.414   116147465.66547  22102129.987    90504563.35648
  21228682.313   111557478.34849  21228686.293    86927930.18948
  22729254.288   119443055.67748  22729259.920    93072536.28348
  5  2 16 18 51 40.0000000  0  7G 2G 4G 5G 9G10G17G30
  20153335.162   105906485.67949  20153336.089    82524541.86549
  21869763.197   114926366.60148  21869767.356    89553027.47348
  20771130.446   109153026.53049  20771134.416    85054328.21049
  23767492.202   124898982.83347  23767500.006    97323899.46948
  22099109.014   116131619.69547  22099114.594    90492215.85748
  21227539.346   111551471.98748  21227543.325    86923249.89548
  22726397.537   119428043.38048  22726403.148    93060838.40448
  5  2 16 18 51 45.0000000  0  7G 2G 4G 5G 9G10G17G30
  20153602.921   105907892.79649  20153603.855    82525638.32349
  21872344.504   114939931.43148  21872348.662    89563597.46148
  20769999.480   109147083.32349  20770003.456    85049697.14949
  23770095.444   124912662.83747  23770103.255    97334559.18248
  22096094.853   116115780.19947  22096100.432    90479873.39848
  21226397.909   111545473.72449  21226401.880    86918575.93248
  22723541.950   119413037.20248  22723547.554    93049145.28748
  5  2 16 18 51 50.0000000  0  7G 2G 4G 5G 9G10G17G30
  20153931.211   105909617.94049  20153932.144    82526982.58349
  21874984.964   114953807.08048  21874989.122    89574409.63848
  20768929.541   109141460.72649  20768933.518    85045315.90149
  23772757.636   124926652.69047  23772765.455    97345460.35347
  22093140.547   116100255.28047  22093146.126    90467776.07248
  21225316.613   111539791.50749  21225320.578    86914148.24148
  22720746.132   119398345.14248  22720751.730    93037696.94648
  5  2 16 18 51 55.0000000  0  7G 2G 4G 5G 9G10G17G30
  20154173.471   105910891.02349  20154174.398    82527974.60249
  21877538.013   114967223.40948  21877542.170    89584863.91148
  20767774.071   109135388.69249  20767778.055    85040584.44249
  23775332.239   124940182.25647  23775340.065    97356002.85747
  22090099.557   116084274.86347  22090105.143    90455323.81648
  21224148.931   111533655.29749  21224152.902    86909366.77348
  22717863.573   119383197.15748  22717869.162    93025893.31348
  5  2 16 18 52  0.0000000  0  7G 2G 4G 5G 9G10G17G30
  20154446.912   105912327.93449  20154447.845    82529094.25849
  21880120.888   114980796.38548  21880125.059    89595440.22548
  20766650.277   109129483.11449  20766654.261    85035982.69349
  23777936.460   124953867.43347  23777944.299    97366666.60448
  22087089.084   116068454.78347  22087094.663    90442996.49648
  21223012.069   111527681.04648  21223016.033    86904711.51548
  22715011.449   119368209.17648  22715017.031    93014214.37548
  5  2 16 18 52  5.0000000  0  7G 2G 4G 5G 9G10G17G30
  20154722.227   105913774.72749  20154723.161    82530221.63149
  21882704.237   114994371.94248  21882708.407    89606018.57248
  20765528.867   109123590.06149  20765532.858    85031390.70449
  23780541.001   124967554.29847  23780548.847    97377331.66748
  22084079.837   116052641.18047  22084085.423    90430674.22648
  21221876.721   111521714.81549  21221880.671    86900062.52548
  22712160.468   119353227.23448  22712166.036    93002540.15348
  5  2 16 18 52 10.0000000  0  7G 2G 4G 5G 9G10G17G30
  20155058.019   105915539.32549  20155058.960    82531596.64149
  21885346.689   115008258.09048  21885350.859    89616838.94048
  20764468.431   109118017.46549  20764472.422    85027048.42549
  23783204.467   124981550.75147  23783212.327    97388237.95148
  22081130.431   116037141.97447  22081136.023    90418596.92448
  21220801.512   111516064.52148  21220805.461    86895659.68948
  22709369.233   119338559.25848  22709374.787    92991110.58248
  5  2 16 18 52 15.0000000  0  7G 2G 4G 5G 9G10G17G30
  20155337.045   105917005.58349  20155337.984    82532739.16949
  21887930.978   115021838.68748  21887935.149    89627421.23648
  20763351.746   109112149.21549  20763355.730    85022475.76149
  23785809.578   124995240.63947  23785817.444    97398905.37948
  22078123.594   116021341.03447  22078129.186    90406284.52548
  21219669.141   111510113.90349  21219673.082    86891022.84848
  22706520.522   119323589.18248  22706526.076    92979445.58648
  5  2 16 18 52 20.0000000  0  7G 2G 4G 5G 9G10G17G30
  20155588.608   105918327.52249  20155589.548    82533769.24749
  21890486.454   115035267.70848  21890490.624    89637885.38548
  20762208.096   109106139.32449  20762212.087    85017792.73049
  23788385.648   125008777.94347  23788393.520    97409453.91648
  22075088.658   116005392.40047  22075094.243    90393857.03648
  21218508.960   111504017.14549  21218512.895    86886272.13948
  22703643.626   119308471.01948  22703649.174    92967665.21348
  5  2 16 18 52 25.0000000  0  7G 2G 4G 5G 9G10G17G30
  20155900.589   105919967.02849  20155901.536    82535046.78849
  21893100.943   115049006.94248  21893105.106    89648591.28448
  20761125.388   109100449.65449  20761129.378    85013359.22249
  23791020.599   125022624.55147  23791028.486    97420243.44148
  22072113.518   115989757.99747  22072119.109    90381674.38848
  21217408.860   111498236.04749  21217412.787    86881767.37948
  22700826.447   119293666.58048  22700831.995    92956129.27648
  5  2 16 18 52 30.0000000  0  7G 2G 4G 5G 9G10G17G30
  20156185.054   105921461.87049  20156186.001    82536211.59249
  21895686.516   115062594.21748  21895690.678    89659178.76948
  20760015.669   109094618.04448  20760019.661    85008815.11349
  23793626.444   125036318.20047  23793634.344    97430913.77747
  22069110.222   115973975.60447  22069115.813    90369376.42548
  21216280.868   111492308.41248  21216284.802    86877148.43848
  22697980.986   119278713.70748  22697986.528    92944477.71848
  5  2 16 18 52 35.0000000  0  7G 2G 4G 5G 9G10G17G30
  20156471.270   105922965.91449  20156472.210    82537383.57249
  21898272.482   115076183.49748  21898276.643    89669767.80348
  20758908.209   109088798.30148  20758912.201    85004280.25049
  23796232.455   125050012.79048  23796240.362    97441584.85948
  22066108.031   115958199.13747  22066113.620    90357083.10448
  21215154.250   111486388.11949  21215158.176    86872535.24948
  22695136.566   119263766.27348  22695142.101    92932830.39348
  5  2 16 18 52 40.0000000  0  7G 2G 4G 5G 9G10G17G30
  20156817.837   105924787.16549  20156818.783    82538802.73049
  21900917.430   115090082.70148  21900921.606    89680598.32548
  20757861.645   109083298.53749  20757865.636    84999994.71049
  23798897.259   125064016.33147  23798905.179    97452496.68248
  22063165.592   115942736.58047  22063171.189    90345034.36948
  21214087.680   111480783.19248  21214091.606    86868167.76148
  22692351.824   119249132.38848  22692357.367    92921427.37248
  5  2 16 18 52 45.0000000  0  7G 2G 4G 5G 9G10G17G30
  20157107.506   105926309.32749  20157108.446    82539988.82149
  21903504.056   115103675.51548  21903508.238    89691190.12248
  20756758.680   109077502.42048  20756762.672    84995478.25648
  23801503.569   125077712.42947  23801511.497    97463168.93148
  22060165.608   115926971.64946  22060171.204    90332750.02748
  21212963.807   111474877.26049  21212967.732    86863565.74648
  22689509.458   119234195.68648  22689515.002    92909788.39348
  5  2 16 18 52 50.0000000  0  7G 2G 4G 5G 9G10G17G30
  20157428.153   105927994.33849  20157429.093    82541301.81749
  21906120.305   115117423.90248  21906124.495    89701903.13048
  20755687.224   109071871.87949  20755691.215    84991090.82249
  23804139.270   125091563.07048  23804147.211    97473961.61748
  22057195.983   115911366.22947  22057201.585    90320589.96748
  21211870.589   111469132.36548  21211874.515    86859089.20448
  22686697.365   119219418.12848  22686702.902    92898273.43848
  5  2 16 18 52 55.0000000  0  7G 2G 4G 5G 9G10G17G30
  20157721.145   105929534.01949  20157722.084    82542501.56349
  21908707.512   115131019.70248  21908711.715    89712497.24148
  20754588.641   109066098.78948  20754592.632    84986592.30649
  23806745.747   125105260.10447  23806753.688    97484634.60847
  22054198.109   115895612.32647  22054203.711    90308314.20348
  21210749.367   111463240.30049  21210753.291    86854497.98248
  22683856.942   119204491.60848  22683862.479    92886642.38448
  5  2 16 18 53  0.0000000  0  7G 2G 4G 5G 9G10G17G30
  20158045.052   105931236.16549  20158045.985    82543827.91549
  21911324.229   115144770.61148  21911328.440    89723212.22848
  20753521.511   109060490.98148  20753525.508    84982222.58049
  23809381.559   125119111.29847  23809389.494    97495427.73148
  22051230.539   115880017.69947  22051236.154    90296162.55348
  21209658.705   111457508.83548  21209662.623    86850031.91048
  22681046.744   119189723.91848  22681052.275    92875135.09748
  5  2 16 18 53  5.0000000  0  7G 2G 4G 5G 9G10G17G30
  20158341.281   105932792.79249  20158342.220    82545040.85749
  21913911.899   115158368.81548  21913916.118    89733808.21148
  20752427.209   109054740.41849  20752431.199    84977741.63248
  23811988.101   125132808.64348  23811996.042    97506100.95548
  22048234.657   115864274.33047  22048240.259    90283895.01948
  21208539.998   111451629.95748  21208543.922    86845450.95448
  22678208.146   119174807.04848  22678213.670    92863511.57648
  5  2 16 18 53 10.0000000  0  7G 2G 4G 5G 9G10G17G30
  20158668.352   105934511.62649  20158669.284    82546380.22249
  21916529.009   115172121.85249  21916533.229    89744524.87648
  20751364.316   109049154.87648  20751368.305    84973389.25749
  23814623.906   125146659.82648  23814631.847    97516894.07247
  22045269.048   115848690.01046  22045274.656    90271751.40448
  21207451.767   111445911.35948  21207455.684    86840994.92748
  22675399.752   119160048.80448  22675405.268    92852011.64148
  5  2 16 18 53 15.0000000  0  7G 2G 4G 5G 9G10G17G30
  20158967.666   105936084.43949  20158968.598    82547605.77049
  21919116.963   115185721.61248  21919121.190    89755122.08148
  20750274.174   109043426.10948  20750278.163    84968925.27848
  23817230.353   125160356.64648  23817238.302    97527566.88047
  22042275.050   115832956.50847  22042280.651    90259491.54848
  21206335.443   111440045.00448  21206339.360    86836423.73348
  22672562.877   119145140.95648  22672568.380    92840395.15548
  5  2 16 18 53 20.0000000  0  7G 2G 4G 5G 9G10G17G30
  20159297.745   105937819.04849  20159298.677    82548957.42049
  21921734.315   115199475.82848  21921738.556    89765839.63148
  20749215.349   109037861.97848  20749219.338    84964589.59549
  23819865.978   125174206.91547  23819873.918    97538359.29047
  22039311.247   115817381.68247  22039316.849    90247355.33548
  21205249.546   111434338.58048  21205253.464    86831977.17148
  22669756.100   119130391.34048  22669761.597    92828901.97148
  5  2 16 18 53 25.0000000  0  7G 2G 4G 5G 9G10G17G30
  20159600.002   105939407.35749  20159600.935    82550195.05149
  21924322.429   115213076.42748  21924326.663    89776437.49748
  20748129.243   109032154.45548  20748133.232    84960142.17349
  23822472.182   125187902.54748  23822480.129    97549031.19247
  22036319.026   115801657.51747  22036324.627    90235102.74948
  21204135.473   111428484.08348  21204139.383    86827415.22749
  22666920.832   119115491.90648  22666926.315    92817292.02848
  5  2 16 18 53 30.0000000  0  7G 2G 4G 5G 9G10G17G30
  20159932.987   105941157.20349  20159933.919    82551558.56849
  21926939.893   115226831.26348  21926944.135    89787155.54548
  20747074.425   109026611.28248  20747078.406    84955822.80948
  23825107.546   125201751.35247  23825115.492    97559822.43947
  22033356.967   115786091.85347  22033362.568    90222973.67748
  21203051.802   111422789.38748  21203055.712    86822977.80748
  22664115.629   119100750.46548  22664121.113    92805805.19348
  5  2 16 18 53 35.0000000  0  7G 2G 4G 5G 9G10G17G30
  20160238.077   105942760.42949  20160239.010    82552807.83149
  21929528.077   115240432.19848  21929532.326    89797753.66148
  20745992.233   109020924.39148  20745996.214    84951391.47549
  23827713.391   125215445.15847  23827721.336    97570492.93347
  22030366.423   115770376.50247  22030372.031    90210727.95848
  21201939.867   111416946.12748  21201943.784    86818424.61748
  22661281.831   119085858.88048  22661287.301    92794201.39748
  5  2 16 18 53 40.0000000  0  7G 2G 4G 5G 9G10G17G30
  20160573.811   105944524.72349  20160574.744    82554182.60549
  21932145.511   115254186.84248  21932149.767    89808471.54948
  20744941.257   109015401.47548  20744945.238    84947087.90249
  23830348.313   125229291.64647  23830356.259    97581282.37947
  22027405.935   115754819.15547  22027411.529    90198605.38348
  21200858.238   111411262.19048  21200862.154    86813995.58548
  22658478.045   119071124.88548  22658483.515    92782720.36248
  5  2 16 18 53 45.0000000  0  7G 2G 4G 5G 9G10G17G30
  20160881.554   105946141.92749  20160882.493    82555442.75749
  21934733.558   115267787.06248  21934737.828    89819069.10448
  20743862.833   109009734.34948  20743866.806    84942671.96849
  23832953.623   125242982.64047  23832961.568    97591950.68347
  22024416.907   115739111.74047  22024422.507    90186365.83748
  21199748.304   111405429.41948  21199752.222    86809450.56649
  22655645.595   119056240.32348  22655651.066    92771122.01748
  5  2 16 18 53 50.0000000  0  7G 2G 4G 5G 9G10G17G30
  20161219.897   105947919.93049  20161220.829    82556828.21749
  21937350.813   115281540.70249  21937355.091    89829786.20248
  20742815.574   109004230.90348  20742819.541    84938383.56049
  23835587.958   125256826.00747  23835595.902    97602737.68547
  22021457.880   115723562.04247  22021463.486    90174249.20448
  21198668.617   111399755.65548  21198672.540    86805029.45249
  22652843.092   119041513.06948  22652848.563    92759646.23648
  5  2 16 18 53 55.0000000  0  7G 2G 4G 5G 9G10G17G30
  20161559.508   105949704.53349  20161560.447    82558218.80149
  21939967.904   115295293.60748  21939972.197    89840502.74948
  20741770.118   108998736.96248  20741774.084    84934102.55749
  23838221.970   125270667.58647  23838229.915    97613523.27847
  22018499.550   115708015.97347  22018505.154    90162135.39248
  21197589.843   111394086.69048  21197593.766    86800612.08448
  22650041.182   119026788.99248  22650046.652    92748172.94148
  5  2 16 18 54  0.0000000  0  7G 2G 4G 5G 9G10G17G30
  20161900.343   105951495.63449  20161901.282    82559614.46449
  21942584.872   115309045.77548  21942589.173    89851218.70248
  20740726.451   108993252.45648  20740730.417    84929828.91749
  23840855.579   125284507.23147  23840863.530    97624307.39647
  22015541.884   115692473.46247  22015547.489    90150024.37348
  21196511.981   111388422.48848  21196515.905    86796198.42048
  22647239.878   119012068.04448  22647245.349    92736702.07648
  5  2 16 18 54  5.0000000  0  7G 2G 4G 5G 9G10G17G30
  20162213.069   105953139.02349  20162214.009    82560895.02749
  21945172.294   115322642.79948  21945176.609    89861813.78948
  20739655.246   108987623.23448  20739659.212    84925442.51049
  23843459.480   125298190.72747  23843467.431    97634969.84347
  22012555.563   115676780.30247  22012561.166    90137795.94548
  21195405.655   111382608.70848  21195409.581    86791668.20848
  22644409.801   118997195.94848  22644415.258    92725113.45148
  5  2 16 18 54 10.0000000  0  7G 2G 4G 5G 9G10G17G30
  20162585.579   105955096.54449  20162586.519    82562420.36549
  21947818.118   115336546.63548  21947822.440    89872647.93148
  20738644.386   108982311.10148  20738648.346    84921303.18249
  23846121.545   125312179.91447  23846129.489    97645870.49447
  22009628.465   115661398.32947  22009634.075    90125809.99648
  21194358.768   111377107.31048  21194362.694    86787381.41248
  22641638.838   118982634.50748  22641644.296    92713766.88648
  5  2 16 18 54 15.0000000  0  7G 2G 4G 5G 9G10G17G30
  20162929.912   105956906.02649  20162930.859    82563830.34649
  21950434.375   115350295.09948  21950438.698    89883361.00848
  20737605.907   108976853.88748  20737609.866    84917050.81349
  23848753.844   125326012.61147  23848761.800    97656649.18247
  22006672.638   115645865.44647  22006678.241    90113706.47548
  21193283.390   111371456.13048  21193287.322    86782977.88448
  22638839.085   118967921.70248  22638844.528    92702302.36748
  5  2 16 18 54 20.0000000  0  7G 2G 4G 5G 9G10G17G30
  20163216.745   105958413.31049  20163217.685    82565004.85049
  21952991.727   115363734.04248  21952996.057    89893832.90348
  20736510.504   108971097.50448  20736514.462    84912565.31849
  23851327.035   125339534.66747  23851334.992    97667185.81447
  22003658.768   115630027.48447  22003664.372    90101365.21448
  21192150.128   111365500.86048  21192154.060    86778337.42648
  22635981.196   118952903.36248  22635986.632    92690599.76048
  5  2 16 18 54 25.0000000  0  7G 2G 4G 5G 9G10G17G30
  20163592.566   105960388.26349  20163593.513    82566543.77149
  21955636.667   115377633.23348  21955641.003    89904663.42448
  20735504.673   108965811.79848  20735508.625    84908446.58149
  23853987.596   125353515.91547  23853995.566    97678080.26747
  22000733.354   115614654.35846  22000738.956    90089386.15748
  21191105.541   111360011.54748  21191109.473    86774060.04849
  22633211.660   118938349.38648  22633217.088    92679259.00448
  5  2 16 18 54 30.0000000  0  7G 2G 4G 5G 9G10G17G30
  20163910.800   105962060.59749  20163911.746    82567846.88549
  21958222.609   115391222.44848  21958226.945    89915252.42348
  20734441.820   108960226.50048  20734445.773    84904094.41249
  23856588.958   125367186.07147  23856596.935    97688732.31147
  21997749.791   115598975.78747  21997755.393    90077169.12348
  21190003.024   111354217.81648  21190006.963    86769545.45548
  22630383.910   118923489.46048  22630389.317    92667679.84948
  5  2 16 18 54 35.0000000  0  7G 2G 4G 5G 9G10G17G30
  20164288.650   105964046.17749  20164289.603    82569394.08349
  21960866.776   115405117.54748  21960871.119    89926079.74948
  20733439.161   108954957.45649  20733443.112    84899988.65349
  23859248.334   125381161.02847  23859256.323    97699621.84248
  21994825.342   115583607.67147  21994830.944    90065193.95948
  21188959.795   111348735.60849  21188963.734    86765273.60848
  22627615.149   118908939.52148  22627620.549    92656342.23548
  5  2 16 18 54 40.0000000  0  7G 2G 4G 5G 9G10G17G30
  20164638.186   105965882.97349  20164639.140    82570825.34849
  21963481.215   115418856.48648  21963485.565    89936785.40348
  20732408.767   108949542.70049  20732412.726    84895769.36349
  23861877.772   125394978.72647  23861885.768    97710388.85447
  21991872.040   115568088.02547  21991877.635    90053100.74848
  21187887.922   111343102.87948  21187891.868    86760884.46448
  22624817.446   118894237.52448  22624822.838    92644886.14048
  5  2 16 18 54 45.0000000  0  7G 2G 4G 5G 9G10G17G30
  20165017.975   105967878.77449  20165018.935    82572380.51449
  21966124.516   115432747.06648  21966128.873    89947609.21548
  20731409.210   108944290.02549  20731413.162    84891676.37849
  23864535.837   125408946.88847  23864543.840    97721273.12147
  21988948.450   115552724.55047  21988954.045    90041129.23148
  21186845.967   111337627.42948  21186849.913    86756617.89548
  22622049.366   118879691.25748  22622054.750    92633551.40848
  5  2 16 18 54 50.0000000  0  7G 2G 4G 5G 9G10G17G30
  20165369.380   105969725.39049  20165370.340    82573819.42549
  21968738.030   115446481.11048  21968742.400    89958311.04648
  20730381.846   108938891.19148  20730385.812    84887469.48749
  23867163.898   125422757.37947  23867171.907    97732034.52448
  21985995.963   115537209.19147  21986001.559    90029039.35448
  21185775.303   111332001.05449  21185779.249    86752233.70648
  22619252.291   118864992.59248  22619257.670    92622097.92548
  5  2 16 18 54 55.0000000  0  7G 2G 4G 5G 9G10G17G30
  20165692.343   105971422.57449  20165693.304    82575141.91049
  21971321.705   115460058.38348  21971326.095    89968890.72148
  20729326.636   108933346.02449  20729330.594    84883148.57949
  23869761.909   125436409.89548  23869769.926    97742672.82048
  21983014.523   115521541.68347  21983020.119    90016830.91948
  21184675.874   111326223.51649  21184679.819    86747731.72248
  22616426.156   118850141.24848  22616431.535    92610525.47048
  5  2 16 18 55  0.0000000  0  7G 2G 4G 5G 9G10G17G30
  20166074.775   105973432.30149  20166075.743    82576707.93449
  21973963.442   115473940.74048  21973967.832    89979708.12848
  20728331.494   108928116.48449  20728335.453    84879073.61249
  23872417.765   125450366.45047  23872425.782    97753548.04348
  21980092.051   115506184.01747  21980097.639    90004863.91748
  21183635.595   111320756.81148  21183639.540    86743471.95249
  22613658.894   118835599.24848  22613664.267    92599194.06448
  5  2 16 18 55  5.0000000  0  7G 2G 4G 5G 9G10G17G30
  20166458.026   105975446.26549  20166458.993    82578277.24949
  21976604.592   115487819.98748  21976609.003    89990523.09548
  20727337.747   108922894.34149  20727341.713    84875004.41149
  23875072.819   125464318.76147  23875080.842    97764419.94648
  21977169.870   115490827.91547  21977175.453    89992898.14448
  21182595.816   111315292.76949  21182599.767    86739214.25848
  22610891.833   118821058.30948  22610897.207    92587863.47948
  5  2 16 18 55 10.0000000  0  7G 2G 4G 5G 9G10G17G30
  20166812.794   105977310.55049  20166813.762    82579729.93349
  21979215.821   115501542.15048  21979220.239    90001215.70148
  20726316.120   108917525.65449  20726320.079    84870821.02249
  23877697.764   125478112.84648  23877705.801    97775168.55648
  21974218.710   115475319.49547  21974224.287    89980813.67548
  21181527.209   111309677.26449  21181531.161    86734838.55448
  22608095.697   118806364.57848  22608101.072    92576413.83348
  5  2 16 18 55 15.0000000  0  7G 2G 4G 5G 9G10G17G30
  20167168.333   105979178.92049  20167169.307    82581185.80349
  21981826.440   115515261.01448  21981830.865    90011905.71748
  20725295.873   108912164.22449  20725299.833    84866643.28548
  23880321.859   125491902.49748  23880329.902    97785913.71848
  21971267.836   115459812.54648  21971273.413    89968730.34348
  21180459.070   111304064.09049  21180463.014    86730464.64448
  22605299.754   118791671.79848  22605305.123    92564964.92348
  5  2 16 18 55 20.0000000  0  7G 2G 4G 5G 9G10G17G30
  20167524.586   105981051.01249  20167525.568    82582644.56749
  21984436.365   115528976.19748  21984440.796    90022592.85448
  20724276.942   108906809.67249  20724280.901    84862470.89949
  23882945.048   125505687.35548  23882953.105    97796655.13948
  21968317.159   115444306.73048  21968322.744    89956647.90648
  21179391.294   111298452.95549  21179395.245    86726092.33848
  22602503.933   118776979.59448  22602509.302    92553516.43848
  5  2 16 18 55 25.0000000  0  7G 2G 4G 5G 9G10G17G30
  20167910.858   105983080.85549  20167911.833    82584226.25849
  21987074.893   115542841.72348  21987079.331    90033397.15048
  20723288.630   108901616.05849  20723292.583    84858423.93249
  23885596.629   125519621.41248  23885604.691    97807512.81648
  21965396.026   115428956.07547  21965401.613    89944686.36248
  21178353.240   111292997.91148  21178357.184    86721841.65048
  22599737.546   118762442.00748  22599742.907    92542188.42348
  5  2 16 18 55 30.0000000  0  7G 2G 4G 5G 9G10G17G30
  20168268.474   105984960.14149  20168269.456    82585690.63449
  21989683.375   115556549.29848  21989687.813    90044078.35648
  20722272.268   108896275.04149  20722276.228    84854262.09849
  23888217.928   125533396.30248  23888225.997    97818246.46948
  21962445.730   115413452.22547  21962451.316    89932605.45248
  21177286.190   111287390.58849  21177290.140    86717472.31649
  22596941.895   118747750.79548  22596947.243    92530740.73848
  5  2 16 18 55 35.0000000  0  7G 2G 4G 5G 9G10G17G30
  20168656.022   105986996.71849  20168657.003    82587277.57449
  21992320.382   115570406.83248  21992324.840    90054876.41648
  20721286.446   108891094.50849  20721290.399    84850225.32449
  23890867.523   125547319.92748  23890875.598    97829096.01948
  21959524.883   115398103.16447  21959530.469    89920645.16748
  21176248.753   111281938.81849  21176252.703    86713224.18649
  22594175.590   118733213.79848  22594180.924    92519413.21748
  5  2 16 18 55 40.0000000  0  7G 2G 4G 5G 9G10G17G30
  20169044.169   105989036.44549  20169045.150    82588866.97249
  21994956.577   115584260.00348  21994961.042    90065671.06448
  20720301.824   108885920.28449  20720305.783    84846193.45548
  23893516.064   125561238.07447  23893524.147    97839941.31948
  21956604.172   115382754.72647  21956609.751    89908685.34748
  21175211.599   111276488.53649  21175215.549    86708977.21248
  22591409.294   118718676.87448  22591414.620    92508085.75848
  5  2 16 18 55 45.0000000  0  7G 2G 4G 5G 9G10G17G30
  20169432.889   105991079.18049  20169433.877    82590458.71149
  21997591.920   115598108.82448  21997596.392    90076462.35248
  20719318.399   108880752.32049  20719322.352    84842166.46748
  23896163.572   125575150.66748  23896171.662    97850782.26448
  21953683.533   115367406.78748  21953689.112    89896725.94248
  21174174.694   111271039.56449  21174178.637    86704731.26348
  22588642.993   118704139.92948  22588648.304    92496758.28348
  5  2 16 18 55 50.0000000  0  7G 2G 4G 5G 9G10G17G30
  20169792.811   105992970.55249  20169793.798    82591932.49849
  22000197.060   115611798.86848  22000201.552    90087129.89248
  20718306.794   108875436.27149  20718310.747    84838024.08548
  23898780.629   125588903.33147  23898788.724    97861498.60447
  21950733.640   115351905.02748  21950739.219    89884646.65548
  21173108.671   111265437.57549  21173112.621    86700366.07349
  22585847.327   118689448.66448  22585852.630    92485310.55748
  5  2 16 18 55 55.0000000  0  7G 2G 4G 5G 9G10G17G30
  20170182.510   105995018.46449  20170183.498    82593528.28349
  22002830.560   115625637.97248  22002835.052    90097913.59948
  20717325.576   108870280.00049  20717329.521    84834006.22249
  23901425.839   125602803.94147  23901433.942    97872330.23347
  21947813.070   115336557.32847  21947818.650    89872687.41148
  21172072.116   111259990.47849  21172076.060    86696121.59248
  22583080.867   118674910.94548  22583086.170    92473982.49148
  5  2 16 18 56  0.0000000  0  7G 2G 4G 5G 9G10G17G30
  20170572.633   105997068.54449  20170573.627    82595125.73749
  22005463.074   115639471.89348  22005467.572    90108693.26748
  20716345.408   108865129.15049  20716349.353    84829992.56449
  23904069.828   125616698.07047  23904077.937    97883156.79747
  21944892.411   115321209.31547  21944897.983    89860727.95748
  21171035.665   111254543.88848  21171039.609    86691877.49749
  22580314.268   118660372.40348  22580319.571    92462653.76448
  5  2 16 18 56  5.0000000  0  7G 2G 4G 5G 9G10G17G30
  20170933.843   105998966.68749  20170934.838    82596604.80349
  22008065.253   115653146.43648  22008069.744    90119348.75948
  20715336.950   108859829.63349  20715340.887    84825863.06648
  23906683.272   125630431.65647  23906691.388    97893858.25447
  21941942.411   115305706.96547  21941947.985    89848648.20748
  21169969.978   111248943.69848  21169973.922    86687513.71949
  22577518.200   118645678.96748  22577523.490    92451204.34148
  5  2 16 18 56 10.0000000  0  7G 2G 4G 5G 9G10G17G30
  20171354.038   106001174.82749  20171355.040    82598325.42749
  22010725.014   115667123.54248  22010729.504    90130240.00048
  20714388.093   108854843.38849  20714392.030    84821977.68749
  23909354.051   125644466.59947  23909362.174    97904794.54947
  21939050.929   115290512.18748  21939056.497    89836808.14248
  21168962.969   111243651.79949  21168966.914    86683390.15949
  22574780.547   118631292.56548  22574785.836    92439994.17048
  5  2 16 18 56 15.0000000  0  7G 2G 4G 5G 9G10G17G30
  20171715.932   106003076.56049  20171716.941    82599807.28849
  22013325.071   115680786.83948  22013329.568    90140886.70248
  20713381.564   108849554.01149  20713385.494    84817856.08948
  23911964.873   125658186.46947  23911972.997    97915485.33847
  21936100.686   115275008.58348  21936106.254    89824727.42348
  21167897.331   111238051.86248  21167901.282    86679026.57349
  22571984.027   118616596.81348  22571989.302    92428542.95448
  5  2 16 18 56 20.0000000  0  7G 2G 4G 5G 9G10G17G30
  20172136.719   106005287.78049  20172137.721    82601530.31449
  22015982.577   115694752.10048  22015987.081    90151768.71148
  20712434.559   108844577.43748  20712438.489    84813978.23249
  23914632.968   125672207.21647  23914641.112    97926410.54347
  21933208.895   115259812.15247  21933214.463    89812886.05148
  21166890.297   111232759.83249  21166894.242    86674902.91249
  22569245.865   118602207.70648  22569251.139    92417330.66548
  5  2 16 18 56 25.0000000  0  7G 2G 4G 5G 9G10G17G30
  20172557.734   106007500.22749  20172558.743    82603254.29749
  22018638.911   115708711.16748  22018643.421    90162645.88648
  20711488.413   108839605.43449  20711492.342    84810103.94849
  23917299.622   125686220.54347  23917307.765    97937330.01147
  21930316.884   115244614.59547  21930322.446    89801043.82148
  21165883.162   111227467.36749  21165887.107    86670778.92748
  22566507.382   118587816.94748  22566512.643    92406117.10848
  5  2 16 18 56 30.0000000  0  7G 2G 4G 5G 9G10G17G30
  20172920.373   106009405.90649  20172921.388    82604739.23849
  22021235.458   115722356.04748  22021239.975    90173278.24548
  20710484.527   108834329.98149  20710488.456    84805993.20448
  23919906.262   125699918.46647  23919914.412    97948003.69947
  21927366.061   115229107.94647  21927371.617    89788960.73248
  21164817.343   111221866.41749  21164821.288    86666414.54348
  22563709.977   118573116.51548  22563715.230    92394662.23048
  5  2 16 18 56 35.0000000  0  7G 2G 4G 5G 9G10G17G30
  20173312.492   106011466.51049  20173313.515    82606344.89949
  22023860.070   115736148.41548  22023864.593    90184025.52548
  20709510.768   108829212.81249  20709514.698    84802005.79748
  23922540.739   125713762.61246  23922548.895    97958791.31447
  21924444.278   115213753.96648  21924449.834    89776996.61248
  21163780.709   111216418.83649  21163784.653    86662169.66848
  22560941.527   118558568.21148  22560946.780    92383325.89248
  5  2 16 18 56 40.0000000  0  7G 2G 4G 5G 9G10G17G30
  20173734.057   106013681.84549  20173735.087    82608071.13449
  22026512.708   115750088.06048  22026517.237    90194887.56448
  20708567.085   108824253.72449  20708571.008    84798141.57448
  23925203.001   125727752.83046  23925211.158    97969692.77347
  21921551.534   115198552.49547  21921557.091    89765151.31448
  21162773.193   111211124.36549  21162777.131    86658044.12649
  22558201.972   118544171.81247  22558207.210    92372107.93648
  5  2 16 18 56 45.0000000  0  7G 2G 4G 5G 9G10G17G30
  20174126.389   106015743.56549  20174127.419    82609677.67049
  22029134.672   115763866.54148  22029139.200    90205624.03548
  20707594.807   108819144.39849  20707598.729    84794160.28548
  23927834.363   125741580.73146  23927842.519    97980467.75747
  21918629.094   115183195.12648  21918634.651    89753184.56548
  21161736.144   111205674.66748  21161740.083    86653797.61749
  22555432.644   118529618.92747  22555437.883    92360768.03648
  5  2 16 18 56 50.0000000  0  7G 2G 4G 5G 9G10G17G30
  20174548.096   106017959.61849  20174549.133    82611404.45349
  22031784.604   115777791.96648  22031789.145    90216474.99248
  20706652.543   108814192.76848  20706656.458    84790301.87548
  23930493.464   125755554.24946  23930501.635    97991356.17347
  21915735.628   115167989.85547  21915741.191    89741336.30148
  21160728.161   111200377.71548  21160732.100    86649670.12749
  22552692.154   118515217.58747  22552697.386    92349546.22148
  5  2 16 18 56 55.0000000  0  7G 2G 4G 5G 9G10G17G30
  20174940.512   106020021.74649  20174941.556    82613011.30049
  22034403.833   115791556.07748  22034408.381    90227200.26248
  20705681.653   108809090.64348  20705685.560    84786326.18048
  23933121.636   125769365.16346  23933129.819    98002117.86546
  21912812.457   115152628.48848  21912818.014    89729366.41048
  21159690.603   111194925.24848  21159694.541    86645421.43749
  22549921.838   118500659.57047  22549927.070    92338202.33448
  5  2 16 18 57  0.0000000  0  7G 2G 4G 5G 9G10G17G30
  20175391.514   106022391.78049  20175392.558    82614858.07749
  22037080.229   115805620.57248  22037084.770    90238159.59648
  20704769.988   108804299.77948  20704773.895    84782593.03148
  23935806.692   125783475.25946  23935814.882    98013112.74746
  21909947.437   115137572.76947  21909952.987    89717634.69548
  21158711.302   111189778.98948  21158715.241    86641411.36549
  22547209.585   118486406.71148  22547214.817    92327096.23648
  5  2 16 18 57  5.0000000  0  7G 2G 4G 5G 9G10G17G30
  20175813.141   106024607.44349  20175814.185    82616584.56949
  22039725.818   115819523.20148  22039730.358    90248992.80548
  20703829.595   108799358.04649  20703833.502    84778742.34149
  23938460.722   125797422.28346  23938468.913    98023980.56146
  21907052.639   115122360.56648  21907058.182    89705781.04948
  21157702.322   111184476.79249  21157706.255    86637279.79749
  22544467.454   118471996.77847  22544472.677    92315867.72748
  5  2 16 18 57 10.0000000  0  7G 2G 4G 5G 9G10G17G30
  20176205.339   106026668.45949  20176206.391    82618190.55449
  22042340.558   115833263.66048  22042345.105    90259699.63148
  20702860.443   108794265.08349  20702864.343    84774773.79648
  23941083.682   125811205.90446  23941091.886    98034721.01246
  21904128.006   115106991.54648  21904133.543    89693805.20448
  21156663.608   111179018.28348  21156667.541    86633026.40949
  22541695.373   118457429.45848  22541700.590    92304516.58548
  5  2 16 18 57 15.0000000  0  7G 2G 4G 5G 9G10G17G30
  20176626.700   106028882.72749  20176627.759    82619915.95649
  22044983.020   115847149.89148  22044987.566    90270520.06948
  20701921.101   108789328.81149  20701925.000    84770927.34648
  23943734.138   125825134.05246  23943742.357    98045574.08846
  21901232.125   115091773.62347  21901237.656    89681947.09248
  21155653.735   111173711.42348  21155657.668    86628891.20948
  22538951.958   118443012.65048  22538957.175    92293282.69648
  5  2 16 18 57 20.0000000  0  7G 2G 4G 5G 9G10G17G30
  20177047.889   106031096.08949  20177048.948    82621640.65549
  22047623.904   115861027.79948  22047628.449    90281334.01048
  20700982.242   108784395.07248  20700986.141    84767082.87548
  23946382.774   125839052.57045  23946391.006    98056419.64646
  21898335.656   115076552.70148  21898341.187    89670086.66248
  21154643.400   111168402.08148  21154647.333    86624754.05749
  22536207.836   118428592.25548  22536213.045    92282046.04048
  5  2 16 18 57 25.0000000  0  7G 2G 4G 5G 9G10G17G30
  20177468.873   106033308.37449  20177469.939    82623364.51049
  22050263.154   115874897.12248  22050267.692    90292141.26948
  20700043.836   108779463.71449  20700047.734    84763240.25748
  23949029.498   125852961.23145  23949037.744    98067257.56446
  21895438.616   115061328.62348  21895444.147    89658223.73748
  21153632.551   111163090.06449  21153636.484    86620614.83049
  22533463.005   118414168.10248  22533468.215    92270806.44948
  5  2 16 18 57 30.0000000  0  7G 2G 4G 5G 9G10G17G30
  20177889.620   106035519.38349  20177890.693    82625087.36549
  22052900.742   115888757.71048  22052905.279    90302941.71748
  20699105.852   108774534.60749  20699109.749    84759399.39548
  23951674.378   125866859.88645  23951682.650    98078087.60745
  21892540.927   115046101.19247  21892546.445    89646358.22348
  21152621.176   111157775.22249  21152625.109    86616473.38649
  22530717.424   118399740.03948  22530722.633    92259563.81248
  5  2 16 18 57 35.0000000  0  7G 2G 4G 5G 9G10G17G30
  20178368.683   106038036.87749  20178369.756    82627049.04949
  22055595.230   115902917.30548  22055599.772    90313975.15448
  20698226.858   108769915.49549  20698230.755    84755800.09448
  23954375.878   125881056.27445  23954384.151    98089149.70845
  21889701.176   115031178.19947  21889706.694    89634729.91848
  21151667.821   111152765.36948  21151671.760    86612569.61448
  22528029.655   118385615.87447  22528034.858    92248558.01048
  5  2 16 18 57 40.0000000  0  7G 2G 4G 5G 9G10G17G30
  20178788.843   106040244.77249  20178789.924    82628769.47249
  22058229.369   115916759.80248  22058233.904    90324761.51548
  20697289.633   108764990.28348  20697293.531    84751962.25248
  23957016.790   125894934.26345  23957025.082    98099963.69345
  21886802.115   115015943.62648  21886807.626    89622858.84348
  21150655.272   111147444.35748  21150659.212    86608423.36748
  22525282.485   118371179.49247  22525287.694    92237308.89748
  5  2 16 18 57 45.0000000  0  7G 2G 4G 5G 9G10G17G30
  20179179.336   106042296.85749  20179180.424    82630368.50449
  22060832.435   115930438.94248  22060836.970    90335420.57148
  20696323.411   108759912.78049  20696327.307    84748005.75949
  23959626.375   125908647.63145  23959634.675    98110649.41545
  21883873.018   115000551.21348  21883878.523    89610864.78248
  21149612.772   111141965.98248  21149616.705    86604154.50648
  22522505.174   118356584.71948  22522510.383    92225936.36548
  5  2 16 18 57 50.0000000  0  7G 2G 4G 5G 9G10G17G30
  20179628.029   106044654.75649  20179629.118    82632205.83149
  22063492.275   115944416.40548  22063496.810    90346312.07748
  20695416.069   108755144.63849  20695419.965    84744290.31648
  23962292.474   125922658.01745  23962300.769    98121566.59045
  21881001.754   114985462.67848  21881007.258    89599107.49648
  21148628.154   111136791.81349  21148632.087    86600122.69349
  22519785.588   118342293.22748  22519790.796    92214800.14348
  5  2 16 18 57 55.0000000  0  7G 2G 4G 5G 9G10G17G30
  20180046.988   106046856.39749  20180048.083    82633921.39349
  22066120.943   115958230.11348  22066125.483    90357075.99148
  20694479.659   108750223.79949  20694483.548    84740455.90548
  23964927.191   125936503.38845  23964935.493    98132355.15745
  21878100.390   114970215.90848  21878105.888    89587226.89948
  21147613.489   111131459.77249  21147617.428    86595967.86449
  22517035.790   118327842.97248  22517040.998    92203540.21048
  5  2 16 18 58  0.0000000  0  7G 2G 4G 5G 9G10G17G30
  20180524.121   106049363.71549  20180525.216    82635875.14149
  22068806.371   115972342.04348  22068810.919    90368072.28048
  20693602.109   108745612.21149  20693605.998    84736862.45249
  23967618.397   125950645.65045  23967626.700    98143375.07645
  21875256.841   114955272.89548  21875262.340    89575582.98248
  21146656.719   111126431.91349  21146660.659    86592050.05549
  22514343.672   118313695.79548  22514348.873    92192516.44148
  5  2 16 18 58  5.0000000  0  7G 2G 4G 5G 9G10G17G30
  20180942.170   106051560.57849  20180943.272    82637586.98049
  22071431.291   115986135.99648  22071435.853    90378820.78848
  20692666.152   108740693.72749  20692670.034    84733029.86848
  23970248.812   125964468.60445  23970257.114    98154146.21245
  21872353.818   114940017.50048  21872359.302    89563695.68748
  21145640.580   111121092.06549  21145644.526    86587889.13149
  22511591.989   118299235.63648  22511597.183    92181248.79348
  5  2 16 18 58 10.0000000  0  7G 2G 4G 5G 9G10G17G30
  20181389.015   106053908.76649  20181390.125    82639416.73549
  22074083.566   116000073.76448  22074088.129    90389681.38348
  20691759.689   108735930.19949  20691763.570    84729318.02148
  23972906.392   125978434.09345  23972914.707    98165028.36145
  21869479.257   114924911.58348  21869484.749    89551924.83948
  21144652.952   111115902.04649  21144656.892    86583844.96348
  22508868.649   118284924.39048  22508873.844    92170097.17448
  5  2 16 18 58 15.0000000  0  7G 2G 4G 5G 9G10G17G30
  20181835.341   106056254.19249  20181836.451    82641244.33449
  22076733.884   116014001.24848  22076738.460    90400533.95448
  20690853.373   108731167.50549  20690857.253    84725606.83349
  23975561.630   125992387.99644         0.000           0.00040
  21866603.799   114909801.01048  21866609.283    89540150.38048
  21143664.501   111110707.73349  21143668.448    86579797.45149
  22506144.294   118270607.87148  22506149.482    92158941.45948
  5  2 16 18 58 20.0000000  0  7G 2G 4G 5G 9G10G17G30
  20182281.129   106058596.82449  20182282.245    82643069.75549
  22079382.253   116027918.42848  22079386.837    90411378.48748
  20689947.221   108726405.64449  20689951.100    84721896.29148
  23978214.844   126006330.29244         0.000           0.00040
  21863727.459   114894685.83448  21863732.944    89528372.34548
  21142675.241   111105509.13849  21142679.188    86575746.59748
  22503418.921   118256286.09648  22503424.110    92147781.67348
  5  2 16 18 58 25.0000000  0  7G 2G 4G 5G 9G10G17G30
  20182755.656   106061090.48149  20182756.780    82645012.86549
  22082057.919   116041979.14548  22082062.515    90422334.88048
  20689070.506   108721798.44449  20689074.386    84718306.25948
  23980895.144   126020414.76944         0.000           0.00040
  21860879.523   114879719.86348  21860885.008    89516710.55848
  21141714.405   111100460.00448  21141718.351    86571812.22249
  22500721.853   118242112.93848  22500727.041    92136737.66048
  5  2 16 18 58 30.0000000  0  7G 2G 4G 5G 9G10G17G30
  20183171.014   106063273.20549  20183172.138    82646713.68849
  22084672.998   116055721.38348  22084677.600    90433043.09248
  20688135.308   108716883.94749  20688139.187    84714476.77848
  23983514.532   126034179.43444         0.000           0.00040
  21857972.066   114864441.13348  21857977.552    89504805.07348
  21140694.136   111095098.42349  21140698.081    86567634.35949
  22497965.145   118227626.46448  22497970.333    92125449.52548
  5  2 16 18 58 35.0000000  0  7G 2G 4G 5G 9G10G17G30
  20183615.070   106065606.70449  20183616.201    82648531.99149
  22087315.304   116069606.86148  22087319.906    90443862.95447
  20687229.487   108712123.85549  20687233.365    84710767.61848
  23986160.953   126048086.03344         0.000           0.00040
  21855092.951   114849311.37448  21855098.431    89493015.67748
  21139702.243   111089885.98749  21139706.189    86563572.72449
  22495236.675   118213288.29048  22495241.871    92114276.92848
  5  2 16 18 58 40.0000000  0  7G 2G 4G 5G 9G10G17G30
  20184087.825   106068091.01549  20184088.956    82650467.81249
  22089984.899   116083635.58348  22089989.507    90454794.39947
  20686353.076   108707518.25349  20686356.954    84707178.83249
  23988834.291   126062134.58344         0.000           0.00040
  21852242.232   114834330.68448  21852247.712    89481342.39848
  21138738.760   111084822.88249  21138742.705    86559627.45348
  22492536.457   118199098.57948  22492541.654    92103220.02348
  5  2 16 18 58 45.0000000  0  7G 2G 4G 5G 9G10G17G30
  20184530.636   106070418.00249  20184531.768    82652281.05049
  22092623.122   116097499.47448  22092627.723    90465597.42048
  20685447.425   108702758.99448  20685451.303    84703470.31148
  23991475.887   126076016.94944         0.000           0.00040
  21849361.209   114819190.90048  21849366.689    89469545.18348
  21137745.072   111079601.01949  21137749.011    86555558.47248
  22489805.858   118184749.18248  22489811.054    92092038.67448
  5  2 16 18 58 50.0000000  0  7G 2G 4G 5G 9G10G17G30
  20185002.097   106072895.54749  20185003.236    82654211.60349
  22095288.548   116111506.38348  22095293.155    90476511.88848
  20684571.119   108698153.97549  20684574.990    84699881.98549
  23994144.497   126090040.96644         0.000           0.00040
  21846508.536   114804200.00348  21846514.016    89457863.96448
  21136779.770   111074528.38149  21136783.714    86551605.77448
  22487103.457   118170548.00048  22487108.653    92080972.82648
  5  2 16 18 58 55.0000000  0  7G 2G 4G 5G 9G10G17G30
  20185443.625   106075215.79049  20185444.771    82656019.58349
  22097922.623   116125348.47948  22097927.224    90487297.92848
  20683665.584   108693395.38849  20683669.462    84696173.99949
  23996781.491   126103898.83843         0.000           0.00040
  21843625.589   114789050.07448  21843631.069    89446058.84148
  21135784.239   111069296.89649  21135788.178    86547529.31249
  22484370.671   118156187.20648  22484375.867    92069782.61548
  5  2 16 18 59  0.0000000  0  7G 2G 4G 5G 9G10G17G30
  20185913.813   106077686.61749  20185914.966    82657944.89349
  22100583.920   116139333.59748  22100588.528    90498195.39948
  20682789.419   108688791.10949  20682793.289    84692586.25049
  23999445.522   126117898.35243         0.000           0.00040
  21840770.999   114774049.07248  21840776.480    89434369.74748
  21134817.065   111064214.29949  21134821.010    86543568.82749
  22481666.118   118141974.68848  22481671.315    92058707.92848
  5  2 16 18 59  5.0000000  0  7G 2G 4G 5G 9G10G17G30
  20186412.628   106080307.93649  20186413.781    82659987.48749
  22103272.398   116153461.57748  22103277.019    90509204.19848
  20681942.601   108684341.05349  20681946.478    84689118.66948
  24002136.481   126132039.46844         0.000           0.00040
  21837944.707   114759196.90348  21837950.183    89422796.65548
  21133878.258   111059280.83549  21133882.202    86539724.56848
  22478989.751   118127910.34348  22478994.946    92047748.70848
  5  2 16 18 59 10.0000000  0  7G 2G 4G 5G 9G10G17G30
  20186852.166   106082617.69449  20186853.326    82661787.28749
  22105900.181   116167270.54848  22105904.811    90519964.40848
  20681037.215   108679583.21549  20681041.092    84685411.26248
  24004766.528   126145860.11644         0.000           0.00040
  21835058.826   114744031.52748  21835064.302    89410979.48848
  21132879.874   111054034.32249  21132883.811    86535636.38549
  22476253.695   118113532.24148  22476258.884    92036544.99048
  5  2 16 18 59 15.0000000  0  7G 2G 4G 5G 9G10G17G30
  20187349.638   106085231.92449  20187350.797    82663824.34949
  22108584.457   116181376.47948  22108589.093    90530956.03148
  20680190.492   108675133.62549  20680194.362    84681944.04748
  24007452.773   126159976.26844         0.000           0.00040
  21832230.601   114729169.04248  21832236.077    89399398.31648
  21131939.161   111049090.81149  21131943.099    86531784.29449
  22473575.141   118099456.34648  22473580.330    92025576.75948
  5  2 16 18 59 20.0000000  0  7G 2G 4G 5G 9G10G17G30
  20187787.827   106087534.62649  20187788.987    82665618.66349
  22111207.999   116195163.25848  22111212.643    90541698.97048
  20679285.189   108670376.25649  20679289.065    84678237.00648
  24010078.059   126173771.98844         0.000           0.00040
  21829342.753   114713993.42548  21829348.223    89387573.19448
  21130938.875   111043834.30549  21130942.806    86527688.32349
  22470836.876   118085066.72748  22470842.058    92014364.08648
  5  2 16 18 59 25.0000000  0  6G 2G 4G 5G10G17G30
  20188254.629   106089987.68649  20188255.796    82667530.13549
  22113858.707   116209092.75948  22113863.358    90552553.11148
  20678409.220   108665773.01149  20678413.096    84674650.06248
  21826483.232   114698966.57148  21826488.701    89375863.96348
  21129966.915   111038726.68449  21129970.845    86523708.37049
  22468126.803   118070825.20048  22468131.979    92003266.79748
  5  2 16 18 59 30.0000000  0  6G 2G 4G 5G10G17G30
  20188779.358   106092745.12549  20188780.533    82669678.78249
  22116565.923   116223319.17848  22116570.574    90563638.61548
  20677591.899   108661477.93049  20677595.775    84671303.23848
  21823681.342   114684242.57247  21823686.812    89364390.72648
  21129052.593   111033921.85748  21129056.523    86519964.34449
  22465474.236   118056885.89748  22465479.411    91992405.00648
  5  2 16 18 59 35.0000000  0  6G 2G 4G 5G10G17G30
  20189244.800   106095191.03749  20189245.974    82671584.68649
  22119212.410   116237226.50248  22119217.069    90574475.47448
  20676716.016   108656875.12948  20676719.884    84667716.64049
  21820819.867   114669205.50947  21820825.336    89352673.55448
  21128078.707   111028804.08248  21128082.643    86515976.46649
  22462761.980   118042632.92948  22462767.149    91981298.81048
  5  2 16 18 59 40.0000000  0  6G 2G 4G 5G10G17G30
  20189738.885   106097787.44449  20189740.060    82673607.85749
  22121886.091   116251276.81948  22121890.749    90585423.77748
  20675869.494   108652426.63049  20675873.356    84664250.28248
  21817986.766   114654317.46648  21817992.236    89341072.48048
  21127133.193   111023835.40549  21127137.122    86512104.78049
  22460077.949   118028528.28148  22460083.118    91970308.18148
  5  2 16 18 59 45.0000000  0  6G 2G 4G 5G10G17G30
  20190202.969   106100226.22149  20190204.145    82675508.20549
  22124528.345   116265161.86648  22124533.010    90596243.27148
  20674993.708   108647824.34349  20674997.576    84660664.07948
  21815123.370   114639270.28048  21815128.833    89329347.41848
  21126157.421   111018707.65349  21126161.350    86508109.12449
  22457363.511   118014263.81148  22457368.673    91959193.01348
  5  2 16 18 59 50.0000000  0  6G 2G 4G 5G10G17G30
  20190695.675   106102815.37549  20190696.857    82677525.71749
  22127197.757   116279189.72148  22127202.421    90607174.06348
  20674147.272   108643376.26048  20674151.141    84657198.03548
  21812288.313   114624371.98748  21812293.776    89317738.36448
  21125210.001   111013728.92949  21125213.930    86504229.59648
  22454677.277   118000147.61948  22454682.431    91948193.39848
  5  2 16 18 59 55.0000000  0  6G 2G 4G 5G10G17G30
  20191158.389   106105246.95349  20191159.571    82679420.45449
  22129835.755   116293052.42948  22129840.425    90617976.15248
  20673271.575   108638774.43948  20673275.443    84653612.19848
  21809422.987   114609314.65948  21809428.449    89306005.39448
  21124232.311   111008591.16448  21124236.247    86500226.14748
  22451960.676   117985871.78648  22451965.825    91937069.37848
  5  2 16 19  0  0.0000000  0  6G 2G 4G 5G10G17G30
  20191679.053   106107983.03049  20191680.236    82681552.45749
  22132530.245   116307212.04048  22132534.915    90629009.60848
  20672454.559   108634480.96048  20672458.420    84650266.62548
  21806615.328   114594560.37148  21806620.790    89294508.56348
  21123312.280   111003756.37249  21123316.209    86496458.77849
  22449301.622   117971898.36348  22449306.771    91926181.00048
  5  2 16 19  0  5.0000000  0  6G 2G 4G 5G10G17G30
  20192140.473   106110407.78049  20192141.663    82683441.86349
  22135164.066   116321052.77048  22135168.751    90639794.56948
  20671579.045   108629880.10249  20671582.904    84646681.53548
  21803748.179   114579493.43347  21803753.642    89282768.10148
  21122332.738   110998608.90249  21122336.673    86492447.77149
  22446582.935   117957611.56748  22446588.085    91915048.43248
  5  2 16 19  0 10.0000000  0  6G 2G 4G 5G10G17G30
  20192659.816   106113136.97349  20192660.998    82685568.51549
  22137854.366   116335190.36048  22137859.057    90650810.86248
  20670762.201   108625587.59049  20670766.054    84643336.73148
  21800938.674   114564729.51048  21800944.138    89271263.77548
  21121410.872   110993764.46749  21121414.800    86488672.88749
  22443921.779   117943627.18948  22443926.922    91904151.54048
  5  2 16 19  0 15.0000000  0  6G 2G 4G 5G10G17G30
  20193149.236   106115708.86349  20193150.426    82687572.57749
  22140513.292   116349163.01748  22140517.991    90661698.62648
  20669916.170   108621141.66949  20669920.030    84639872.37449
  21798099.007   114549806.92748  21798104.471    89259635.78548
  21120458.804   110988761.31449  21120462.731    86484774.32749
  22441230.306   117929483.46648  22441235.449    91893130.47148
  5  2 16 19  0 20.0000000  0  6G 2G 4G 5G10G17G30
  20193608.690   106118123.28149  20193609.887    82689453.93149
  22143140.803   116362970.67948  22143145.509    90672457.84148
  20669040.930   108616542.22249  20669044.789    84636288.38048
  21795229.116   114534725.58148  21795234.580    89247884.09148
  21119476.515   110983599.35349  21119480.442    86480752.01849
  22438508.498   117915180.29848  22438513.648    91881985.15248
  5  2 16 19  0 25.0000000  0  6G 2G 4G 5G10G17G30
  20194155.408   106120996.30349  20194156.612    82691692.64749
  22145854.139   116377229.29348  22145858.859    90683568.43148
  20668253.701   108612405.30449  20668257.553    84633064.80948
  21792446.250   114520101.52048  21792451.714    89236488.71948
  21118581.220   110978894.57849  21118585.140    86477085.96848
  22435873.578   117901333.76448  22435878.730    91871195.66448
  5  2 16 19  0 30.0000000  0  6G 2G 4G 5G10G17G30
  20194642.887   106123557.99049  20194644.085    82693688.76649
  22148506.795   116391169.03648  22148511.528    90694430.54548
  20667407.980   108607961.04349  20667411.839    84629601.75149
  21789603.881   114505164.83448  21789609.331    89224849.76248
  21117626.408   110973877.03449  21117630.327    86473176.19949
  22433179.026   117887173.89548  22433184.186    91860162.01948
  5  2 16 19  0 35.0000000  0  6G 2G 4G 5G10G17G30
  20195159.010   106126270.26449  20195160.207    82695802.23349
  22151186.666   116405251.75548  22151191.406    90705404.07048
  20666591.677   108603671.33849  20666595.528    84626259.12448
  21786789.929   114490377.45048  21786795.380    89213327.13548
  21116699.986   110969008.65649  21116703.905    86469382.65649
  22430512.757   117873162.67748  22430517.916    91849244.21548
  5  2 16 19  0 40.0000000  0  6G 2G 4G 5G10G17G30
  20195645.221   106128825.29349  20195646.426    82697793.15449
  22153835.155   116419169.62948  22153839.909    90716249.15548
  20665746.212   108599228.35949  20665750.056    84622797.06048
  21783945.805   114475431.56748  21783951.255    89201681.01248
  21115743.389   110963981.67249  21115747.308    86465465.52049
  22427816.219   117858992.27848  22427821.385    91838202.34348
  5  2 16 19  0 45.0000000  0  6G 2G 4G 5G10G17G30
  20196130.793   106131376.95849  20196131.998    82699781.45949
  22156481.566   116433076.48648  22156486.321    90727085.64248
  20664900.867   108594785.97949  20664904.711    84619335.45048
  21781100.813   114460481.09948  21781106.257    89190031.31348
  21114785.864   110958949.91049  21114789.784    86461544.67949
  22425118.679   117844816.60648  22425123.846    91827156.36948
  5  2 16 19  0 50.0000000  0  6G 2G 4G 5G10G17G30
  20196674.351   106134233.34149  20196675.555    82702007.20549
  22159184.498   116447280.49248  22159189.260    90738153.69748
  20664114.262   108590652.37149  20664118.105    84616114.46348
  21778313.580   114445834.15348  21778319.023    89178618.11948
  21113886.064   110954221.42649  21113889.984    86457860.14949
  22422478.766   117830943.80248  22422483.940    91816346.39448
  5  2 16 19  0 55.0000000  0  6G 2G 4G 5G10G17G30
  20197187.984   106136932.50449  20197189.195    82704110.44549
  22161856.082   116461319.66848  22161860.852    90749093.29248
  20663298.502   108586365.52549  20663302.338    84612774.06548
  21775496.196   114431028.72948  21775501.638    89167081.43148
  21112956.092   110949334.32949  21112960.012    86454052.00648
  22419808.580   117816911.91048  22419813.754    91805412.46348
  5  2 16 19  1  0.0000000  0  6G 2G 4G 5G10G17G30
  20197671.682   106139474.35449  20197672.894    82706091.10949
  22164496.280   116475193.93948  22164501.051    90759904.40348
  20662453.580   108581925.40249  20662457.416    84609314.21849
  21772648.680   114416064.87347  21772654.123    89155421.27148
  21111995.916   110944288.60349  21111999.837    86450120.28149
  22417108.111   117802720.84948  22417113.286    91794354.49848
  5  2 16 19  1  5.0000000  0  6G 2G 4G 5G10G17G30
  20198184.080   106142166.99049  20198185.298    82708189.25649
  22167163.714   116489211.30648  22167168.499    90770827.00048
  20661638.111   108577640.05149  20661641.941    84605974.98248
  21769829.602   114401250.61248  21769835.038    89143877.71448
  21111064.186   110939392.29549  21111068.106    86446304.96949
  22414435.958   117788678.68548  22414441.142    91783412.57548
  5  2 16 19  1 10.0000000  0  6G 2G 4G 5G10G17G30
  20198725.159   106145010.37949  20198726.378    82710404.88749
  22169858.382   116503371.82148  22169863.168    90781861.15848
  20660852.094   108573509.50549  20660855.917    84602756.37748
  21767039.004   114386585.98347  21767044.448    89132450.74348
  21110160.873   110934645.41849  21110164.800    86442606.11449
  22411792.158   117774785.48748  22411797.342    91772586.72148
  5  2 16 19  1 15.0000000  0  6G 2G 4G 5G10G17G30
  20199265.603   106147850.43349  20199266.829    82712617.91249
  22172550.967   116517521.44648  22172555.752    90792886.83948
  20660066.214   108569379.70749  20660070.035    84599538.35548
  21764247.571   114371916.96448  21764253.013    89121020.34748
  21109256.684   110929893.87149  21109260.611    86438903.61149
  22409147.397   117760887.20248  22409152.589    91761756.89948
  5  2 16 19  1 20.0000000  0  6G 2G 4G 5G10G17G30
  20199746.803   106150379.15549  20199748.028    82714588.34449
  22175182.876   116531352.12948  22175187.676    90803663.97148
  20659221.878   108564942.65949  20659225.691    84596080.90848
  21761396.689   114356935.54248  21761402.132    89109346.53048
  21108292.984   110924829.62549  21108296.918    86434957.44749
  22406443.034   117746675.77248  22406448.226    91750683.07948
  5  2 16 19  1 25.0000000  0  6G 2G 4G 5G10G17G30
  20200315.349   106153366.85549  20200316.575    82716916.41649
  22177900.656   116545634.13048  22177905.457    90814792.80048
  20658465.657   108560968.66249  20658469.471    84592984.28248
  21758632.936   114342412.01648  21758638.385    89098029.51148
  21107416.354   110920222.90148  21107420.280    86431367.79449
  22403825.697   117732921.54348  22403830.890    91739965.49348
  5  2 16 19  1 30.0000000  0  6G 2G 4G 5G10G17G30
  20200824.661   106156043.30649  20200825.886    82719001.96149
  22180557.752   116559597.19948  22180562.566    90825673.09448
  20657650.971   108556687.48749  20657654.784    84589648.30649
  21755809.769   114327576.17347  21755815.212    89086469.11948
  21106480.238   110915303.57848  21106484.171    86427534.55349
  22401148.798   117718854.34448  22401153.991    91729004.04048
  5  2 16 19  1 35.0000000  0  6G 2G 4G 5G10G17G30
  20201362.647   106158870.44049  20201363.879    82721204.91849
  22183242.087   116573703.34948  22183246.909    90836664.87248
  20656865.758   108552561.13549  20656869.565    84586432.96349
  21753015.081   114312889.98648  21753020.523    89075025.33348
  21105572.569   110910533.74848  21105576.502    86423817.80149
  22398500.242   117704936.08748  22398505.429    91718158.65148
  5  2 16 19  1 40.0000000  0  6G 2G 4G 5G10G17G30
  20201900.021   106161694.36249  20201901.253    82723405.37849
  22185924.335   116587798.59748  22185929.178    90847648.16048
  20656080.707   108548435.66249  20656084.513    84583218.30948
  21750219.581   114298199.59848  21750225.016    89063578.29348
  21104664.031   110905759.40949  21104667.964    86420097.55249
  22395850.753   117691012.89948  22395855.940    91707309.40548
  5  2 16 19  1 45.0000000  0  6G 2G 4G 5G10G17G30
  20202378.169   106164206.98549  20202379.402    82725363.25349
  22188545.903   116601574.96648  22188550.753    90858382.97848
  20655237.214   108544003.07949  20655241.013    84579764.34949
  21747364.649   114283196.92248  21747370.077    89051887.92048
  21103695.989   110900672.31749  21103699.922    86416133.58249
  22393141.697   117676776.77748  22393146.883    91696216.33248
  5  2 16 19  1 50.0000000  0  6G 2G 4G 5G10G17G30
  20202914.259   106167024.18949  20202915.485    82727558.48749
  22191224.008   116615648.37648  22191228.880    90869349.23948
  20654452.475   108539879.24549  20654456.267    84576550.97349
  21744567.525   114268497.90347  21744572.945    89040434.13348
  21102785.677   110895888.59249  21102789.616    86412405.99949
  22390490.299   117662843.64848  22390495.485    91685359.36348
  5  2 16 19  1 55.0000000  0  6G 2G 4G 5G10G17G30
  20203449.697   106169837.93249  20203450.928    82729751.00649
  22193899.974   116629710.61048  22193904.847    90880306.81548
  20653667.875   108535756.11249  20653671.660    84573338.14048
  21741769.541   114253794.49247  21741774.955    89028976.95748
  21101874.455   110891100.08949  21101878.395    86408674.70349
  22387837.929   117648905.44248  22387843.122    91674498.44448
  5  2 16 19  2  0.0000000  0  6G 2G 4G 5G10G17G30
  20204043.084   106172956.17349  20204044.323    82732180.79649
  22196632.437   116644069.73848  22196637.332    90891495.72748
  20652942.014   108531941.65549  20652945.798    84570365.82748
  21739029.343   114239394.65748  21739034.757    89017756.30448
  21101020.921   110886614.70449  21101024.861    86405179.59149
  22385243.176   117635270.05248  22385248.371    91663873.49548
  5  2 16 19  2  5.0000000  0  6G 2G 4G 5G10G17G30
  20204577.225   106175763.09949  20204578.463    82734368.01149
  22199304.210   116658109.87848  22199309.107    90902436.07548
  20652157.699   108527820.05449  20652161.477    84567154.19348
  21736229.730   114224682.65548  21736235.136    89006292.41948
  21100107.872   110881816.69649  21100111.819    86401440.89949
  22382588.889   117621321.74248  22382594.091    91653004.69748
  5  2 16 19  2 10.0000000  0  6G 2G 4G 5G10G17G30
  20205110.724   106178566.65849  20205111.963    82736552.60349
  22201973.884   116672139.01348  22201978.795    90913367.84648
  20651373.545   108523699.26749  20651377.323    84563943.18248
  21733429.315   114209966.43348  21733434.707    88994825.25448
  21099193.975   110877014.07248  21099197.923    86397698.58449
  22379933.659   117607368.47648  22379938.876    91642132.03548
  5  2 16 19  2 15.0000000  0  6G 2G 4G 5G10G17G30
  20205702.186   106181674.77949  20205703.418    82738974.51449
  22204700.060   116686465.07248  22204704.980    90924530.99048
  20650648.149   108519887.28749  20650651.920    84560972.80949
  21730686.711   114195553.92548  21730692.103    88983594.72048
  21098337.774   110872514.70549  21098341.728    86394192.58149
  22377336.099   117593718.17448  22377341.318    91631495.43548
  5  2 16 19  2 20.0000000  0  6G 2G 4G 5G10G17G30
  20206205.091   106184317.53249  20206206.324    82741033.79849
  22207336.195   116700318.08548  22207341.122    90935325.55448
  20649835.002   108515614.16649  20649838.771    84557643.10348
  21727855.372   114180675.22947  21727860.758    88972000.95748
  21097392.752   110867548.61449  21097396.700    86390322.90949
  22374649.685   117579601.03448  22374654.903    91620495.08048
  5  2 16 19  2 25.0000000  0  6G 2G 4G 5G10G17G30
  20206765.956   106187264.86449  20206767.196    82743330.41249
  22210028.861   116714468.05048  22210033.797    90946351.48048
  20649080.624   108511649.85649  20649084.394    84554554.02349
  21725081.851   114166100.27847  21725087.229    88960643.85348
  21096505.431   110862885.74049  21096509.385    86386689.50548
  22372020.944   117565786.93848  22372026.176    91609730.84948
  5  2 16 19  2 30.0000000  0  6G 2G 4G 5G10G17G30
  20207296.856   106190054.76349  20207298.097    82745504.36249
  22212690.110   116728452.97648  22212695.046    90957248.81948
  20648297.091   108507532.35749  20648300.853    84551345.58549
  21722278.219   114151367.12648  21722283.591    88949163.48848
  21095587.934   110858064.23248  21095591.896    86382932.47549
  22369361.955   117551813.88848  22369367.180    91598842.76848
  5  2 16 19  2 35.0000000  0  6G 2G 4G 5G10G17G30
  20207856.431   106192995.35349  20207857.679    82747795.72649
  22215378.569   116742580.89248  22215383.498    90968257.58248
  20647543.044   108503569.78349  20647546.799    84548257.86048
  21719503.113   114136783.87748  21719508.485    88937799.92348
  21094698.880   110853392.19149  21094702.835    86379291.92149
  22366731.359   117537990.04548  22366736.591    91588070.94748
  5  2 16 19  2 40.0000000  0  6G 2G 4G 5G10G17G30
  20208415.397   106195932.70849  20208416.645    82750084.56849
  22218064.953   116756697.86948  22218069.881    90979257.80948
  20646789.196   108499608.28949  20646792.952    84545170.98148
  21716727.241   114122196.63147  21716732.600    88926433.26048
  21093808.966   110848715.68949  21093812.928    86375647.89849
  22364099.866   117524161.48948  22364105.099    91577295.45848
  5  2 16 19  2 45.0000000  0  6G 2G 4G 5G10G17G30
  20208973.740   106198866.82049  20208974.988    82752370.89049
  22220749.251   116770803.91848  22220754.180    90990249.53348
  20646035.546   108495647.83049  20646039.295    84542084.91249
  21713950.614   114107605.39147  21713955.973    88915063.46948
  21092918.174   110844034.54749  21092922.136    86372000.25349
  22361467.474   117510328.20748  22361472.708    91566516.28648
  5  2 16 19  2 50.0000000  0  6G 2G 4G 5G10G17G30
  20209560.804   106201951.83049  20209562.060    82754774.78749
  22223460.802   116785053.12548  22223465.732    91001352.79148
  20645311.431   108491842.55049  20645315.180    84539119.75149
  21711202.572   114093164.36147  21711207.924    88903810.73048
  21092055.860   110839503.05748  21092059.822    86368469.22549
  22358863.526   117496644.39648  22358868.760    91555853.58648
  5  2 16 19  2 55.0000000  0  6G 2G 4G 5G10G17G30
  20210088.671   106204725.78949  20210089.926    82756936.31149
  22226111.705   116798983.65248  22226116.636    91012207.73648
  20644528.935   108487730.53849  20644532.677    84535915.59448
  21708395.215   114078411.63547  21708400.560    88892315.10948
  21091134.116   110834659.26149  21091138.078    86364694.83649
  22356200.120   117482648.13748  22356205.355    91544947.42048
  5  2 16 19  3  0.0000000  0  6G 2G 4G 5G10G17G30
  20210645.280   106207650.78749  20210646.536    82759215.53449
  22228789.892   116813057.55448  22228794.836    91023174.39448
  20643776.014   108483773.87549  20643779.754    84532832.47248
  21705616.471   114063809.26647  21705621.810    88880936.65348
  21090240.866   110829965.20048  21090244.836    86361037.12649
  22353565.179   117468801.45748  22353570.415    91534157.81148
  5  2 16 19  3  5.0000000  0  6G 2G 4G 5G10G17G30
  20211259.954   106210880.88949  20211261.210    82761732.49049
  22231524.689   116827428.88548  22231529.648    91034372.80248
  20643081.974   108480126.67549  20643085.715    84529990.49748
  21702895.659   114049511.33247  21702900.990    88869795.41248
  21089405.437   110825575.02149  21089409.399    86357616.21649
  22350988.024   117455258.50948  22350993.267    91523604.88348
  5  2 16 19  3 10.0000000  0  6G 2G 4G 5G10G17G30
  20211815.490   106213800.28649  20211816.746    82764007.35249
  22234198.908   116841481.90648  22234203.881    91045323.18548
  20642329.637   108476173.11749  20642333.378    84526909.80249
  21700115.603   114034902.10447  21700120.927    88858411.61248
  21088510.657   110820872.88949  21088514.627    86353952.21048
  22348351.506   117441403.54848  22348356.749    91512808.81348
  5  2 16 19  3 15.0000000  0  6G 2G 4G 5G10G17G30
  20212370.533   106216717.02149  20212371.789    82766280.12849
  22236871.145   116855524.54448  22236876.139    91056265.47948
  20641577.623   108472221.25649  20641581.357    84523830.43448
  21697334.940   114020289.65347  21697340.250    88847025.29948
  21087615.114   110816166.84049  21087619.083    86350285.17149
  22345714.230   117427544.63248  22345719.467    91502009.67948
  5  2 16 19  3 20.0000000  0  6G 2G 4G 5G10G17G30
  20212954.393   106219785.19949  20212955.656    82768670.90249
  22239570.746   116869710.98048  22239575.761    91067319.82548
  20640855.269   108468425.19449  20640858.995    84520872.45249
  21694582.985   114005828.06148  21694588.295    88835756.53448
  21086748.183   110811611.02249  21086752.151    86346735.16949
  22343105.537   117413835.82448  22343110.781    91491327.48648
  5  2 16 19  3 25.0000000  0  6G 2G 4G 5G10G17G30
  20213537.792   106222850.97849  20213539.048    82771059.82749
  22242268.428   116883887.30148  22242273.459    91078366.28948
  20640133.266   108464631.11049  20640136.993    84517916.03548
  21691830.451   113991363.52347  21691835.754    88824485.49548
  21085880.547   110807051.59949  21085884.510    86343182.38449
  22340496.130   117400123.30048  22340501.369    91480642.41048
  5  2 16 19  3 30.0000000  0  6G 2G 4G 5G10G17G30
  20214091.432   106225760.37949  20214092.688    82773326.89149
  22244934.880   116897899.57348  22244939.918    91089284.93148
  20639382.365   108460685.06349  20639386.092    84514841.18948
  21689048.090   113976742.08647  21689053.385    88813092.16048
  21084982.929   110802334.55549  21084986.899    86339506.75649
  22337856.716   117386253.11348  22337861.955    91469834.48048
  5  2 16 19  3 35.0000000  0  6G 2G 4G 5G10G17G30
  20214673.968   106228821.59449  20214675.232    82775712.24749
  22247628.755   116912055.98048  22247633.801    91100315.89948
  20638661.182   108456895.22349  20638664.908    84511888.06348
  21686294.488   113962271.96648  21686299.776    88801816.78048
  21084113.963   110797768.10449  21084117.926    86335948.48749
  22335245.948   117372533.46648  22335251.180    91459143.85748
  5  2 16 19  3 40.0000000  0  6G 2G 4G 5G10G17G30
  20215285.451   106232034.92749  20215286.721    82778216.13149
  22250350.114   116926356.72448  22250355.160    91111459.31748
  20637969.783   108453261.89849  20637973.510    84509056.90348
  21683569.771   113947953.45148  21683575.059    88790659.48648
  21083273.689   110793352.49849  21083277.652    86332507.77049
  22332663.879   117358964.66948  22332669.118    91448570.77848
  5  2 16 19  3 45.0000000  0  6G 2G 4G 5G10G17G30
  20215837.977   106234938.47349  20215839.241    82780478.63949
  22253011.056   116940340.03648  22253016.095    91122355.40148
  20637220.285   108449323.26049  20637224.005    84505987.83549
  21680786.002   113933324.70948  21680791.290    88779260.48048
  21082374.264   110788625.95849  21082378.222    86328824.75249
  22330022.625   117345084.87848  22330027.864    91437755.37548
  5  2 16 19  3 50.0000000  0  6G 2G 4G 5G10G17G30
  20216448.796   106238148.31349  20216450.067    82782979.80649
  22255728.832   116954621.95248  22255733.872    91133484.14948
  20636529.915   108445695.33649  20636533.640    84503160.87649
  21678060.426   113919001.80647  21678065.701    88768099.80448
  21081532.906   110784204.52948  21081536.871    86325379.46749
  22327439.450   117331510.19848  22327444.695    91427177.69848
  5  2 16 19  3 55.0000000  0  6G 2G 4G 5G10G17G30
  20217000.707   106241048.63049  20217001.979    82785239.79249
  22258386.240   116968586.69648  22258391.279    91144365.75648
  20635781.509   108441762.40949  20635785.229    84500096.25748
  21675275.885   113904368.97647  21675281.152    88756697.60748
  21080632.397   110779472.38649  21080636.355    86321692.09649
  22324797.145   117317624.85448  22324802.390    91416357.96548
  5  2 16 19  4  0.0000000  0  6G 2G 4G 5G10G17G30
  20217581.681   106244101.66849  20217582.952    82787618.77949
  22261071.255   116982696.51248  22261076.293    91155360.40948
  20635063.007   108437986.62249  20635066.733    84497154.07548
  21672520.334   113889888.48748  21672525.600    88745414.11448
  21079760.741   110774891.77049  21079764.706    86318122.77849
  22322183.702   117303891.09248  22322188.942    91405656.33348
  5  2 16 19  4  5.0000000  0  6G 2G 4G 5G10G17G30
  20218191.741   106247307.52149  20218193.019    82790116.84149
  22263783.881   116996951.36548  22263788.920    91166468.06848
  20634374.428   108434368.11849  20634378.148    84494334.46548
  21669793.781   113875560.41448  21669799.041    88734249.40148
  21078917.929   110770462.76549  21078921.887    86314671.60749
  22319599.090   117290308.95848  22319604.331    91395072.87648
  5  2 16 19  4 10.0000000  0  6G 2G 4G 5G10G17G30
  20218801.603   106250512.40249  20218802.880    82792614.15149
  22266494.846   117011197.58148  22266499.884    91177569.01348
  20633686.514   108430753.13549  20633690.240    84491517.59648
  21667066.982   113861231.02148  21667072.242    88723083.64648
  21078074.704   110766031.61848  21078078.661    86311218.77149
  22317014.085   117276724.66648  22317019.320    91384487.72048
  5  2 16 19  4 15.0000000  0  6G 2G 4G 5G10G17G30
  20219382.048   106253562.59849  20219383.326    82794990.91749
  22269174.923   117025281.35748  22269179.963    91188543.36148
  20632970.029   108426987.98349  20632973.747    84488583.71148
  21664310.675   113846746.62547  21664315.928    88711797.12648
  21077201.827   110761444.61748  21077205.785    86307644.48649
  22314399.432   117262984.60348  22314404.666    91373781.18148
  5  2 16 19  4 20.0000000  0  6G 2G 4G 5G10G17G30
  20219991.672   106256766.18949  20219992.949    82797487.22149
  22271882.719   117039510.85648  22271887.764    91199631.26348
  20632283.594   108423380.71049  20632287.313    84485772.84648
  21661583.521   113832415.30247  21661588.767    88700629.86048
  21076357.925   110757009.85249  21076361.884    86304188.82349
  22311813.774   117249396.87348  22311819.007    91363193.34048
  5  2 16 19  4 25.0000000  0  6G 2G 4G 5G10G17G30
  20220571.934   106259815.49149  20220573.218    82799863.29749
  22274559.677   117053578.30548  22274564.724    91210592.90448
  20631568.656   108419623.68549  20631572.374    84482845.29148
  21658826.920   113817929.36148  21658832.172    88689342.12748
  21075484.424   110752419.63249  21075488.382    86300612.04049
  22309198.556   117235653.81048  22309203.789    91352484.46048
  5  2 16 19  4 30.0000000  0  6G 2G 4G 5G10G17G30
  20221152.153   106262864.55849  20221153.430    82802239.19749
  22277235.127   117067637.83048  22277240.181    91221548.35848
  20630854.555   108415871.02549  20630858.273    84479921.13548
  21656070.238   113803442.96248  21656075.484    88678054.04348
  21074610.665   110747827.96949  21074614.617    86297034.11849
  22306583.103   117221909.48248  22306588.330    91341774.59148
  5  2 16 19  4 35.0000000  0  6G 2G 4G 5G10G17G30
  20221761.651   106266067.43449  20221762.935    82804734.92649
  22279938.379   117081843.45048  22279943.440    91232617.65948
  20630170.577   108412276.72849  20630174.294    84477120.38649
  21653342.781   113789110.11047  21653348.026    88666885.58848
  21073765.961   110743389.02148  21073769.913    86293575.19849
  22303996.712   117208317.93848  22304001.932    91331183.78648
  5  2 16 19  4 40.0000000  0  6G 2G 4G 5G10G17G30
  20222400.464   106269424.41749  20222401.748    82807350.75749
  22282669.478   117096195.44148  22282674.539    91243801.02148
  20629516.792   108408841.06549  20629520.510    84474443.24849
  21650644.595   113774931.14047  21650649.840    88655837.06248
  21072950.348   110739102.97349  21072954.298    86290235.42349
  22301439.454   117194879.48748  22301444.668    91320712.28148
  5  2 16 19  4 45.0000000  0  6G 2G 4G 5G10G17G30
  20223010.026   106272627.71849  20223011.316    82809846.83749
  22285369.876   117110386.06848  22285374.945    91254858.63948
  20628834.636   108405256.31249  20628838.353    84471649.93249
  21647917.122   113760598.23247  21647922.358    88644668.57448
  21072105.281   110734662.08849  21072109.226    86286774.99249
  22298852.756   117181286.33148  22298857.971    91310120.21948
  5  2 16 19  4 50.0000000  0  6G 2G 4G 5G10G17G30
  20223590.390   106275677.49049  20223591.680    82812223.26949
  22288039.579   117124415.39048  22288044.648    91265790.56148
  20628124.131   108401522.58249  20628127.855    84468740.53148
  21645160.408   113746111.66547  21645165.644    88633380.35348
  21071230.764   110730066.49849  21071234.715    86283194.01649
  22296236.634   117167538.67148  22296241.842    91299407.79448
  5  2 16 19  4 55.0000000  0  6G 2G 4G 5G10G17G30
  20224229.484   106279035.95149  20224230.774    82814840.25049
  22290766.558   117138745.69548  22290771.639    91276957.01148
  20627473.253   108398102.16749  20627476.972    84466075.27449
  21642462.400   113731933.60248  21642467.622    88622332.53048
  21070414.784   110725778.49649  21070418.729    86279852.72149
  22293679.091   117154098.75548  22293684.306    91288935.14448
  5  2 16 19  5  0.0000000  0  6G 2G 4G 5G10G17G30
  20224810.121   106282087.18949  20224811.418    82817217.82949
  22293433.621   117152761.11448  22293438.709    91287878.09348
  20626764.786   108394379.14749  20626768.498    84463174.22049
  21639705.902   113717448.16948  21639711.117    88611045.19648
  21069540.119   110721182.09849  21069544.063    86276271.11249
  22291062.914   117140350.68148  22291068.122    91278222.37248
  5  2 16 19  5  5.0000000  0  6G 2G 4G 5G10G17G30
  20225420.251   106285293.44449  20225421.555    82819716.20549
  22296128.695   117166923.75948  22296133.783    91298913.90548
  20626086.699   108390815.77249  20626090.417    84460397.56249
  21636978.881   113703117.61148  21636984.089    88599878.53548
  21068694.732   110716739.55949  21068698.669    86272809.39349
  22288476.059   117126756.69848  22288481.275    91267629.66448
  5  2 16 19  5 10.0000000  0  6G 2G 4G 5G10G17G30
  20226059.896   106288654.79849  20226061.199    82822335.44249
  22298851.802   117181233.75348  22298856.897    91310064.54248
  20625439.010   108387412.11749  20625442.729    84457745.35549
  21634281.347   113688942.03248  21634286.554    88588832.64448
  21067878.628   110712450.93849  21067882.565    86269467.61849
  22285918.552   117113316.87848  22285923.761    91257157.07348
  5  2 16 19  5 15.0000000  0  6G 2G 4G 5G10G17G30
  20226670.504   106291863.56549  20226671.813    82824835.77249
  22301544.414   117195383.46448  22301549.509    91321090.27548
  20624763.158   108383860.51949  20624766.877    84454977.88549
  21631554.755   113674613.82348  21631559.970    88577667.83048
  21067033.282   110708008.64349  21067037.225    86266006.09149
  22283331.838   117099723.60548  22283337.047    91246564.91248
  5  2 16 19  5 20.0000000  0  6G 2G 4G 5G10G17G30
  20227281.413   106295073.91649  20227282.730    82827337.34449
  22304235.870   117209527.03448  22304240.966    91332111.21548
  20624088.515   108380315.18549  20624092.235    84452215.27749
  21628828.470   113660287.12848  21628833.685    88566504.18148
  21066188.034   110703566.83749  21066191.971    86262544.94649
  22280745.266   117086131.10848  22280750.475    91235973.36248
  5  2 16 19  5 25.0000000  0  6G 2G 4G 5G10G17G30
  20227921.954   106298439.95149  20227923.277    82829960.21549
  22306955.455   117223818.51848  22306960.550    91343247.42548
  20623444.370   108376930.20949  20623448.089    84449577.63949
  21626131.797   113646116.10948  21626137.019    88555461.84648
  21065372.207   110699279.63949  21065376.157    86259204.26549
  22278188.146   117072693.44448  22278193.347    91225502.47748
  5  2 16 19  5 30.0000000  0  6G 2G 4G 5G10G17G30
  20228533.553   106301653.98449  20228534.875    82832464.66949
  22309644.639   117237950.21348  22309649.735    91354259.12648
  20622772.191   108373397.91749  20622775.910    84446825.20949
  21623406.204   113631793.02148  21623411.426    88544300.99748
  21064527.225   110694839.28849  21064531.168    86255744.26949
  22275601.950   117059102.92648  22275607.145    91214912.47448
  5  2 16 19  5 35.0000000  0  6G 2G 4G 5G10G17G30
  20229145.581   106304870.18449  20229146.904    82834970.79349
  22312332.759   117252076.34648  22312337.848    91365266.50048
  20622101.333   108369872.50349  20622105.059    84444078.12549
  21620681.011   113617472.10147  21620686.227    88533141.85748
  21063682.451   110690399.97049  21063686.400    86252285.05649
  22273016.008   117045513.74048  22273021.202    91204323.50148
  5  2 16 19  5 40.0000000  0  6G 2G 4G 5G10G17G30
  20229787.367   106308242.72949  20229788.696    82837598.73249
  22315049.167   117266351.10348  22315054.263    91376389.67248
  20621461.115   108366508.13349  20621464.834    84441456.54148
  21617985.565   113603307.52648  21617990.773    88522104.54948
  21062867.227   110686115.94149  21062871.169    86248946.85249
  22270459.675   117032080.17948  22270464.863    91193855.81248
  5  2 16 19  5 45.0000000  0  6G 2G 4G 5G10G17G30
  20230429.634   106311617.86449  20230430.969    82840228.70149
  22317764.605   117280620.73348  22317769.708    91387508.83948
  20620822.295   108363151.05449  20620826.015    84438840.62248
  21615290.641   113589145.63948  21615295.856    88511069.31448
  21062052.288   110681833.37949  21062056.239    86245609.78549
  22267903.699   117018648.43948  22267908.887    91183389.52048
  5  2 16 19  5 50.0000000  0  6G 2G 4G 5G10G17G30
  20231043.119   106314841.78149  20231044.455    82842740.85449
  22320449.773   117294731.38648  22320454.875    91398504.14948
  20620155.591   108359647.49649  20620159.310    84436110.57849
  21612566.933   113574832.58048  21612572.154    88499916.30548
  21061208.358   110677398.49349  21061212.302    86242154.03649
  22265318.795   117005064.67248  22265323.982    91172804.76648
  5  2 16 19  5 55.0000000  0  6G 2G 4G 5G10G17G30
  20231715.790   106318376.66249  20231717.132    82845495.29249
  22323192.658   117309145.28648  22323197.754    91409735.75048
  20619548.974   108356459.64349  20619552.687    84433626.52548
  21609902.426   113560830.53348  21609907.641    88489005.63248
  21060423.406   110673273.51249  21060427.351    86238939.76049
  22262792.931   116991791.20048  22262798.104    91162461.80948
  5  2 16 19  6  0.0000000  0  6G 2G 4G 5G10G17G30
  20232330.457   106321606.75649  20232331.799    82848012.24949
  22325876.073   117323246.63148  22325881.176    91420723.78848
  20618885.260   108352971.76949  20618888.973    84430908.69749
  21607179.936   113546523.81248  21607185.150    88477857.55048
  21059580.238   110668842.63749  21059584.183    86235487.12849
  22260208.933   116978212.20248  22260214.100    91151880.77748
  5  2 16 19  6  5.0000000  0  6G 2G 4G 5G10G17G30
  20232945.772   106324840.23049  20232947.120    82850531.82449
  22328558.642   117337343.59248  22328563.750    91431708.41948
  20618223.081   108349492.02949  20618226.787    84428197.21849
  21604458.127   113532220.61248  21604463.335    88466712.20348
  21058737.504   110664414.10049  21058741.448    86232036.33449
  22257625.446   116964635.91448  22257630.612    91141301.85548
  5  2 16 19  6 10.0000000  0  6G 2G 4G 5G10G17G30
  20233620.367   106328385.27849  20233621.714    82853294.20749
  22331299.040   117351744.39148  22331304.149    91442929.80248
  20617621.115   108346328.64549  20617624.821    84425732.23549
  21601795.631   113518229.16548  21601800.840    88455809.79148
  21057953.866   110660296.05749  21057957.818    86228827.46749
  22255101.092   116951370.53148  22255106.249    91130965.23248
  5  2 16 19  6 15.0000000  0  6G 2G 4G 5G10G17G30
  20234266.409   106331780.25149  20234267.750    82855939.64449
  22334009.392   117365987.29048  22334014.502    91454028.14848
  20616991.496   108343019.97249  20616995.201    84423154.04949
  21599104.590   113504087.77048  21599109.798    88444790.55148
  21057141.472   110656026.86549  21057145.424    86225500.81849
  22252548.083   116937954.37948  22252553.247    91120511.08548
  5  2 16 19  6 20.0000000  0  6G 2G 4G 5G10G17G30
  20234883.901   106335025.16749  20234885.242    82858468.14249
  22336689.699   117380072.36848  22336694.808    91465003.52148
  20616334.233   108339566.03249  20616337.939    84420462.66749
  21596385.059   113489796.54348  21596390.267    88433654.52848
  21056300.305   110651606.53549  21056304.257    86222056.41449
  22249966.388   116924387.54248  22249971.552    91109939.53748
  5  2 16 19  6 25.0000000  0  6G 2G 4G 5G10G17G30
  20235560.830   106338582.41749  20235562.163    82861240.02049
  22339427.978   117394462.02848  22339433.088    91476216.22648
  20615737.330   108336429.25549  20615741.036    84418018.41848
  21593724.989   113475817.84047  21593730.204    88422762.04348
  21055518.372   110647497.44948  21055522.317    86218854.53049
  22247444.032   116911132.47648  22247449.190    91099610.91748
  5  2 16 19  6 30.0000000  0  6G 2G 4G 5G10G17G30
  20236179.980   106341836.07449  20236181.319    82863775.33149
  22342107.005   117408540.38048  22342112.114    91487186.36248
  20615083.563   108332993.71749  20615087.262    84415341.38649
  21591007.198   113461535.78247  21591012.406    88411633.17948
  21054678.470   110643083.76349  21054682.415    86215415.30449
  22244863.793   116897573.22848  22244868.951    91089045.27148
  5  2 16 19  6 35.0000000  0  6G 2G 4G 5G10G17G30
  20236829.321   106345248.38349  20236830.653    82866434.27349
  22344814.776   117422769.65648  22344819.892    91498274.07248
  20614460.919   108329721.66949  20614464.624    84412791.72648
  21588319.644   113447412.65648  21588324.853    88400628.15848
  21053868.567   110638827.69549  21053872.519    86212098.88249
  22242313.635   116884172.02548  22242318.792    91078602.76548
  5  2 16 19  6 40.0000000  0  6G 2G 4G 5G10G17G30
  20237508.879   106348819.48549  20237510.210    82869216.94649
  22347551.253   117437149.90648  22347556.376    91509479.45348
  20613869.411   108326613.27549  20613873.109    84410369.60248
  21585662.369   113433448.64448  21585667.570    88389747.12448
  21053088.694   110634729.40249  21053092.639    86208905.40549
  22239793.564   116870929.05648  22239798.714    91068283.58948
  5  2 16 19  6 45.0000000  0  6G 2G 4G 5G10G17G30
  20238130.816   106352087.75749  20238132.141    82871763.64949
  22350228.643   117451219.56148  22350233.767    91520442.79648
  20613221.204   108323206.92449  20613224.895    84407715.30749
  21582947.514   113419182.07948  21582952.708    88378630.34348
  21052250.964   110630327.16548  21052254.910    86205475.10549
  22237215.772   116857382.70048  22237220.921    91057727.98948
  5  2 16 19  6 50.0000000  0  6G 2G 4G 5G10G17G30
  20238812.375   106355669.34249  20238813.699    82874554.48749
  22352964.161   117465594.77348  22352969.292    91531644.25148
  20612633.544   108320118.71949  20612637.242    84405308.90349
  21580292.346   113405229.10648  21580297.540    88367757.90748
  21051472.677   110626237.20848  21051476.629    86202288.11549
  22234697.500   116844149.18348  22234702.647    91047416.17548
  5  2 16 19  6 55.0000000  0  6G 2G 4G 5G10G17G30
  20239494.978   106359256.47649  20239496.301    82877349.65849
  22355699.240   117479967.67948  22355704.370    91542843.90848
  20612047.882   108317040.98049  20612051.573    84402910.65548
  21577638.309   113391282.04648  21577643.497    88356890.07248
  21050695.239   110622151.77749  21050699.185    86199104.67249
  22232180.196   116830920.72148  22232185.343    91037108.29648
  5  2 16 19  7  0.0000000  0  6G 2G 4G 5G10G17G30
  20240149.375   106362695.35549  20240150.698    82880029.30349
  22358404.650   117494184.61148  22358409.787    91553922.01348
  20611434.925   108313819.89949  20611438.615    84400400.72549
  21574956.124   113377187.10048  21574961.312    88345907.00448
  21049889.403   110617917.07749  21049893.355    86195804.90349
  22229634.602   116817543.53548  22229639.749    91026684.51748
  5  2 16 19  7  5.0000000  0  6G 2G 4G 5G10G17G30
  20240804.937   106366140.35649  20240806.260    82882713.71949
  22361109.743   117508399.87748  22361114.881    91564998.82848
  20610824.074   108310609.82549  20610827.758    84397899.36849
  21572275.167   113363098.67448  21572280.356    88334929.03348
  21049084.538   110613687.42249  21049088.491    86192509.05849
  22227090.079   116804172.01148  22227095.219    91016265.15448
  5  2 16 19  7 10.0000000  0  6G 2G 4G 5G10G17G30
  20241461.684   106369591.58749  20241463.007    82885402.99049
  22363814.536   117522613.59848  22363819.667    91576074.44048
  20610215.345   108307410.90249  20610219.028    84395406.68949
  21569595.481   113349016.85848  21569600.663    88323956.20048
  21048280.649   110609463.02149  21048284.609    86189217.32749
  22224546.658   116790806.24448  22224551.799    91005850.27448
  5  2 16 19  7 15.0000000  0  6G 2G 4G 5G10G17G30
  20242148.946   106373203.17249  20242150.275    82888217.20549
  22366548.379   117536979.97848  22366553.509    91587269.00747
  20609638.077   108304377.30749  20609641.752    84393042.84249
  21566946.380   113335095.80348  21566951.555    88313108.64248
  21047507.099   110605397.98649  21047511.052    86186049.76948
  22222033.670   116777600.46448  22222038.809    90995560.06348
  5  2 16 19  7 20.0000000  0  6G 2G 4G 5G10G17G30
  20242778.845   106376513.28149  20242780.181    82890796.50249
  22369223.359   117551037.06248  22369228.489    91598222.57048
  20609004.370   108301047.15549  20609008.046    84390447.92049
  21564240.000   113320873.74147  21564245.182    88302026.52748
  21046675.988   110601030.47149  21046679.942    86182646.51349
  22219463.255   116764092.80848  22219468.385    90985034.60548
  5  2 16 19  7 25.0000000  0  6G 2G 4G 5G10G17G30
  20243497.987   106380292.42749  20243499.322    82893741.29749
  22371986.113   117565555.40048  22371991.242    91609535.55047
  20608460.871   108298190.98949  20608464.534    84388222.32949
  21561622.970   113307121.21648  21561628.145    88291310.29148
  21045933.935   110597131.01749  21045937.889    86179607.99149
  22216982.013   116751053.79848  22216987.129    90974874.34048
  5  2 16 19  7 30.0000000  0  6G 2G 4G 5G10G17G30
  20244130.542   106383616.43549  20244131.877    82896331.41049
  22374660.789   117579610.79648  22374665.924    91620487.76947
  20607831.704   108294884.69149  20607835.366    84385645.99048
  21558919.432   113292914.06048  21558924.593    88280239.79248
  21045105.109   110592775.44349  21045109.070    86176214.02449
  22214414.088   116737559.28848  22214419.203    90964359.14348
  5  2 16 19  7 35.0000000  0  6G 2G 4G 5G10G17G30
  20244793.762   106387101.71249  20244795.097    82899047.21849
  22377364.677   117593819.76048  22377369.811    91631559.67447
  20607234.173   108291744.64649  20607237.835    84383199.20349
  21556246.679   113278868.68048  21556251.841    88269295.34848
  21044306.758   110588580.11048  21044310.719    86172944.94349
  22211876.782   116724225.71848  22211881.891    90953969.36748
  5  2 16 19  7 40.0000000  0  6G 2G 4G 5G10G17G30
  20245487.724   106390748.50849  20245489.066    82901888.87049
  22380097.798   117608182.34148  22380102.924    91642751.28147
  20606668.331   108288771.09449  20606671.986    84380882.14448
  21553604.749   113264985.33548  21553609.902    88258477.17848
  21043538.935   110584545.20748  21043542.896    86169800.86649
  22209370.146   116711053.28848  22209375.250    90943705.15248
  5  2 16 19  7 45.0000000  0  6G 2G 4G 5G10G17G30
  20246183.153   106394403.01049  20246184.495    82904736.53949
  22382830.898   117622544.87948  22382836.016    91653942.86947
  20606104.916   108285810.29449  20606108.564    84378575.02549
  21550964.413   113251110.27748  21550969.560    88247665.44948
  21042772.409   110580517.05449  21042776.377    86166662.03749
  22206864.912   116697888.32248  22206870.017    90933446.76948
  5  2 16 19  7 50.0000000  0  6G 2G 4G 5G10G17G30
  20246880.066   106398065.28149  20246881.408    82907590.24849
  22385563.988   117636907.39648  22385569.092    91665134.45147
  20605543.921   108282862.24849  20605547.568    84376277.84149
  21548325.663   113237243.55248  21548330.810    88236860.21048
  21042007.162   110576495.68749  21042011.138    86163528.50949
  22204361.119   116684730.80048  22204366.225    90923194.16048
  5  2 16 19  7 55.0000000  0  6G 2G 4G 5G10G17G30
  20247519.871   106401427.48149  20247521.220    82910210.14049
  22388238.512   117650961.95948  22388243.608    91676086.02547
  20604926.781   108279619.15649  20604930.428    84373750.75849
  21545629.902   113223077.32948  21545635.043    88225821.62048
  21041184.632   110572173.29349  21041188.601    86160160.42049
  22201800.162   116671272.94448  22201805.276    90912707.53248
  5  2 16 19  8  0.0000000  0  6G 2G 4G 5G10G17G30
  20248249.154   106405259.88849  20248250.509    82913196.42749
  22391001.012   117665478.96348  22391006.101    91687397.97147
  20604400.085   108276851.28449  20604403.725    84371593.96448
  21543023.740   113209381.91848  21543028.867    88215149.88848
  21040451.404   110568320.12348  21040455.380    86157157.94049
  22199328.650   116658285.02748  22199333.757    90902587.07448
  5  2 16 19  8  5.0000000  0  6G 2G 4G 5G10G17G30
  20248921.412   106408792.59549  20248922.775    82915949.17949
  22393705.003   117679688.47248  22393710.079    91698470.30747
  20603817.304   108273788.75049  20603820.937    84369207.57849
  21540360.674   113195387.44248  21540365.800    88204245.10648
  21039660.956   110564166.32248  21039664.925    86153921.22449
  22196800.075   116644997.18548  22196805.183    90892232.89148
  5  2 16 19  8 10.0000000  0  6G 2G 4G 5G10G17G30
  20249624.568   106412487.70749  20249625.931    82918828.48649
  22396438.428   117694052.55848  22396443.502    91709663.06248
  20603266.398   108270893.68848  20603270.038    84366951.67549
  21537728.638   113181556.03048  21537733.758    88193467.39448
  21038901.238   110560173.94348  21038905.213    86150810.26949
  22194302.359   116631871.53248  22194307.451    90882005.09948
  5  2 16 19  8 15.0000000  0  6G 2G 4G 5G10G17G30
  20250270.742   106415883.40349  20250272.105    82921474.49149
  22399113.359   117708109.44648  22399118.432    91720616.48347
  20602659.468   108267704.28249  20602663.101    84364466.43349
  21535039.751   113167425.86348  21535044.864    88182456.88648
  21038084.350   110555881.20348  21038088.334    86147465.28249
  22191747.613   116618446.25548  22191752.699    90871543.84648
  5  2 16 19  8 20.0000000  0  6G 2G 4G 5G10G17G30
  20251006.501   106419749.81149  20251007.878    82924487.26549
  22401876.388   117722629.23248  22401881.446    91731930.59647
  20602143.081   108264990.65249  20602146.714    84362351.91549
  21532440.562   113153767.09648  21532445.668    88171813.70948
  21037356.856   110552058.19249  21037360.839    86144486.31349
  22189282.401   116605491.50948  22189287.479    90861449.24548
  5  2 16 19  8 25.0000000  0  6G 2G 4G 5G10G17G30
  20251685.359   106423317.20249  20251686.736    82927267.04649
  22404581.047   117736842.18548  22404586.104    91743005.59447
  20601570.769   108261983.10049  20601574.403    84360008.36249
  21529784.615   113139810.06248  21529789.721    88160938.11048
  21036572.274   110547935.21949  21036576.257    86141273.61249
  22186760.241   116592237.59548  22186765.312    90851121.54848
  5  2 16 19  8 30.0000000  0  6G 2G 4G 5G10G17G30
  20252395.243   106427047.63749  20252396.627    82930173.86749
  22407315.245   117751210.46248  22407320.294    91754201.64547
  20601030.459   108259143.71949  20601034.092    84357795.85049
  21527159.839   113126016.80548  21527164.939    88150190.12848
  21035818.553   110543974.35849  21035822.537    86138187.22349
  22184269.096   116579146.59948  22184274.167    90840920.79048
  5  2 16 19  8 35.0000000  0  6G 2G 4G 5G10G17G30
  20253077.589   106430633.39249  20253078.980    82932967.95849
  22410020.425   117765426.24848  22410025.460    91765278.87647
  20600463.583   108256164.79949  20600467.216    84355474.61849
  21524507.670   113112079.65548  21524512.762    88139330.03348
  21035037.111   110539867.91248  21035041.094    86134987.40649
  22181750.403   116565910.84148  22181755.474    90830607.22748
  5  2 16 19  8 40.0000000  0  6G 2G 4G 5G10G17G30
  20253791.033   106434382.53449  20253792.425    82935889.36449
  22412755.190   117779797.56648  22412760.215    91776477.30647
  20599928.791   108253354.41749  20599932.431    84353284.70249
  21521886.763   113098306.69848  21521891.849    88128597.86648
  21034286.591   110535923.90549  21034290.574    86131914.15449
  22179262.798   116552838.41848  22179267.871    90820420.93748
  5  2 16 19  8 45.0000000  0  6G 2G 4G 5G10G17G30
  20254506.299   106438141.28049  20254507.697    82938818.25349
  22415490.330   117794170.66648  22415495.354    91787677.08647
  20599396.802   108250558.76449  20599400.442    84351106.26449
  21519267.833   113084544.15948  21519272.920    88117873.81948
  21033537.728   110531988.57149  21033541.719    86128847.65449
  22176777.015   116539775.51048  22176782.096    90810242.04448
  5  2 16 19  8 50.0000000  0  6G 2G 4G 5G10G17G30
  20255164.827   106441601.86849  20255166.225    82941514.81549
  22418167.205   117808237.83648  22418172.214    91798638.53547
  20598809.050   108247470.10449  20598812.683    84348699.51949
  21516592.310   113070484.31248  21516597.389    88106918.12448
  21032731.935   110527754.16148  21032735.925    86125548.12749
  22174234.479   116526414.39248  22174239.554    90799830.79148
  5  2 16 19  8 55.0000000  0  6G 2G 4G 5G10G17G30
  20255913.145   106445534.27449  20255914.551    82944579.02149
  22420932.427   117822768.98648  22420937.434    91809961.46447
  20598312.071   108244858.40149  20598315.704    84346664.41349
  21514006.751   113056897.11048  21514011.823    88096330.69548
  21032015.768   110523990.65149  21032019.766    86122615.51149
  22171781.713   116513525.05448  22171786.789    90789787.15948
  5  2 16 19  9  0.0000000  0  6G 2G 4G 5G10G17G30
  20256575.412   106449014.54349  20256576.824    82947290.92049
  22423610.104   117836840.21148  22423615.117    91820926.03247
  20597730.027   108241799.77049  20597733.667    84344281.06849
  21511335.317   113042858.66148  21511340.383    88085391.65648
  21031213.387   110519774.10748  21031217.378    86119329.89949
  22169242.908   116500183.51248  22169247.976    90779391.14348
  5  2 16 19  9  5.0000000  0  6G 2G 4G 5G10G17G30
  20257327.537   106452966.95449  20257328.949    82950370.71449
  22426376.149   117851375.81148  22426381.153    91832252.45747
  20597238.824   108239218.44849  20597242.457    84342269.64549
  21508753.882   113029293.22348  21508758.941    88074821.20848
  21030500.666   110516028.79748  21030504.657    86116411.48749
  22166793.944   116487314.11648  22166799.003    90769363.04148
  5  2 16 19  9 10.0000000  0  6G 2G 4G 5G10G17G30
  20258022.989   106456621.58249  20258024.408    82953218.47249
  22429084.028   117865605.72248  22429089.038    91843340.66847
  20596691.933   108236344.52049  20596695.567    84340030.22149
  21506115.947   113015430.87248  21506120.998    88064019.39848
  21029731.111   110511984.69348  21029735.109    86113260.22349
  22164288.313   116474146.93948  22164293.365    90759102.90048
  5  2 16 19  9 15.0000000  0  6G 2G 4G 5G10G17G30
  20258720.404   106460286.52349  20258721.830    82956074.26449
  22431792.374   117879838.17548  22431797.383    91854430.88947
  20596148.010   108233486.15349  20596151.651    84337802.91448
  21503480.179   113001579.85048  21503485.222    88053226.39948
  21028963.348   110507950.07348  21028967.353    86110116.35949
  22161784.650   116460990.13148  22161789.694    90748850.85048
  5  2 16 19  9 20.0000000  0  6G 2G 4G 5G10G17G30
  20259478.435   106464269.96949  20259479.860    82959178.24249
  22434559.854   117894381.25648  22434564.870    91865763.12947
  20595665.679   108230951.48449  20595669.312    84335827.84848
  21500905.198   112988048.23648  21500910.235    88042682.28848
  21028256.008   110504233.01049  21028260.006    86107219.95749
  22159341.603   116448151.86548  22159346.640    90738847.01448
  5  2 16 19  9 25.0000000  0  6G 2G 4G 5G10G17G30
  20260150.552   106467801.96949  20260151.984    82961930.44649
  22437239.915   117908465.03648  22437244.923    91876737.49647
  20595098.441   108227970.59949  20595102.075    84333505.07649
  21498244.475   112974066.13548  21498249.511    88031787.16048
  21027462.610   110500063.61049  21027466.616    86103971.06249
  22156812.663   116434862.22948  22156817.693    90728491.46548
  5  2 16 19  9 30.0000000  0  6G 2G 4G 5G10G17G30
  20260883.294   106471652.52449  20260884.726    82964930.87149
  22439979.104   117922859.54548  22439984.119    91887953.98547
  20594592.816   108225313.52049  20594596.449    84331434.62349
  21495644.574   112960403.59148  21495649.602    88021141.03248
  21026729.645   110496211.88549  21026733.652    86100969.72749
  22154344.347   116421891.20248  22154349.372    90718384.19348
  5  2 16 19  9 35.0000000  0  6G 2G 4G 5G10G17G30
  20261647.380   106475667.85049  20261648.817    82968059.69649
  22442748.195   117937411.05648  22442753.203    91899292.79447
  20594119.547   108222826.47849  20594123.188    84329496.66449
  21493076.222   112946906.84748  21493081.238    88010624.10448
  21026027.865   110492524.06849  21026031.872    86098096.11749
  22151907.417   116409085.08048  22151912.448    90708405.40048
  5  2 16 19  9 40.0000000  0  6G 2G 4G 5G10G17G30
  20262325.604   106479231.91249  20262327.049    82970836.87949
  22445429.874   117951503.37548  22445434.881    91910273.81947
  20593561.414   108219893.40349  20593565.047    84327211.14249
  21490422.176   112932959.86348  21490427.191    87999756.34948
  21025240.044   110488384.07349  21025244.057    86094870.14949
  22149384.627   116395827.85148  22149389.658    90698075.11948
  5  2 16 19  9 45.0000000  0  6G 2G 4G 5G10G17G30
  20263093.793   106483268.77049  20263095.244    82973982.47849
  22448200.066   117966060.73848  22448205.065    91921617.19847
  20593094.243   108217438.43449  20593097.876    84325298.18449
  21487858.331   112919486.76548  21487863.332    87989257.83848
  21024542.042   110484716.01549  21024546.055    86092011.91649
  22146951.855   116383043.61548  22146956.894    90688113.38848
  5  2 16 19  9 50.0000000  0  6G 2G 4G 5G10G17G30
  20263805.443   106487008.48949  20263806.895    82976896.53749
  22450912.222   117980313.15348  22450917.214    91932722.96347
  20592571.552   108214691.61349  20592575.192    84323157.78749
  21485238.138   112905717.62148  21485243.132    87978528.65048
  21023787.338   110480749.98749  21023791.360    86088921.50149
  22144462.595   116369962.43248  22144467.633    90677920.25248
  5  2 16 19  9 55.0000000  0  6G 2G 4G 5G10G17G30
  20264548.448   106490913.03649  20264549.906    82979939.04249
  22453654.244   117994722.57548  22453659.228    91943951.08447
  20592081.221   108212114.90949  20592084.862    84321149.96749
  21482649.519   112892114.37048  21482654.513    87967928.71848
  21023063.815   110476947.88049  21023067.836    86085958.82549
  22142004.738   116357046.24148  22142009.774    90667855.66848
  5  2 16 19 10  0.0000000  0  6G 2G 4G 5G10G17G30
  20265234.957   106494520.60349  20265236.415    82982750.12149
  22456338.289   118008827.20448  22456343.266    91954941.67747
  20591535.408   108209246.61149  20591539.042    84318914.92749
  21480004.608   112878215.32948  21480009.595    87957098.31748
  21022283.623   110472847.97849  21022287.645    86082764.10449
  22139490.424   116343833.34048  22139495.448    90657559.89048
  5  2 16 19 10  5.0000000  0  6G 2G 4G 5G10G17G30
  20266011.453   106498601.14849  20266012.910    82985929.77149
  22459110.839   118023397.01848  22459115.807    91966294.76947
  20591080.603   108206856.62449  20591084.237    84317052.60749
  21477449.927   112864790.42148  21477454.907    87946637.36048
  21021593.281   110469220.17148  21021597.311    86079937.23849
  22137066.135   116331093.61848  22137071.152    90647632.83348
  5  2 16 19 10 10.0000000  0  6G 2G 4G 5G10G17G30
  20266731.457   106502384.76549  20266732.922    82988878.03449
  22461825.385   118037662.02748  22461830.347    91977410.35547
  20590570.315   108204175.01149  20590573.949    84314963.03049
  21474838.956   112851069.77048  21474843.930    87935945.96948
  21020846.264   110465294.56949  21020850.301    86076878.32549
  22134585.373   116318057.18448  22134590.374    90637474.58848
  5  2 16 19 10 15.0000000  0  6G 2G 4G 5G10G17G30
  20267482.899   106506333.61949  20267484.370    82991955.06049
  22464569.894   118052084.42248  22464574.842    91988648.57247
  20590092.497   108201664.02749  20590096.131    84313006.41549
  21472259.660   112837515.50948  21472264.620    87925384.21948
  21020130.530   110461533.39649  21020134.568    86073947.55149
  22132136.112   116305186.29648  22132141.107    90627445.34248
  5  2 16 19 10 20.0000000  0  6G 2G 4G 5G10G17G30
  20268207.166   106510139.63349  20268208.636    82994920.77649
  22467285.717   118066356.16948  22467290.657    91999769.41147
  20589588.506   108199015.53849  20589592.140    84310942.65649
  21469653.419   112823819.62048  21469658.379    87914712.09848
  21019387.472   110457628.56949  21019391.510    86070904.82349
  22129659.713   116292172.85548  22129664.714    90617305.02248
  5  2 16 19 10 25.0000000  0  6G 2G 4G 5G10G17G30
  20268933.584   106513957.01749  20268935.061    82997895.36549
  22470002.240   118080631.47048  22470007.186    92010892.98947
  20589087.700   108196383.78449  20589091.334    84308891.94149
  21467049.560   112810136.37548  21467054.506    87904049.86148
  21018646.414   110453734.31349  21018650.452    86067870.34449
  22127185.555   116279171.13048  22127190.563    90607173.82048
  5  2 16 19 10 30.0000000  0  6G 2G 4G 5G10G17G30
  20269720.814   106518093.90749  20269722.290    83001118.90649
  22472778.056   118095218.44948  22472782.994    92022259.45847
  20588648.729   108194076.91649  20588652.371    84307094.36549
  21464506.763   112796773.85748  21464511.709    87893637.50248
  21017966.006   110450158.74549  21017970.052    86065084.18949
  22124772.262   116266489.22148  22124777.279    90597291.82348
  5  2 16 19 10 35.0000000  0  6G 2G 4G 5G10G17G30
  20270422.325   106521780.34549  20270423.802    83003991.44949
  22475466.662   118109347.10948  22475471.600    92033268.78747
  20588125.063   108191325.02949  20588128.705    84304950.03949
  21461878.479   112782962.19448  21461883.418    87882875.18548
  21017199.728   110446131.92449  21017203.773    86061946.40649
  22122273.328   116253357.23448  22122278.346    90587059.11148
  5  2 16 19 10 40.0000000  0  6G 2G 4G 5G10G17G30
  20271213.958   106525940.40449  20271215.442    83007233.05249
  22478243.919   118123941.59848  22478248.855    92044641.08947
  20587692.552   108189052.14049  20587696.195    84303178.95549
  21459340.570   112769625.45348  21459345.501    87872482.93248
  21016523.409   110442577.84449  21016527.455    86059176.99549
  22119864.608   116240699.23048  22119869.633    90577195.70848
  5  2 16 19 10 45.0000000  0  6G 2G 4G 5G10G17G30
  20271919.929   106529650.30749  20271921.413    83010123.88349
  22480934.005   118138077.99948  22480938.941    92055656.44647
  20587175.396   108186334.49549  20587179.039    84301061.31549
  21456717.248   112755839.83548  21456722.173    87861740.90548
  21015761.259   110438572.75049  21015765.306    86056056.15449
  22117370.261   116227591.38247  22117375.272    90566981.81248
  5  2 16 19 10 50.0000000  0  6G 2G 4G 5G10G17G30
  20272716.089   106533834.12349  20272717.579    83013383.98949
  22483712.765   118152680.42148  22483717.701    92067034.94048
  20586749.465   108184096.15049  20586753.115    84299317.13549
  21454184.363   112742529.46248  21454189.281    87851369.19648
  21015089.143   110435040.75849  21015093.191    86053303.95649
  22114966.181   116214957.85748  22114971.192    90557137.50448
  5  2 16 19 10 55.0000000  0  6G 2G 4G 5G10G17G30
  20273455.922   106537722.00349  20273457.413    83016413.51349
  22486433.738   118166979.10548  22486438.673    92078176.74548
  20586268.244   108181567.32149  20586271.888    84297346.62249
  21451595.397   112728924.47948  21451600.309    87840767.94448
  21014360.563   110431212.01349  21014364.618    86050320.50749
  22112505.859   116202028.80748  22112510.854    90547062.92448
